<?xml version="1.0" encoding="UTF-8" standalone="no" ?>
<gpx xmlns="http://www.topografix.com/GPX/1/1" xmlns:xsi="http://www.w3.org/2001/XMLSchema-instance" xsi:schemaLocation="http://www.topografix.com/GPX/1/1 http://www.topografix.com/GPX/1/1/gpx.xsd" version="1.1" creator="VisuGPX - https://www.visugpx.com">
  <metadata>
    <name>2016-08-10 Mont Pellat - Fullie - Aillon</name>
    <desc><![CDATA[Rando en pente douce si l'on prend le télésiège]]></desc>
  </metadata>
  <trk>
    <name><![CDATA[2016-08-10 Mont Pellat-Fullie-Aillon]]></name>
    <trkseg>
      <trkpt lat="45.59478" lon="6.11285">
        <ele>1335.435687397</ele>
        <time>2016-08-10T13:55:28Z</time>
      </trkpt>
      <trkpt lat="45.59465" lon="6.11289">
        <ele>1338.710131761</ele>
        <time>2016-08-10T13:55:44Z</time>
      </trkpt>
      <trkpt lat="45.59457" lon="6.11296">
        <ele>1361.576043403</ele>
        <time>2016-08-10T13:55:49Z</time>
      </trkpt>
      <trkpt lat="45.59439" lon="6.11336">
        <ele>1391.54272683</ele>
        <time>2016-08-10T13:55:59Z</time>
      </trkpt>
      <trkpt lat="45.59432" lon="6.11344">
        <ele>1419.945343713</ele>
        <time>2016-08-10T13:56:03Z</time>
      </trkpt>
      <trkpt lat="45.59426" lon="6.11349">
        <ele>1419.945343713</ele>
        <time>2016-08-10T13:56:13Z</time>
      </trkpt>
      <trkpt lat="45.59421" lon="6.11352">
        <ele>1446.975015754</ele>
        <time>2016-08-10T13:56:18Z</time>
      </trkpt>
      <trkpt lat="45.59416" lon="6.11358">
        <ele>1446.975015754</ele>
        <time>2016-08-10T13:56:28Z</time>
      </trkpt>
      <trkpt lat="45.59414" lon="6.11361">
        <ele>1472.092978067</ele>
        <time>2016-08-10T13:56:33Z</time>
      </trkpt>
      <trkpt lat="45.59407" lon="6.11363">
        <ele>1472.092978067</ele>
        <time>2016-08-10T13:56:43Z</time>
      </trkpt>
      <trkpt lat="45.59404" lon="6.11366">
        <ele>1493.221160254</ele>
        <time>2016-08-10T13:56:48Z</time>
      </trkpt>
      <trkpt lat="45.59403" lon="6.11383">
        <ele>1513.490299215</ele>
        <time>2016-08-10T13:57:03Z</time>
      </trkpt>
      <trkpt lat="45.59403" lon="6.11381">
        <ele>1513.490299215</ele>
        <time>2016-08-10T13:57:08Z</time>
      </trkpt>
      <trkpt lat="45.59403" lon="6.11384">
        <ele>1513.490299215</ele>
        <time>2016-08-10T13:57:18Z</time>
      </trkpt>
      <trkpt lat="45.59404" lon="6.11391">
        <ele>1513.490299215</ele>
        <time>2016-08-10T13:57:23Z</time>
      </trkpt>
      <trkpt lat="45.59406" lon="6.11406">
        <ele>1531.481355759</ele>
        <time>2016-08-10T13:57:33Z</time>
      </trkpt>
      <trkpt lat="45.59407" lon="6.11414">
        <ele>1531.481355759</ele>
        <time>2016-08-10T13:57:38Z</time>
      </trkpt>
      <trkpt lat="45.59411" lon="6.1143">
        <ele>1547.328202445</ele>
        <time>2016-08-10T13:57:48Z</time>
      </trkpt>
      <trkpt lat="45.59412" lon="6.11437">
        <ele>1547.328202445</ele>
        <time>2016-08-10T13:57:53Z</time>
      </trkpt>
      <trkpt lat="45.59415" lon="6.11432">
        <ele>1561.162071087</ele>
        <time>2016-08-10T13:58:03Z</time>
      </trkpt>
      <trkpt lat="45.5942" lon="6.11426">
        <ele>1561.162071087</ele>
        <time>2016-08-10T13:58:08Z</time>
      </trkpt>
      <trkpt lat="45.59424" lon="6.11426">
        <ele>1573.255480507</ele>
        <time>2016-08-10T13:58:18Z</time>
      </trkpt>
      <trkpt lat="45.59427" lon="6.11426">
        <ele>1573.255480507</ele>
        <time>2016-08-10T13:58:23Z</time>
      </trkpt>
      <trkpt lat="45.59425" lon="6.11433">
        <ele>1573.255480507</ele>
        <time>2016-08-10T13:58:33Z</time>
      </trkpt>
      <trkpt lat="45.59423" lon="6.11438">
        <ele>1583.146396361</ele>
        <time>2016-08-10T13:58:38Z</time>
      </trkpt>
      <trkpt lat="45.59419" lon="6.11452">
        <ele>1590.846328325</ele>
        <time>2016-08-10T13:58:48Z</time>
      </trkpt>
      <trkpt lat="45.59418" lon="6.11457">
        <ele>1590.846328325</ele>
        <time>2016-08-10T13:58:53Z</time>
      </trkpt>
      <trkpt lat="45.59417" lon="6.11459">
        <ele>1590.846328325</ele>
        <time>2016-08-10T13:59:03Z</time>
      </trkpt>
      <trkpt lat="45.59417" lon="6.11459">
        <ele>1590.846328325</ele>
        <time>2016-08-10T13:59:08Z</time>
      </trkpt>
      <trkpt lat="45.59415" lon="6.11472">
        <ele>1596.37311271</ele>
        <time>2016-08-10T13:59:18Z</time>
      </trkpt>
      <trkpt lat="45.59413" lon="6.11479">
        <ele>1596.37311271</ele>
        <time>2016-08-10T13:59:23Z</time>
      </trkpt>
      <trkpt lat="45.59409" lon="6.11493">
        <ele>1600.470873433</ele>
        <time>2016-08-10T13:59:33Z</time>
      </trkpt>
      <trkpt lat="45.59406" lon="6.11502">
        <ele>1600.470873433</ele>
        <time>2016-08-10T13:59:38Z</time>
      </trkpt>
      <trkpt lat="45.59405" lon="6.11513">
        <ele>1603.113377053</ele>
        <time>2016-08-10T13:59:48Z</time>
      </trkpt>
      <trkpt lat="45.59404" lon="6.11516">
        <ele>1603.113377053</ele>
        <time>2016-08-10T13:59:53Z</time>
      </trkpt>
      <trkpt lat="45.59404" lon="6.11515">
        <ele>1603.113377053</ele>
        <time>2016-08-10T13:59:58Z</time>
      </trkpt>
      <trkpt lat="45.59404" lon="6.11516">
        <ele>1603.113377053</ele>
        <time>2016-08-10T14:00:03Z</time>
      </trkpt>
      <trkpt lat="45.59403" lon="6.1152">
        <ele>1603.113377053</ele>
        <time>2016-08-10T14:00:08Z</time>
      </trkpt>
      <trkpt lat="45.59403" lon="6.11525">
        <ele>1604.569371699</ele>
        <time>2016-08-10T14:00:13Z</time>
      </trkpt>
      <trkpt lat="45.59402" lon="6.1153">
        <ele>1604.569371699</ele>
        <time>2016-08-10T14:00:18Z</time>
      </trkpt>
      <trkpt lat="45.59401" lon="6.1153">
        <ele>1604.569371699</ele>
        <time>2016-08-10T14:00:23Z</time>
      </trkpt>
      <trkpt lat="45.59402" lon="6.11535">
        <ele>1604.569371699</ele>
        <time>2016-08-10T14:00:28Z</time>
      </trkpt>
      <trkpt lat="45.594" lon="6.11542">
        <ele>1605.235943768</ele>
        <time>2016-08-10T14:00:33Z</time>
      </trkpt>
      <trkpt lat="45.59399" lon="6.11548">
        <ele>1605.235943768</ele>
        <time>2016-08-10T14:00:38Z</time>
      </trkpt>
      <trkpt lat="45.59398" lon="6.11556">
        <ele>1605.051419163</ele>
        <time>2016-08-10T14:00:43Z</time>
      </trkpt>
      <trkpt lat="45.59397" lon="6.1156">
        <ele>1605.051419163</ele>
        <time>2016-08-10T14:00:48Z</time>
      </trkpt>
      <trkpt lat="45.59395" lon="6.11565">
        <ele>1605.051419163</ele>
        <time>2016-08-10T14:00:53Z</time>
      </trkpt>
      <trkpt lat="45.59396" lon="6.11571">
        <ele>1603.9614559</ele>
        <time>2016-08-10T14:00:58Z</time>
      </trkpt>
      <trkpt lat="45.59396" lon="6.11575">
        <ele>1603.9614559</ele>
        <time>2016-08-10T14:01:03Z</time>
      </trkpt>
      <trkpt lat="45.59395" lon="6.11579">
        <ele>1603.9614559</ele>
        <time>2016-08-10T14:01:08Z</time>
      </trkpt>
      <trkpt lat="45.59394" lon="6.11582">
        <ele>1603.9614559</ele>
        <time>2016-08-10T14:01:13Z</time>
      </trkpt>
      <trkpt lat="45.59393" lon="6.11586">
        <ele>1603.215546157</ele>
        <time>2016-08-10T14:01:18Z</time>
      </trkpt>
      <trkpt lat="45.59392" lon="6.11591">
        <ele>1603.215546157</ele>
        <time>2016-08-10T14:01:23Z</time>
      </trkpt>
      <trkpt lat="45.59391" lon="6.11593">
        <ele>1603.215546157</ele>
        <time>2016-08-10T14:01:28Z</time>
      </trkpt>
      <trkpt lat="45.5939" lon="6.11596">
        <ele>1603.215546157</ele>
        <time>2016-08-10T14:01:33Z</time>
      </trkpt>
      <trkpt lat="45.59388" lon="6.11596">
        <ele>1602.81773413</ele>
        <time>2016-08-10T14:01:38Z</time>
      </trkpt>
      <trkpt lat="45.59386" lon="6.11598">
        <ele>1602.81773413</ele>
        <time>2016-08-10T14:01:43Z</time>
      </trkpt>
      <trkpt lat="45.59387" lon="6.11601">
        <ele>1602.81773413</ele>
        <time>2016-08-10T14:01:48Z</time>
      </trkpt>
      <trkpt lat="45.59384" lon="6.11604">
        <ele>1602.81773413</ele>
        <time>2016-08-10T14:01:53Z</time>
      </trkpt>
      <trkpt lat="45.59384" lon="6.11607">
        <ele>1601.762102268</ele>
        <time>2016-08-10T14:01:58Z</time>
      </trkpt>
      <trkpt lat="45.59384" lon="6.11607">
        <ele>1601.762102268</ele>
        <time>2016-08-10T14:02:03Z</time>
      </trkpt>
      <trkpt lat="45.59384" lon="6.11608">
        <ele>1601.762102268</ele>
        <time>2016-08-10T14:02:08Z</time>
      </trkpt>
      <trkpt lat="45.59384" lon="6.11608">
        <ele>1601.762102268</ele>
        <time>2016-08-10T14:02:13Z</time>
      </trkpt>
      <trkpt lat="45.59384" lon="6.11608">
        <ele>1601.762102268</ele>
        <time>2016-08-10T14:02:18Z</time>
      </trkpt>
      <trkpt lat="45.59384" lon="6.11607">
        <ele>1601.762102268</ele>
        <time>2016-08-10T14:02:23Z</time>
      </trkpt>
      <trkpt lat="45.59384" lon="6.11608">
        <ele>1601.762102268</ele>
        <time>2016-08-10T14:02:28Z</time>
      </trkpt>
      <trkpt lat="45.59384" lon="6.11608">
        <ele>1601.762102268</ele>
        <time>2016-08-10T14:02:33Z</time>
      </trkpt>
      <trkpt lat="45.59384" lon="6.11605">
        <ele>1601.762102268</ele>
        <time>2016-08-10T14:02:38Z</time>
      </trkpt>
      <trkpt lat="45.59385" lon="6.11603">
        <ele>1601.762102268</ele>
        <time>2016-08-10T14:02:43Z</time>
      </trkpt>
      <trkpt lat="45.59389" lon="6.11599">
        <ele>1600.127243131</ele>
        <time>2016-08-10T14:02:48Z</time>
      </trkpt>
      <trkpt lat="45.59391" lon="6.11597">
        <ele>1600.127243131</ele>
        <time>2016-08-10T14:02:53Z</time>
      </trkpt>
      <trkpt lat="45.5939" lon="6.11593">
        <ele>1600.127243131</ele>
        <time>2016-08-10T14:02:58Z</time>
      </trkpt>
      <trkpt lat="45.59392" lon="6.11594">
        <ele>1600.127243131</ele>
        <time>2016-08-10T14:03:03Z</time>
      </trkpt>
      <trkpt lat="45.59393" lon="6.11591">
        <ele>1600.127243131</ele>
        <time>2016-08-10T14:03:08Z</time>
      </trkpt>
      <trkpt lat="45.59392" lon="6.11591">
        <ele>1592.511267413</ele>
        <time>2016-08-10T14:03:13Z</time>
      </trkpt>
      <trkpt lat="45.59392" lon="6.11592">
        <ele>1592.511267413</ele>
        <time>2016-08-10T14:03:18Z</time>
      </trkpt>
      <trkpt lat="45.59392" lon="6.11586">
        <ele>1592.511267413</ele>
        <time>2016-08-10T14:03:23Z</time>
      </trkpt>
      <trkpt lat="45.59394" lon="6.11582">
        <ele>1592.511267413</ele>
        <time>2016-08-10T14:03:28Z</time>
      </trkpt>
      <trkpt lat="45.59394" lon="6.11575">
        <ele>1588.625017341</ele>
        <time>2016-08-10T14:03:33Z</time>
      </trkpt>
      <trkpt lat="45.59395" lon="6.11574">
        <ele>1588.625017341</ele>
        <time>2016-08-10T14:03:38Z</time>
      </trkpt>
      <trkpt lat="45.59396" lon="6.11567">
        <ele>1588.625017341</ele>
        <time>2016-08-10T14:03:43Z</time>
      </trkpt>
      <trkpt lat="45.59397" lon="6.11561">
        <ele>1584.48520953</ele>
        <time>2016-08-10T14:03:48Z</time>
      </trkpt>
      <trkpt lat="45.594" lon="6.11555">
        <ele>1584.48520953</ele>
        <time>2016-08-10T14:03:53Z</time>
      </trkpt>
      <trkpt lat="45.594" lon="6.11547">
        <ele>1579.860148313</ele>
        <time>2016-08-10T14:03:58Z</time>
      </trkpt>
      <trkpt lat="45.59401" lon="6.11539">
        <ele>1579.860148313</ele>
        <time>2016-08-10T14:04:03Z</time>
      </trkpt>
      <trkpt lat="45.59402" lon="6.11532">
        <ele>1575.112472908</ele>
        <time>2016-08-10T14:04:08Z</time>
      </trkpt>
      <trkpt lat="45.59402" lon="6.11526">
        <ele>1575.112472908</ele>
        <time>2016-08-10T14:04:13Z</time>
      </trkpt>
      <trkpt lat="45.59404" lon="6.11517">
        <ele>1570.289735208</ele>
        <time>2016-08-10T14:04:18Z</time>
      </trkpt>
      <trkpt lat="45.59405" lon="6.11508">
        <ele>1570.289735208</ele>
        <time>2016-08-10T14:04:23Z</time>
      </trkpt>
      <trkpt lat="45.59406" lon="6.11501">
        <ele>1565.723785269</ele>
        <time>2016-08-10T14:04:28Z</time>
      </trkpt>
      <trkpt lat="45.59408" lon="6.11495">
        <ele>1565.723785269</ele>
        <time>2016-08-10T14:04:33Z</time>
      </trkpt>
      <trkpt lat="45.59409" lon="6.11487">
        <ele>1561.432446593</ele>
        <time>2016-08-10T14:04:38Z</time>
      </trkpt>
      <trkpt lat="45.59411" lon="6.11481">
        <ele>1561.432446593</ele>
        <time>2016-08-10T14:04:43Z</time>
      </trkpt>
      <trkpt lat="45.59415" lon="6.11474">
        <ele>1556.854254427</ele>
        <time>2016-08-10T14:04:48Z</time>
      </trkpt>
      <trkpt lat="45.59416" lon="6.11468">
        <ele>1556.854254427</ele>
        <time>2016-08-10T14:04:53Z</time>
      </trkpt>
      <trkpt lat="45.59415" lon="6.11463">
        <ele>1556.854254427</ele>
        <time>2016-08-10T14:04:58Z</time>
      </trkpt>
      <trkpt lat="45.59417" lon="6.11459">
        <ele>1552.621869357</ele>
        <time>2016-08-10T14:05:03Z</time>
      </trkpt>
      <trkpt lat="45.59417" lon="6.11454">
        <ele>1552.621869357</ele>
        <time>2016-08-10T14:05:08Z</time>
      </trkpt>
      <trkpt lat="45.59419" lon="6.11447">
        <ele>1552.621869357</ele>
        <time>2016-08-10T14:05:13Z</time>
      </trkpt>
      <trkpt lat="45.5942" lon="6.11444">
        <ele>1545.572755459</ele>
        <time>2016-08-10T14:05:18Z</time>
      </trkpt>
      <trkpt lat="45.5942" lon="6.11444">
        <ele>1545.572755459</ele>
        <time>2016-08-10T14:05:23Z</time>
      </trkpt>
      <trkpt lat="45.5942" lon="6.11444">
        <ele>1545.572755459</ele>
        <time>2016-08-10T14:05:28Z</time>
      </trkpt>
      <trkpt lat="45.5942" lon="6.11444">
        <ele>1545.572755459</ele>
        <time>2016-08-10T14:05:33Z</time>
      </trkpt>
      <trkpt lat="45.59424" lon="6.11431">
        <ele>1542.72736884</ele>
        <time>2016-08-10T14:05:43Z</time>
      </trkpt>
      <trkpt lat="45.59426" lon="6.11426">
        <ele>1542.72736884</ele>
        <time>2016-08-10T14:05:48Z</time>
      </trkpt>
      <trkpt lat="45.5943" lon="6.11421">
        <ele>1539.62527502</ele>
        <time>2016-08-10T14:05:58Z</time>
      </trkpt>
      <trkpt lat="45.59431" lon="6.11415">
        <ele>1539.62527502</ele>
        <time>2016-08-10T14:06:03Z</time>
      </trkpt>
      <trkpt lat="45.59432" lon="6.11398">
        <ele>1536.745024301</ele>
        <time>2016-08-10T14:06:13Z</time>
      </trkpt>
      <trkpt lat="45.59433" lon="6.11395">
        <ele>1536.745024301</ele>
        <time>2016-08-10T14:06:18Z</time>
      </trkpt>
      <trkpt lat="45.59436" lon="6.11391">
        <ele>1536.745024301</ele>
        <time>2016-08-10T14:06:28Z</time>
      </trkpt>
      <trkpt lat="45.59436" lon="6.11391">
        <ele>1536.745024301</ele>
        <time>2016-08-10T14:06:33Z</time>
      </trkpt>
      <trkpt lat="45.5944" lon="6.1139">
        <ele>1534.672535291</ele>
        <time>2016-08-10T14:06:38Z</time>
      </trkpt>
      <trkpt lat="45.59445" lon="6.11395">
        <ele>1534.672535291</ele>
        <time>2016-08-10T14:06:48Z</time>
      </trkpt>
      <trkpt lat="45.59445" lon="6.11394">
        <ele>1534.672535291</ele>
        <time>2016-08-10T14:06:53Z</time>
      </trkpt>
      <trkpt lat="45.59445" lon="6.11394">
        <ele>1534.672535291</ele>
        <time>2016-08-10T14:07:03Z</time>
      </trkpt>
      <trkpt lat="45.59448" lon="6.11395">
        <ele>1532.506338798</ele>
        <time>2016-08-10T14:07:08Z</time>
      </trkpt>
      <trkpt lat="45.59452" lon="6.11395">
        <ele>1532.506338798</ele>
        <time>2016-08-10T14:07:18Z</time>
      </trkpt>
      <trkpt lat="45.59455" lon="6.11399">
        <ele>1532.506338798</ele>
        <time>2016-08-10T14:07:23Z</time>
      </trkpt>
      <trkpt lat="45.59463" lon="6.11401">
        <ele>1530.131038916</ele>
        <time>2016-08-10T14:07:33Z</time>
      </trkpt>
      <trkpt lat="45.59468" lon="6.11402">
        <ele>1530.131038916</ele>
        <time>2016-08-10T14:07:38Z</time>
      </trkpt>
      <trkpt lat="45.59473" lon="6.1141">
        <ele>1527.43934209</ele>
        <time>2016-08-10T14:07:48Z</time>
      </trkpt>
      <trkpt lat="45.59478" lon="6.11414">
        <ele>1527.43934209</ele>
        <time>2016-08-10T14:07:53Z</time>
      </trkpt>
      <trkpt lat="45.59481" lon="6.11417">
        <ele>1527.43934209</ele>
        <time>2016-08-10T14:08:08Z</time>
      </trkpt>
      <trkpt lat="45.59485" lon="6.11421">
        <ele>1524.475881828</ele>
        <time>2016-08-10T14:08:13Z</time>
      </trkpt>
      <trkpt lat="45.59494" lon="6.11433">
        <ele>1520.561272824</ele>
        <time>2016-08-10T14:08:23Z</time>
      </trkpt>
      <trkpt lat="45.59497" lon="6.11436">
        <ele>1520.561272824</ele>
        <time>2016-08-10T14:08:28Z</time>
      </trkpt>
      <trkpt lat="45.59508" lon="6.11442">
        <ele>1516.364765117</ele>
        <time>2016-08-10T14:08:38Z</time>
      </trkpt>
      <trkpt lat="45.59513" lon="6.11447">
        <ele>1516.364765117</ele>
        <time>2016-08-10T14:08:43Z</time>
      </trkpt>
      <trkpt lat="45.59518" lon="6.1145">
        <ele>1512.938636026</ele>
        <time>2016-08-10T14:08:53Z</time>
      </trkpt>
      <trkpt lat="45.59518" lon="6.1145">
        <ele>1512.938636026</ele>
        <time>2016-08-10T14:08:58Z</time>
      </trkpt>
      <trkpt lat="45.59519" lon="6.11451">
        <ele>1512.938636026</ele>
        <time>2016-08-10T14:09:08Z</time>
      </trkpt>
      <trkpt lat="45.59523" lon="6.11455">
        <ele>1512.938636026</ele>
        <time>2016-08-10T14:09:13Z</time>
      </trkpt>
      <trkpt lat="45.59538" lon="6.11466">
        <ele>1509.813663468</ele>
        <time>2016-08-10T14:09:23Z</time>
      </trkpt>
      <trkpt lat="45.59541" lon="6.11466">
        <ele>1509.813663468</ele>
        <time>2016-08-10T14:09:28Z</time>
      </trkpt>
      <trkpt lat="45.59542" lon="6.11466">
        <ele>1509.813663468</ele>
        <time>2016-08-10T14:09:43Z</time>
      </trkpt>
      <trkpt lat="45.59542" lon="6.11466">
        <ele>1509.813663468</ele>
        <time>2016-08-10T14:09:48Z</time>
      </trkpt>
      <trkpt lat="45.59547" lon="6.11472">
        <ele>1506.120997691</ele>
        <time>2016-08-10T14:09:58Z</time>
      </trkpt>
      <trkpt lat="45.59551" lon="6.11476">
        <ele>1506.120997691</ele>
        <time>2016-08-10T14:10:03Z</time>
      </trkpt>
      <trkpt lat="45.59559" lon="6.11484">
        <ele>1502.209189453</ele>
        <time>2016-08-10T14:10:13Z</time>
      </trkpt>
      <trkpt lat="45.5956" lon="6.11484">
        <ele>1502.209189453</ele>
        <time>2016-08-10T14:10:18Z</time>
      </trkpt>
      <trkpt lat="45.59562" lon="6.11486">
        <ele>1502.209189453</ele>
        <time>2016-08-10T14:10:28Z</time>
      </trkpt>
      <trkpt lat="45.59567" lon="6.1149">
        <ele>1502.209189453</ele>
        <time>2016-08-10T14:10:33Z</time>
      </trkpt>
      <trkpt lat="45.59577" lon="6.11496">
        <ele>1498.256795701</ele>
        <time>2016-08-10T14:10:43Z</time>
      </trkpt>
      <trkpt lat="45.59584" lon="6.115">
        <ele>1498.256795701</ele>
        <time>2016-08-10T14:10:48Z</time>
      </trkpt>
      <trkpt lat="45.59593" lon="6.11506">
        <ele>1494.716714492</ele>
        <time>2016-08-10T14:10:58Z</time>
      </trkpt>
      <trkpt lat="45.59596" lon="6.1151">
        <ele>1494.716714492</ele>
        <time>2016-08-10T14:11:03Z</time>
      </trkpt>
      <trkpt lat="45.59609" lon="6.11516">
        <ele>1491.574221871</ele>
        <time>2016-08-10T14:11:13Z</time>
      </trkpt>
      <trkpt lat="45.59613" lon="6.11519">
        <ele>1491.574221871</ele>
        <time>2016-08-10T14:11:18Z</time>
      </trkpt>
      <trkpt lat="45.59622" lon="6.11525">
        <ele>1488.957828545</ele>
        <time>2016-08-10T14:11:28Z</time>
      </trkpt>
      <trkpt lat="45.59627" lon="6.11528">
        <ele>1488.957828545</ele>
        <time>2016-08-10T14:11:33Z</time>
      </trkpt>
      <trkpt lat="45.59637" lon="6.11537">
        <ele>1486.119641699</ele>
        <time>2016-08-10T14:11:48Z</time>
      </trkpt>
      <trkpt lat="45.59645" lon="6.11535">
        <ele>1486.119641699</ele>
        <time>2016-08-10T14:11:53Z</time>
      </trkpt>
      <trkpt lat="45.5965" lon="6.11541">
        <ele>1482.654756735</ele>
        <time>2016-08-10T14:12:03Z</time>
      </trkpt>
      <trkpt lat="45.59657" lon="6.11543">
        <ele>1482.654756735</ele>
        <time>2016-08-10T14:12:08Z</time>
      </trkpt>
      <trkpt lat="45.59663" lon="6.11548">
        <ele>1479.197778385</ele>
        <time>2016-08-10T14:12:18Z</time>
      </trkpt>
      <trkpt lat="45.59667" lon="6.11553">
        <ele>1479.197778385</ele>
        <time>2016-08-10T14:12:23Z</time>
      </trkpt>
      <trkpt lat="45.59677" lon="6.1156">
        <ele>1475.471257598</ele>
        <time>2016-08-10T14:12:33Z</time>
      </trkpt>
      <trkpt lat="45.5968" lon="6.11564">
        <ele>1475.471257598</ele>
        <time>2016-08-10T14:12:38Z</time>
      </trkpt>
      <trkpt lat="45.5969" lon="6.11568">
        <ele>1471.650491736</ele>
        <time>2016-08-10T14:12:48Z</time>
      </trkpt>
      <trkpt lat="45.59692" lon="6.11569">
        <ele>1471.650491736</ele>
        <time>2016-08-10T14:12:53Z</time>
      </trkpt>
      <trkpt lat="45.59681" lon="6.11571">
        <ele>1468.041573747</ele>
        <time>2016-08-10T14:13:03Z</time>
      </trkpt>
      <trkpt lat="45.59689" lon="6.11569">
        <ele>1468.041573747</ele>
        <time>2016-08-10T14:13:08Z</time>
      </trkpt>
      <trkpt lat="45.59672" lon="6.11567">
        <ele>1464.494502554</ele>
        <time>2016-08-10T14:13:18Z</time>
      </trkpt>
      <trkpt lat="45.59678" lon="6.11568">
        <ele>1464.494502554</ele>
        <time>2016-08-10T14:13:23Z</time>
      </trkpt>
      <trkpt lat="45.59684" lon="6.11564">
        <ele>1461.590020952</ele>
        <time>2016-08-10T14:13:38Z</time>
      </trkpt>
      <trkpt lat="45.59686" lon="6.11561">
        <ele>1461.590020952</ele>
        <time>2016-08-10T14:13:43Z</time>
      </trkpt>
      <trkpt lat="45.59686" lon="6.11565">
        <ele>1461.590020952</ele>
        <time>2016-08-10T14:13:53Z</time>
      </trkpt>
      <trkpt lat="45.59686" lon="6.11565">
        <ele>1461.590020952</ele>
        <time>2016-08-10T14:13:58Z</time>
      </trkpt>
      <trkpt lat="45.59686" lon="6.11565">
        <ele>1461.590020952</ele>
        <time>2016-08-10T14:14:08Z</time>
      </trkpt>
      <trkpt lat="45.59694" lon="6.11568">
        <ele>1459.287331847</ele>
        <time>2016-08-10T14:14:13Z</time>
      </trkpt>
      <trkpt lat="45.59712" lon="6.11579">
        <ele>1456.537564767</ele>
        <time>2016-08-10T14:14:23Z</time>
      </trkpt>
      <trkpt lat="45.59715" lon="6.11584">
        <ele>1456.537564767</ele>
        <time>2016-08-10T14:14:28Z</time>
      </trkpt>
      <trkpt lat="45.59731" lon="6.11591">
        <ele>1454.675358438</ele>
        <time>2016-08-10T14:14:38Z</time>
      </trkpt>
      <trkpt lat="45.59739" lon="6.11592">
        <ele>1454.675358438</ele>
        <time>2016-08-10T14:14:43Z</time>
      </trkpt>
      <trkpt lat="45.59749" lon="6.11602">
        <ele>1452.916723325</ele>
        <time>2016-08-10T14:14:53Z</time>
      </trkpt>
      <trkpt lat="45.59753" lon="6.11607">
        <ele>1452.916723325</ele>
        <time>2016-08-10T14:14:58Z</time>
      </trkpt>
      <trkpt lat="45.59774" lon="6.11619">
        <ele>1451.399131697</ele>
        <time>2016-08-10T14:15:13Z</time>
      </trkpt>
      <trkpt lat="45.59781" lon="6.11622">
        <ele>1451.399131697</ele>
        <time>2016-08-10T14:15:18Z</time>
      </trkpt>
      <trkpt lat="45.59793" lon="6.11629">
        <ele>1450.392921837</ele>
        <time>2016-08-10T14:15:29Z</time>
      </trkpt>
      <trkpt lat="45.598" lon="6.11631">
        <ele>1450.392921837</ele>
        <time>2016-08-10T14:15:33Z</time>
      </trkpt>
      <trkpt lat="45.59808" lon="6.11637">
        <ele>1449.137926662</ele>
        <time>2016-08-10T14:15:43Z</time>
      </trkpt>
      <trkpt lat="45.59816" lon="6.1164">
        <ele>1449.137926662</ele>
        <time>2016-08-10T14:15:50Z</time>
      </trkpt>
      <trkpt lat="45.59828" lon="6.11646">
        <ele>1447.650676589</ele>
        <time>2016-08-10T14:15:59Z</time>
      </trkpt>
      <trkpt lat="45.59833" lon="6.11649">
        <ele>1447.650676589</ele>
        <time>2016-08-10T14:16:03Z</time>
      </trkpt>
      <trkpt lat="45.5984" lon="6.11658">
        <ele>1445.802664822</ele>
        <time>2016-08-10T14:16:14Z</time>
      </trkpt>
      <trkpt lat="45.59843" lon="6.11661">
        <ele>1445.802664822</ele>
        <time>2016-08-10T14:16:18Z</time>
      </trkpt>
      <trkpt lat="45.59854" lon="6.11671">
        <ele>1443.76372748</ele>
        <time>2016-08-10T14:16:28Z</time>
      </trkpt>
      <trkpt lat="45.59859" lon="6.11674">
        <ele>1443.76372748</ele>
        <time>2016-08-10T14:16:33Z</time>
      </trkpt>
      <trkpt lat="45.59869" lon="6.11681">
        <ele>1441.979680074</ele>
        <time>2016-08-10T14:16:43Z</time>
      </trkpt>
      <trkpt lat="45.59874" lon="6.11683">
        <ele>1441.979680074</ele>
        <time>2016-08-10T14:16:48Z</time>
      </trkpt>
      <trkpt lat="45.59887" lon="6.11687">
        <ele>1440.862599023</ele>
        <time>2016-08-10T14:16:58Z</time>
      </trkpt>
      <trkpt lat="45.59892" lon="6.1169">
        <ele>1440.862599023</ele>
        <time>2016-08-10T14:17:03Z</time>
      </trkpt>
      <trkpt lat="45.59902" lon="6.11694">
        <ele>1440.071615899</ele>
        <time>2016-08-10T14:17:13Z</time>
      </trkpt>
      <trkpt lat="45.59904" lon="6.11696">
        <ele>1440.071615899</ele>
        <time>2016-08-10T14:17:18Z</time>
      </trkpt>
      <trkpt lat="45.5992" lon="6.11702">
        <ele>1439.577991541</ele>
        <time>2016-08-10T14:17:28Z</time>
      </trkpt>
      <trkpt lat="45.59931" lon="6.11704">
        <ele>1439.498187437</ele>
        <time>2016-08-10T14:17:34Z</time>
      </trkpt>
      <trkpt lat="45.59947" lon="6.1171">
        <ele>1439.794682682</ele>
        <time>2016-08-10T14:17:48Z</time>
      </trkpt>
      <trkpt lat="45.59956" lon="6.11713">
        <ele>1439.999200953</ele>
        <time>2016-08-10T14:17:53Z</time>
      </trkpt>
      <trkpt lat="45.59964" lon="6.11718">
        <ele>1439.999200953</ele>
        <time>2016-08-10T14:18:03Z</time>
      </trkpt>
      <trkpt lat="45.59963" lon="6.11718">
        <ele>1439.966254973</ele>
        <time>2016-08-10T14:18:08Z</time>
      </trkpt>
      <trkpt lat="45.59965" lon="6.11719">
        <ele>1439.966254973</ele>
        <time>2016-08-10T14:18:18Z</time>
      </trkpt>
      <trkpt lat="45.59976" lon="6.1172">
        <ele>1439.993984615</ele>
        <time>2016-08-10T14:18:24Z</time>
      </trkpt>
      <trkpt lat="45.59986" lon="6.1172">
        <ele>1440.358427478</ele>
        <time>2016-08-10T14:18:33Z</time>
      </trkpt>
      <trkpt lat="45.5999" lon="6.11722">
        <ele>1440.358427478</ele>
        <time>2016-08-10T14:18:38Z</time>
      </trkpt>
      <trkpt lat="45.60001" lon="6.11724">
        <ele>1440.305616146</ele>
        <time>2016-08-10T14:18:48Z</time>
      </trkpt>
      <trkpt lat="45.60005" lon="6.11727">
        <ele>1440.305616146</ele>
        <time>2016-08-10T14:18:53Z</time>
      </trkpt>
      <trkpt lat="45.60015" lon="6.11727">
        <ele>1440.146937121</ele>
        <time>2016-08-10T14:19:03Z</time>
      </trkpt>
      <trkpt lat="45.6002" lon="6.1173">
        <ele>1440.146937121</ele>
        <time>2016-08-10T14:19:09Z</time>
      </trkpt>
      <trkpt lat="45.60028" lon="6.11729">
        <ele>1439.594795305</ele>
        <time>2016-08-10T14:19:18Z</time>
      </trkpt>
      <trkpt lat="45.60033" lon="6.11728">
        <ele>1439.594795305</ele>
        <time>2016-08-10T14:19:23Z</time>
      </trkpt>
      <trkpt lat="45.60045" lon="6.11729">
        <ele>1438.527994841</ele>
        <time>2016-08-10T14:19:39Z</time>
      </trkpt>
      <trkpt lat="45.60049" lon="6.11729">
        <ele>1438.527994841</ele>
        <time>2016-08-10T14:19:43Z</time>
      </trkpt>
      <trkpt lat="45.60056" lon="6.11727">
        <ele>1436.835756847</ele>
        <time>2016-08-10T14:19:54Z</time>
      </trkpt>
      <trkpt lat="45.60059" lon="6.11727">
        <ele>1436.835756847</ele>
        <time>2016-08-10T14:19:59Z</time>
      </trkpt>
      <trkpt lat="45.60067" lon="6.1173">
        <ele>1434.849606469</ele>
        <time>2016-08-10T14:20:08Z</time>
      </trkpt>
      <trkpt lat="45.60071" lon="6.11732">
        <ele>1434.849606469</ele>
        <time>2016-08-10T14:20:14Z</time>
      </trkpt>
      <trkpt lat="45.60078" lon="6.11736">
        <ele>1432.733510489</ele>
        <time>2016-08-10T14:20:29Z</time>
      </trkpt>
      <trkpt lat="45.60081" lon="6.11738">
        <ele>1432.733510489</ele>
        <time>2016-08-10T14:20:33Z</time>
      </trkpt>
      <trkpt lat="45.60086" lon="6.11738">
        <ele>1432.733510489</ele>
        <time>2016-08-10T14:20:38Z</time>
      </trkpt>
      <trkpt lat="45.60085" lon="6.11738">
        <ele>1432.733510489</ele>
        <time>2016-08-10T14:20:43Z</time>
      </trkpt>
      <trkpt lat="45.60088" lon="6.11739">
        <ele>1430.92806056</ele>
        <time>2016-08-10T14:20:58Z</time>
      </trkpt>
      <trkpt lat="45.60091" lon="6.11741">
        <ele>1430.92806056</ele>
        <time>2016-08-10T14:21:03Z</time>
      </trkpt>
      <trkpt lat="45.601" lon="6.11744">
        <ele>1428.831914881</ele>
        <time>2016-08-10T14:21:13Z</time>
      </trkpt>
      <trkpt lat="45.60103" lon="6.11746">
        <ele>1428.831914881</ele>
        <time>2016-08-10T14:21:18Z</time>
      </trkpt>
      <trkpt lat="45.60107" lon="6.11752">
        <ele>1427.04169128</ele>
        <time>2016-08-10T14:21:28Z</time>
      </trkpt>
      <trkpt lat="45.60109" lon="6.11755">
        <ele>1427.04169128</ele>
        <time>2016-08-10T14:21:33Z</time>
      </trkpt>
      <trkpt lat="45.60114" lon="6.11757">
        <ele>1427.04169128</ele>
        <time>2016-08-10T14:21:43Z</time>
      </trkpt>
      <trkpt lat="45.60113" lon="6.11757">
        <ele>1427.04169128</ele>
        <time>2016-08-10T14:21:48Z</time>
      </trkpt>
      <trkpt lat="45.60117" lon="6.11761">
        <ele>1424.524177606</ele>
        <time>2016-08-10T14:21:59Z</time>
      </trkpt>
      <trkpt lat="45.6012" lon="6.11764">
        <ele>1424.524177606</ele>
        <time>2016-08-10T14:22:04Z</time>
      </trkpt>
      <trkpt lat="45.60128" lon="6.11766">
        <ele>1421.765287721</ele>
        <time>2016-08-10T14:22:14Z</time>
      </trkpt>
      <trkpt lat="45.60131" lon="6.11772">
        <ele>1421.765287721</ele>
        <time>2016-08-10T14:22:19Z</time>
      </trkpt>
      <trkpt lat="45.60136" lon="6.11779">
        <ele>1418.639542398</ele>
        <time>2016-08-10T14:22:29Z</time>
      </trkpt>
      <trkpt lat="45.60138" lon="6.11782">
        <ele>1418.639542398</ele>
        <time>2016-08-10T14:22:33Z</time>
      </trkpt>
      <trkpt lat="45.60145" lon="6.1179">
        <ele>1415.608216047</ele>
        <time>2016-08-10T14:22:44Z</time>
      </trkpt>
      <trkpt lat="45.6015" lon="6.11792">
        <ele>1415.608216047</ele>
        <time>2016-08-10T14:22:48Z</time>
      </trkpt>
      <trkpt lat="45.60155" lon="6.118">
        <ele>1411.801484691</ele>
        <time>2016-08-10T14:22:59Z</time>
      </trkpt>
      <trkpt lat="45.60157" lon="6.11801">
        <ele>1411.801484691</ele>
        <time>2016-08-10T14:23:03Z</time>
      </trkpt>
      <trkpt lat="45.6016" lon="6.11807">
        <ele>1411.801484691</ele>
        <time>2016-08-10T14:23:08Z</time>
      </trkpt>
      <trkpt lat="45.60167" lon="6.11817">
        <ele>1408.721416663</ele>
        <time>2016-08-10T14:23:19Z</time>
      </trkpt>
      <trkpt lat="45.60171" lon="6.11821">
        <ele>1408.721416663</ele>
        <time>2016-08-10T14:23:23Z</time>
      </trkpt>
      <trkpt lat="45.60173" lon="6.11824">
        <ele>1408.721416663</ele>
        <time>2016-08-10T14:23:33Z</time>
      </trkpt>
      <trkpt lat="45.60176" lon="6.11828">
        <ele>1405.596064245</ele>
        <time>2016-08-10T14:23:38Z</time>
      </trkpt>
      <trkpt lat="45.60182" lon="6.11835">
        <ele>1405.596064245</ele>
        <time>2016-08-10T14:23:48Z</time>
      </trkpt>
      <trkpt lat="45.60186" lon="6.11836">
        <ele>1402.575001865</ele>
        <time>2016-08-10T14:23:53Z</time>
      </trkpt>
      <trkpt lat="45.60195" lon="6.11843">
        <ele>1399.652425426</ele>
        <time>2016-08-10T14:24:03Z</time>
      </trkpt>
      <trkpt lat="45.60197" lon="6.11848">
        <ele>1399.652425426</ele>
        <time>2016-08-10T14:24:08Z</time>
      </trkpt>
      <trkpt lat="45.60204" lon="6.11857">
        <ele>1396.822687345</ele>
        <time>2016-08-10T14:24:19Z</time>
      </trkpt>
      <trkpt lat="45.60207" lon="6.11861">
        <ele>1396.822687345</ele>
        <time>2016-08-10T14:24:23Z</time>
      </trkpt>
      <trkpt lat="45.60214" lon="6.11864">
        <ele>1393.503849905</ele>
        <time>2016-08-10T14:24:33Z</time>
      </trkpt>
      <trkpt lat="45.60217" lon="6.11866">
        <ele>1393.503849905</ele>
        <time>2016-08-10T14:24:39Z</time>
      </trkpt>
      <trkpt lat="45.60224" lon="6.11872">
        <ele>1389.734534269</ele>
        <time>2016-08-10T14:24:48Z</time>
      </trkpt>
      <trkpt lat="45.60226" lon="6.11874">
        <ele>1389.734534269</ele>
        <time>2016-08-10T14:24:54Z</time>
      </trkpt>
      <trkpt lat="45.60234" lon="6.11886">
        <ele>1385.695884764</ele>
        <time>2016-08-10T14:25:03Z</time>
      </trkpt>
      <trkpt lat="45.60238" lon="6.11894">
        <ele>1385.695884764</ele>
        <time>2016-08-10T14:25:08Z</time>
      </trkpt>
      <trkpt lat="45.60248" lon="6.11909">
        <ele>1382.132915913</ele>
        <time>2016-08-10T14:25:23Z</time>
      </trkpt>
      <trkpt lat="45.60253" lon="6.11916">
        <ele>1382.132915913</ele>
        <time>2016-08-10T14:25:28Z</time>
      </trkpt>
      <trkpt lat="45.60262" lon="6.11928">
        <ele>1379.734548842</ele>
        <time>2016-08-10T14:25:39Z</time>
      </trkpt>
      <trkpt lat="45.60268" lon="6.11931">
        <ele>1379.734548842</ele>
        <time>2016-08-10T14:25:43Z</time>
      </trkpt>
      <trkpt lat="45.60279" lon="6.11938">
        <ele>1376.830014385</ele>
        <time>2016-08-10T14:25:54Z</time>
      </trkpt>
      <trkpt lat="45.60282" lon="6.11941">
        <ele>1376.830014385</ele>
        <time>2016-08-10T14:25:58Z</time>
      </trkpt>
      <trkpt lat="45.6029" lon="6.11943">
        <ele>1373.746101747</ele>
        <time>2016-08-10T14:26:08Z</time>
      </trkpt>
      <trkpt lat="45.60294" lon="6.11945">
        <ele>1373.746101747</ele>
        <time>2016-08-10T14:26:14Z</time>
      </trkpt>
      <trkpt lat="45.60304" lon="6.11952">
        <ele>1371.218390059</ele>
        <time>2016-08-10T14:26:24Z</time>
      </trkpt>
      <trkpt lat="45.60305" lon="6.11955">
        <ele>1371.218390059</ele>
        <time>2016-08-10T14:26:28Z</time>
      </trkpt>
      <trkpt lat="45.60311" lon="6.11969">
        <ele>1368.773933255</ele>
        <time>2016-08-10T14:26:39Z</time>
      </trkpt>
      <trkpt lat="45.60313" lon="6.11971">
        <ele>1368.773933255</ele>
        <time>2016-08-10T14:26:43Z</time>
      </trkpt>
      <trkpt lat="45.60324" lon="6.11978">
        <ele>1365.541919806</ele>
        <time>2016-08-10T14:26:58Z</time>
      </trkpt>
      <trkpt lat="45.60328" lon="6.11981">
        <ele>1365.541919806</ele>
        <time>2016-08-10T14:27:03Z</time>
      </trkpt>
      <trkpt lat="45.6034" lon="6.11986">
        <ele>1362.73523287</ele>
        <time>2016-08-10T14:27:14Z</time>
      </trkpt>
      <trkpt lat="45.60342" lon="6.11987">
        <ele>1362.73523287</ele>
        <time>2016-08-10T14:27:19Z</time>
      </trkpt>
      <trkpt lat="45.6035" lon="6.11993">
        <ele>1360.179424849</ele>
        <time>2016-08-10T14:27:29Z</time>
      </trkpt>
      <trkpt lat="45.60353" lon="6.11992">
        <ele>1360.179424849</ele>
        <time>2016-08-10T14:27:33Z</time>
      </trkpt>
      <trkpt lat="45.60365" lon="6.11996">
        <ele>1359.153234763</ele>
        <time>2016-08-10T14:27:44Z</time>
      </trkpt>
      <trkpt lat="45.6037" lon="6.12">
        <ele>1359.153234763</ele>
        <time>2016-08-10T14:27:48Z</time>
      </trkpt>
      <trkpt lat="45.60383" lon="6.12009">
        <ele>1356.946141098</ele>
        <time>2016-08-10T14:27:59Z</time>
      </trkpt>
      <trkpt lat="45.60387" lon="6.12012">
        <ele>1356.946141098</ele>
        <time>2016-08-10T14:28:03Z</time>
      </trkpt>
      <trkpt lat="45.60397" lon="6.12022">
        <ele>1354.796912236</ele>
        <time>2016-08-10T14:28:14Z</time>
      </trkpt>
      <trkpt lat="45.60402" lon="6.12022">
        <ele>1354.796912236</ele>
        <time>2016-08-10T14:28:18Z</time>
      </trkpt>
      <trkpt lat="45.60411" lon="6.12022">
        <ele>1352.844357386</ele>
        <time>2016-08-10T14:28:28Z</time>
      </trkpt>
      <trkpt lat="45.60418" lon="6.12024">
        <ele>1352.844357386</ele>
        <time>2016-08-10T14:28:33Z</time>
      </trkpt>
      <trkpt lat="45.60431" lon="6.12027">
        <ele>1350.784190702</ele>
        <time>2016-08-10T14:28:43Z</time>
      </trkpt>
      <trkpt lat="45.60438" lon="6.12031">
        <ele>1350.784190702</ele>
        <time>2016-08-10T14:28:51Z</time>
      </trkpt>
      <trkpt lat="45.60442" lon="6.12033">
        <ele>1349.34355195</ele>
        <time>2016-08-10T14:28:59Z</time>
      </trkpt>
      <trkpt lat="45.60446" lon="6.12034">
        <ele>1349.34355195</ele>
        <time>2016-08-10T14:29:03Z</time>
      </trkpt>
      <trkpt lat="45.60463" lon="6.1204">
        <ele>1348.185649447</ele>
        <time>2016-08-10T14:29:18Z</time>
      </trkpt>
      <trkpt lat="45.60474" lon="6.12048">
        <ele>1347.429981209</ele>
        <time>2016-08-10T14:29:29Z</time>
      </trkpt>
      <trkpt lat="45.60479" lon="6.1205">
        <ele>1347.429981209</ele>
        <time>2016-08-10T14:29:33Z</time>
      </trkpt>
      <trkpt lat="45.60491" lon="6.12056">
        <ele>1346.897935914</ele>
        <time>2016-08-10T14:29:49Z</time>
      </trkpt>
      <trkpt lat="45.60498" lon="6.12057">
        <ele>1346.897935914</ele>
        <time>2016-08-10T14:29:54Z</time>
      </trkpt>
      <trkpt lat="45.60508" lon="6.12062">
        <ele>1346.279316357</ele>
        <time>2016-08-10T14:30:03Z</time>
      </trkpt>
      <trkpt lat="45.60511" lon="6.12062">
        <ele>1346.279316357</ele>
        <time>2016-08-10T14:30:08Z</time>
      </trkpt>
      <trkpt lat="45.60522" lon="6.12066">
        <ele>1345.286999175</ele>
        <time>2016-08-10T14:30:19Z</time>
      </trkpt>
      <trkpt lat="45.60529" lon="6.12069">
        <ele>1345.286999175</ele>
        <time>2016-08-10T14:30:24Z</time>
      </trkpt>
      <trkpt lat="45.6054" lon="6.12073">
        <ele>1344.520724108</ele>
        <time>2016-08-10T14:30:34Z</time>
      </trkpt>
      <trkpt lat="45.60543" lon="6.12075">
        <ele>1344.520724108</ele>
        <time>2016-08-10T14:30:38Z</time>
      </trkpt>
      <trkpt lat="45.60551" lon="6.12075">
        <ele>1343.526827934</ele>
        <time>2016-08-10T14:30:49Z</time>
      </trkpt>
      <trkpt lat="45.60552" lon="6.12076">
        <ele>1343.526827934</ele>
        <time>2016-08-10T14:30:53Z</time>
      </trkpt>
      <trkpt lat="45.60557" lon="6.12081">
        <ele>1343.526827934</ele>
        <time>2016-08-10T14:31:03Z</time>
      </trkpt>
      <trkpt lat="45.60567" lon="6.12079">
        <ele>1342.462130529</ele>
        <time>2016-08-10T14:31:08Z</time>
      </trkpt>
      <trkpt lat="45.60587" lon="6.12087">
        <ele>1342.048657069</ele>
        <time>2016-08-10T14:31:23Z</time>
      </trkpt>
      <trkpt lat="45.60592" lon="6.12089">
        <ele>1342.048657069</ele>
        <time>2016-08-10T14:31:28Z</time>
      </trkpt>
      <trkpt lat="45.60599" lon="6.12093">
        <ele>1341.224321117</ele>
        <time>2016-08-10T14:31:38Z</time>
      </trkpt>
      <trkpt lat="45.60603" lon="6.12098">
        <ele>1341.224321117</ele>
        <time>2016-08-10T14:31:44Z</time>
      </trkpt>
      <trkpt lat="45.60613" lon="6.12105">
        <ele>1340.447416044</ele>
        <time>2016-08-10T14:31:54Z</time>
      </trkpt>
      <trkpt lat="45.60617" lon="6.12107">
        <ele>1340.447416044</ele>
        <time>2016-08-10T14:31:58Z</time>
      </trkpt>
      <trkpt lat="45.60628" lon="6.12112">
        <ele>1339.566092816</ele>
        <time>2016-08-10T14:32:09Z</time>
      </trkpt>
      <trkpt lat="45.60633" lon="6.12112">
        <ele>1339.566092816</ele>
        <time>2016-08-10T14:32:13Z</time>
      </trkpt>
      <trkpt lat="45.60645" lon="6.12117">
        <ele>1338.872390393</ele>
        <time>2016-08-10T14:32:24Z</time>
      </trkpt>
      <trkpt lat="45.60651" lon="6.12121">
        <ele>1338.872390393</ele>
        <time>2016-08-10T14:32:28Z</time>
      </trkpt>
      <trkpt lat="45.60659" lon="6.12131">
        <ele>1337.915923312</ele>
        <time>2016-08-10T14:32:39Z</time>
      </trkpt>
      <trkpt lat="45.60664" lon="6.12135">
        <ele>1337.915923312</ele>
        <time>2016-08-10T14:32:43Z</time>
      </trkpt>
      <trkpt lat="45.60673" lon="6.12139">
        <ele>1337.433132382</ele>
        <time>2016-08-10T14:32:54Z</time>
      </trkpt>
      <trkpt lat="45.60676" lon="6.12141">
        <ele>1337.433132382</ele>
        <time>2016-08-10T14:32:58Z</time>
      </trkpt>
      <trkpt lat="45.60683" lon="6.12144">
        <ele>1337.24048304</ele>
        <time>2016-08-10T14:33:08Z</time>
      </trkpt>
      <trkpt lat="45.60685" lon="6.12146">
        <ele>1337.24048304</ele>
        <time>2016-08-10T14:33:14Z</time>
      </trkpt>
      <trkpt lat="45.60692" lon="6.12143">
        <ele>1336.014341534</ele>
        <time>2016-08-10T14:33:24Z</time>
      </trkpt>
      <trkpt lat="45.60693" lon="6.12144">
        <ele>1336.014341534</ele>
        <time>2016-08-10T14:33:28Z</time>
      </trkpt>
      <trkpt lat="45.60694" lon="6.12143">
        <ele>1336.014341534</ele>
        <time>2016-08-10T14:33:33Z</time>
      </trkpt>
      <trkpt lat="45.60693" lon="6.1214">
        <ele>1336.014341534</ele>
        <time>2016-08-10T14:33:44Z</time>
      </trkpt>
      <trkpt lat="45.60693" lon="6.12141">
        <ele>1336.014341534</ele>
        <time>2016-08-10T14:33:58Z</time>
      </trkpt>
      <trkpt lat="45.60693" lon="6.12141">
        <ele>1336.014341534</ele>
        <time>2016-08-10T14:34:03Z</time>
      </trkpt>
      <trkpt lat="45.60692" lon="6.12141">
        <ele>1336.014341534</ele>
        <time>2016-08-10T14:34:13Z</time>
      </trkpt>
      <trkpt lat="45.60692" lon="6.12141">
        <ele>1336.014341534</ele>
        <time>2016-08-10T14:34:18Z</time>
      </trkpt>
      <trkpt lat="45.60692" lon="6.12143">
        <ele>1336.014341534</ele>
        <time>2016-08-10T14:34:28Z</time>
      </trkpt>
      <trkpt lat="45.60691" lon="6.12144">
        <ele>1336.014341534</ele>
        <time>2016-08-10T14:34:33Z</time>
      </trkpt>
      <trkpt lat="45.60691" lon="6.12145">
        <ele>1335.557666308</ele>
        <time>2016-08-10T14:34:43Z</time>
      </trkpt>
      <trkpt lat="45.60691" lon="6.12145">
        <ele>1335.557666308</ele>
        <time>2016-08-10T14:34:48Z</time>
      </trkpt>
      <trkpt lat="45.60692" lon="6.12146">
        <ele>1335.557666308</ele>
        <time>2016-08-10T14:34:58Z</time>
      </trkpt>
      <trkpt lat="45.60693" lon="6.12146">
        <ele>1335.557666308</ele>
        <time>2016-08-10T14:35:03Z</time>
      </trkpt>
      <trkpt lat="45.60693" lon="6.12146">
        <ele>1335.557666308</ele>
        <time>2016-08-10T14:35:13Z</time>
      </trkpt>
      <trkpt lat="45.60695" lon="6.12144">
        <ele>1335.557666308</ele>
        <time>2016-08-10T14:35:18Z</time>
      </trkpt>
      <trkpt lat="45.60695" lon="6.12143">
        <ele>1335.557666308</ele>
        <time>2016-08-10T14:35:28Z</time>
      </trkpt>
      <trkpt lat="45.60695" lon="6.12143">
        <ele>1335.557666308</ele>
        <time>2016-08-10T14:35:33Z</time>
      </trkpt>
      <trkpt lat="45.60695" lon="6.12143">
        <ele>1335.557666308</ele>
        <time>2016-08-10T14:35:44Z</time>
      </trkpt>
      <trkpt lat="45.60695" lon="6.12144">
        <ele>1335.557666308</ele>
        <time>2016-08-10T14:35:49Z</time>
      </trkpt>
      <trkpt lat="45.60696" lon="6.12145">
        <ele>1335.557666308</ele>
        <time>2016-08-10T14:35:59Z</time>
      </trkpt>
      <trkpt lat="45.60696" lon="6.12145">
        <ele>1335.557666308</ele>
        <time>2016-08-10T14:36:03Z</time>
      </trkpt>
      <trkpt lat="45.60696" lon="6.12145">
        <ele>1335.557666308</ele>
        <time>2016-08-10T14:36:08Z</time>
      </trkpt>
      <trkpt lat="45.60702" lon="6.12148">
        <ele>1335.809608129</ele>
        <time>2016-08-10T14:36:19Z</time>
      </trkpt>
      <trkpt lat="45.60702" lon="6.12148">
        <ele>1335.809608129</ele>
        <time>2016-08-10T14:36:23Z</time>
      </trkpt>
      <trkpt lat="45.60701" lon="6.12148">
        <ele>1335.809608129</ele>
        <time>2016-08-10T14:36:33Z</time>
      </trkpt>
      <trkpt lat="45.60702" lon="6.12151">
        <ele>1335.809608129</ele>
        <time>2016-08-10T14:36:38Z</time>
      </trkpt>
      <trkpt lat="45.60702" lon="6.12148">
        <ele>1335.809608129</ele>
        <time>2016-08-10T14:36:48Z</time>
      </trkpt>
      <trkpt lat="45.60701" lon="6.12147">
        <ele>1335.809608129</ele>
        <time>2016-08-10T14:36:53Z</time>
      </trkpt>
      <trkpt lat="45.60707" lon="6.12156">
        <ele>1336.279600129</ele>
        <time>2016-08-10T14:37:03Z</time>
      </trkpt>
      <trkpt lat="45.60707" lon="6.12156">
        <ele>1336.279600129</ele>
        <time>2016-08-10T14:37:08Z</time>
      </trkpt>
      <trkpt lat="45.60707" lon="6.12156">
        <ele>1336.279600129</ele>
        <time>2016-08-10T14:37:18Z</time>
      </trkpt>
      <trkpt lat="45.60709" lon="6.12157">
        <ele>1336.279600129</ele>
        <time>2016-08-10T14:37:23Z</time>
      </trkpt>
      <trkpt lat="45.60711" lon="6.12158">
        <ele>1336.279600129</ele>
        <time>2016-08-10T14:37:33Z</time>
      </trkpt>
      <trkpt lat="45.60712" lon="6.12158">
        <ele>1336.279600129</ele>
        <time>2016-08-10T14:37:38Z</time>
      </trkpt>
      <trkpt lat="45.60712" lon="6.12158">
        <ele>1336.279600129</ele>
        <time>2016-08-10T14:37:49Z</time>
      </trkpt>
      <trkpt lat="45.60712" lon="6.12158">
        <ele>1336.279600129</ele>
        <time>2016-08-10T14:37:54Z</time>
      </trkpt>
      <trkpt lat="45.60711" lon="6.12158">
        <ele>1336.279600129</ele>
        <time>2016-08-10T14:38:07Z</time>
      </trkpt>
      <trkpt lat="45.60712" lon="6.12158">
        <ele>1336.279600129</ele>
        <time>2016-08-10T14:38:08Z</time>
      </trkpt>
      <trkpt lat="45.60713" lon="6.12158">
        <ele>1336.279600129</ele>
        <time>2016-08-10T14:38:19Z</time>
      </trkpt>
      <trkpt lat="45.60714" lon="6.12159">
        <ele>1335.936193958</ele>
        <time>2016-08-10T14:38:23Z</time>
      </trkpt>
      <trkpt lat="45.60716" lon="6.12162">
        <ele>1335.936193958</ele>
        <time>2016-08-10T14:38:33Z</time>
      </trkpt>
      <trkpt lat="45.60716" lon="6.12162">
        <ele>1335.936193958</ele>
        <time>2016-08-10T14:38:38Z</time>
      </trkpt>
      <trkpt lat="45.60716" lon="6.12164">
        <ele>1335.936193958</ele>
        <time>2016-08-10T14:38:48Z</time>
      </trkpt>
      <trkpt lat="45.60718" lon="6.12163">
        <ele>1335.936193958</ele>
        <time>2016-08-10T14:38:53Z</time>
      </trkpt>
      <trkpt lat="45.60718" lon="6.12162">
        <ele>1335.936193958</ele>
        <time>2016-08-10T14:39:03Z</time>
      </trkpt>
      <trkpt lat="45.60722" lon="6.12169">
        <ele>1335.843692973</ele>
        <time>2016-08-10T14:39:08Z</time>
      </trkpt>
      <trkpt lat="45.60726" lon="6.1217">
        <ele>1335.843692973</ele>
        <time>2016-08-10T14:39:13Z</time>
      </trkpt>
      <trkpt lat="45.60725" lon="6.1217">
        <ele>1335.843692973</ele>
        <time>2016-08-10T14:39:18Z</time>
      </trkpt>
      <trkpt lat="45.60726" lon="6.12169">
        <ele>1335.843692973</ele>
        <time>2016-08-10T14:39:28Z</time>
      </trkpt>
      <trkpt lat="45.60726" lon="6.12169">
        <ele>1335.843692973</ele>
        <time>2016-08-10T14:39:33Z</time>
      </trkpt>
      <trkpt lat="45.60731" lon="6.1217">
        <ele>1336.267107611</ele>
        <time>2016-08-10T14:39:43Z</time>
      </trkpt>
      <trkpt lat="45.60732" lon="6.12169">
        <ele>1336.267107611</ele>
        <time>2016-08-10T14:39:48Z</time>
      </trkpt>
      <trkpt lat="45.60733" lon="6.1217">
        <ele>1336.267107611</ele>
        <time>2016-08-10T14:39:53Z</time>
      </trkpt>
      <trkpt lat="45.60734" lon="6.12169">
        <ele>1336.267107611</ele>
        <time>2016-08-10T14:39:58Z</time>
      </trkpt>
      <trkpt lat="45.60734" lon="6.12169">
        <ele>1336.267107611</ele>
        <time>2016-08-10T14:40:03Z</time>
      </trkpt>
      <trkpt lat="45.60734" lon="6.12169">
        <ele>1336.267107611</ele>
        <time>2016-08-10T14:40:08Z</time>
      </trkpt>
      <trkpt lat="45.60737" lon="6.12173">
        <ele>1336.267107611</ele>
        <time>2016-08-10T14:40:18Z</time>
      </trkpt>
      <trkpt lat="45.60743" lon="6.12179">
        <ele>1336.586021088</ele>
        <time>2016-08-10T14:40:23Z</time>
      </trkpt>
      <trkpt lat="45.60754" lon="6.12184">
        <ele>1336.946599919</ele>
        <time>2016-08-10T14:40:33Z</time>
      </trkpt>
      <trkpt lat="45.60758" lon="6.12189">
        <ele>1336.946599919</ele>
        <time>2016-08-10T14:40:38Z</time>
      </trkpt>
      <trkpt lat="45.60767" lon="6.12197">
        <ele>1337.051986018</ele>
        <time>2016-08-10T14:40:48Z</time>
      </trkpt>
      <trkpt lat="45.6077" lon="6.12197">
        <ele>1337.051986018</ele>
        <time>2016-08-10T14:40:53Z</time>
      </trkpt>
      <trkpt lat="45.60774" lon="6.12197">
        <ele>1337.051986018</ele>
        <time>2016-08-10T14:40:58Z</time>
      </trkpt>
      <trkpt lat="45.60776" lon="6.122">
        <ele>1337.780901366</ele>
        <time>2016-08-10T14:41:03Z</time>
      </trkpt>
      <trkpt lat="45.60779" lon="6.12205">
        <ele>1337.780901366</ele>
        <time>2016-08-10T14:41:13Z</time>
      </trkpt>
      <trkpt lat="45.60781" lon="6.12209">
        <ele>1337.780901366</ele>
        <time>2016-08-10T14:41:18Z</time>
      </trkpt>
      <trkpt lat="45.60788" lon="6.12217">
        <ele>1338.937162881</ele>
        <time>2016-08-10T14:41:28Z</time>
      </trkpt>
      <trkpt lat="45.60792" lon="6.12219">
        <ele>1338.937162881</ele>
        <time>2016-08-10T14:41:33Z</time>
      </trkpt>
      <trkpt lat="45.60797" lon="6.12228">
        <ele>1339.905644373</ele>
        <time>2016-08-10T14:41:43Z</time>
      </trkpt>
      <trkpt lat="45.60797" lon="6.1223">
        <ele>1339.905644373</ele>
        <time>2016-08-10T14:41:48Z</time>
      </trkpt>
      <trkpt lat="45.60805" lon="6.12238">
        <ele>1340.837672391</ele>
        <time>2016-08-10T14:41:58Z</time>
      </trkpt>
      <trkpt lat="45.60807" lon="6.1224">
        <ele>1340.837672391</ele>
        <time>2016-08-10T14:42:03Z</time>
      </trkpt>
      <trkpt lat="45.60815" lon="6.12252">
        <ele>1342.161971582</ele>
        <time>2016-08-10T14:42:18Z</time>
      </trkpt>
      <trkpt lat="45.60816" lon="6.12251">
        <ele>1342.161971582</ele>
        <time>2016-08-10T14:42:23Z</time>
      </trkpt>
      <trkpt lat="45.60821" lon="6.12259">
        <ele>1343.698423997</ele>
        <time>2016-08-10T14:42:33Z</time>
      </trkpt>
      <trkpt lat="45.60825" lon="6.12262">
        <ele>1343.698423997</ele>
        <time>2016-08-10T14:42:38Z</time>
      </trkpt>
      <trkpt lat="45.60833" lon="6.12266">
        <ele>1345.423861929</ele>
        <time>2016-08-10T14:42:48Z</time>
      </trkpt>
      <trkpt lat="45.60839" lon="6.12269">
        <ele>1345.423861929</ele>
        <time>2016-08-10T14:42:53Z</time>
      </trkpt>
      <trkpt lat="45.60839" lon="6.1227">
        <ele>1345.423861929</ele>
        <time>2016-08-10T14:43:03Z</time>
      </trkpt>
      <trkpt lat="45.60839" lon="6.1227">
        <ele>1345.423861929</ele>
        <time>2016-08-10T14:43:08Z</time>
      </trkpt>
      <trkpt lat="45.60839" lon="6.12269">
        <ele>1345.423861929</ele>
        <time>2016-08-10T14:43:18Z</time>
      </trkpt>
      <trkpt lat="45.60839" lon="6.12269">
        <ele>1345.423861929</ele>
        <time>2016-08-10T14:43:23Z</time>
      </trkpt>
      <trkpt lat="45.6084" lon="6.1227">
        <ele>1345.423861929</ele>
        <time>2016-08-10T14:43:38Z</time>
      </trkpt>
      <trkpt lat="45.6084" lon="6.12269">
        <ele>1345.423861929</ele>
        <time>2016-08-10T14:43:43Z</time>
      </trkpt>
      <trkpt lat="45.60848" lon="6.12272">
        <ele>1346.740053708</ele>
        <time>2016-08-10T14:43:53Z</time>
      </trkpt>
      <trkpt lat="45.60854" lon="6.12274">
        <ele>1346.740053708</ele>
        <time>2016-08-10T14:43:58Z</time>
      </trkpt>
      <trkpt lat="45.60859" lon="6.12275">
        <ele>1348.102854486</ele>
        <time>2016-08-10T14:44:08Z</time>
      </trkpt>
      <trkpt lat="45.60862" lon="6.12276">
        <ele>1348.102854486</ele>
        <time>2016-08-10T14:44:13Z</time>
      </trkpt>
      <trkpt lat="45.6087" lon="6.12279">
        <ele>1348.92594224</ele>
        <time>2016-08-10T14:44:23Z</time>
      </trkpt>
      <trkpt lat="45.6087" lon="6.12279">
        <ele>1348.92594224</ele>
        <time>2016-08-10T14:44:28Z</time>
      </trkpt>
      <trkpt lat="45.60874" lon="6.12287">
        <ele>1348.92594224</ele>
        <time>2016-08-10T14:44:38Z</time>
      </trkpt>
      <trkpt lat="45.60876" lon="6.12288">
        <ele>1350.397135183</ele>
        <time>2016-08-10T14:44:43Z</time>
      </trkpt>
      <trkpt lat="45.60879" lon="6.12293">
        <ele>1350.397135183</ele>
        <time>2016-08-10T14:44:53Z</time>
      </trkpt>
      <trkpt lat="45.6088" lon="6.12296">
        <ele>1350.397135183</ele>
        <time>2016-08-10T14:44:58Z</time>
      </trkpt>
      <trkpt lat="45.60884" lon="6.12303">
        <ele>1351.453731215</ele>
        <time>2016-08-10T14:45:08Z</time>
      </trkpt>
      <trkpt lat="45.60887" lon="6.12304">
        <ele>1351.453731215</ele>
        <time>2016-08-10T14:45:13Z</time>
      </trkpt>
      <trkpt lat="45.6089" lon="6.12311">
        <ele>1351.453731215</ele>
        <time>2016-08-10T14:45:23Z</time>
      </trkpt>
      <trkpt lat="45.60892" lon="6.1231">
        <ele>1352.841812571</ele>
        <time>2016-08-10T14:45:28Z</time>
      </trkpt>
      <trkpt lat="45.60901" lon="6.1232">
        <ele>1354.387279418</ele>
        <time>2016-08-10T14:45:38Z</time>
      </trkpt>
      <trkpt lat="45.60904" lon="6.12319">
        <ele>1354.387279418</ele>
        <time>2016-08-10T14:45:43Z</time>
      </trkpt>
      <trkpt lat="45.60917" lon="6.12321">
        <ele>1356.505047049</ele>
        <time>2016-08-10T14:45:58Z</time>
      </trkpt>
      <trkpt lat="45.60921" lon="6.12324">
        <ele>1356.505047049</ele>
        <time>2016-08-10T14:46:03Z</time>
      </trkpt>
      <trkpt lat="45.60927" lon="6.1233">
        <ele>1357.992946157</ele>
        <time>2016-08-10T14:46:13Z</time>
      </trkpt>
      <trkpt lat="45.60932" lon="6.12331">
        <ele>1357.992946157</ele>
        <time>2016-08-10T14:46:18Z</time>
      </trkpt>
      <trkpt lat="45.60946" lon="6.12339">
        <ele>1360.044888648</ele>
        <time>2016-08-10T14:46:28Z</time>
      </trkpt>
      <trkpt lat="45.60951" lon="6.12338">
        <ele>1360.044888648</ele>
        <time>2016-08-10T14:46:33Z</time>
      </trkpt>
      <trkpt lat="45.60959" lon="6.12344">
        <ele>1361.604058434</ele>
        <time>2016-08-10T14:46:43Z</time>
      </trkpt>
      <trkpt lat="45.60962" lon="6.12347">
        <ele>1361.604058434</ele>
        <time>2016-08-10T14:46:48Z</time>
      </trkpt>
      <trkpt lat="45.60971" lon="6.12356">
        <ele>1363.566326836</ele>
        <time>2016-08-10T14:46:58Z</time>
      </trkpt>
      <trkpt lat="45.60975" lon="6.12357">
        <ele>1363.566326836</ele>
        <time>2016-08-10T14:47:03Z</time>
      </trkpt>
      <trkpt lat="45.60986" lon="6.12362">
        <ele>1365.175627471</ele>
        <time>2016-08-10T14:47:13Z</time>
      </trkpt>
      <trkpt lat="45.6099" lon="6.12363">
        <ele>1365.175627471</ele>
        <time>2016-08-10T14:47:18Z</time>
      </trkpt>
      <trkpt lat="45.60998" lon="6.12368">
        <ele>1366.885538792</ele>
        <time>2016-08-10T14:47:28Z</time>
      </trkpt>
      <trkpt lat="45.61002" lon="6.1237">
        <ele>1366.885538792</ele>
        <time>2016-08-10T14:47:33Z</time>
      </trkpt>
      <trkpt lat="45.6101" lon="6.12379">
        <ele>1369.116261397</ele>
        <time>2016-08-10T14:47:43Z</time>
      </trkpt>
      <trkpt lat="45.61013" lon="6.12379">
        <ele>1369.116261397</ele>
        <time>2016-08-10T14:47:48Z</time>
      </trkpt>
      <trkpt lat="45.61027" lon="6.12375">
        <ele>1371.103000416</ele>
        <time>2016-08-10T14:48:03Z</time>
      </trkpt>
      <trkpt lat="45.61032" lon="6.12375">
        <ele>1371.103000416</ele>
        <time>2016-08-10T14:48:08Z</time>
      </trkpt>
      <trkpt lat="45.61042" lon="6.12374">
        <ele>1372.714491898</ele>
        <time>2016-08-10T14:48:18Z</time>
      </trkpt>
      <trkpt lat="45.61048" lon="6.12373">
        <ele>1372.714491898</ele>
        <time>2016-08-10T14:48:23Z</time>
      </trkpt>
      <trkpt lat="45.6106" lon="6.12376">
        <ele>1374.695052714</ele>
        <time>2016-08-10T14:48:33Z</time>
      </trkpt>
      <trkpt lat="45.61064" lon="6.12376">
        <ele>1374.695052714</ele>
        <time>2016-08-10T14:48:38Z</time>
      </trkpt>
      <trkpt lat="45.61072" lon="6.12376">
        <ele>1376.580613953</ele>
        <time>2016-08-10T14:48:48Z</time>
      </trkpt>
      <trkpt lat="45.61076" lon="6.12376">
        <ele>1376.580613953</ele>
        <time>2016-08-10T14:48:53Z</time>
      </trkpt>
      <trkpt lat="45.61083" lon="6.12376">
        <ele>1378.374009257</ele>
        <time>2016-08-10T14:49:03Z</time>
      </trkpt>
      <trkpt lat="45.61088" lon="6.12378">
        <ele>1378.374009257</ele>
        <time>2016-08-10T14:49:08Z</time>
      </trkpt>
      <trkpt lat="45.61096" lon="6.12379">
        <ele>1380.36655355</ele>
        <time>2016-08-10T14:49:18Z</time>
      </trkpt>
      <trkpt lat="45.61101" lon="6.12381">
        <ele>1380.36655355</ele>
        <time>2016-08-10T14:49:23Z</time>
      </trkpt>
      <trkpt lat="45.611" lon="6.12378">
        <ele>1380.36655355</ele>
        <time>2016-08-10T14:49:33Z</time>
      </trkpt>
      <trkpt lat="45.61101" lon="6.12379">
        <ele>1380.36655355</ele>
        <time>2016-08-10T14:49:38Z</time>
      </trkpt>
      <trkpt lat="45.61101" lon="6.1238">
        <ele>1382.395474657</ele>
        <time>2016-08-10T14:49:53Z</time>
      </trkpt>
      <trkpt lat="45.61101" lon="6.1238">
        <ele>1382.395474657</ele>
        <time>2016-08-10T14:49:58Z</time>
      </trkpt>
      <trkpt lat="45.61101" lon="6.1238">
        <ele>1382.395474657</ele>
        <time>2016-08-10T14:50:08Z</time>
      </trkpt>
      <trkpt lat="45.611" lon="6.1238">
        <ele>1382.395474657</ele>
        <time>2016-08-10T14:50:13Z</time>
      </trkpt>
      <trkpt lat="45.61099" lon="6.12382">
        <ele>1382.395474657</ele>
        <time>2016-08-10T14:50:23Z</time>
      </trkpt>
      <trkpt lat="45.61099" lon="6.12379">
        <ele>1382.395474657</ele>
        <time>2016-08-10T14:50:28Z</time>
      </trkpt>
      <trkpt lat="45.61099" lon="6.12378">
        <ele>1382.395474657</ele>
        <time>2016-08-10T14:50:33Z</time>
      </trkpt>
      <trkpt lat="45.61099" lon="6.12378">
        <ele>1382.395474657</ele>
        <time>2016-08-10T14:50:38Z</time>
      </trkpt>
      <trkpt lat="45.61099" lon="6.12378">
        <ele>1382.395474657</ele>
        <time>2016-08-10T14:50:43Z</time>
      </trkpt>
      <trkpt lat="45.61099" lon="6.12379">
        <ele>1382.395474657</ele>
        <time>2016-08-10T14:50:48Z</time>
      </trkpt>
      <trkpt lat="45.61098" lon="6.12378">
        <ele>1382.395474657</ele>
        <time>2016-08-10T14:50:53Z</time>
      </trkpt>
      <trkpt lat="45.61101" lon="6.12377">
        <ele>1383.589499262</ele>
        <time>2016-08-10T14:51:03Z</time>
      </trkpt>
      <trkpt lat="45.61102" lon="6.12377">
        <ele>1383.589499262</ele>
        <time>2016-08-10T14:51:08Z</time>
      </trkpt>
      <trkpt lat="45.61102" lon="6.12377">
        <ele>1383.589499262</ele>
        <time>2016-08-10T14:51:18Z</time>
      </trkpt>
      <trkpt lat="45.61102" lon="6.12377">
        <ele>1383.589499262</ele>
        <time>2016-08-10T14:51:23Z</time>
      </trkpt>
      <trkpt lat="45.61103" lon="6.12377">
        <ele>1383.589499262</ele>
        <time>2016-08-10T14:51:33Z</time>
      </trkpt>
      <trkpt lat="45.61103" lon="6.12377">
        <ele>1383.589499262</ele>
        <time>2016-08-10T14:51:38Z</time>
      </trkpt>
      <trkpt lat="45.61103" lon="6.12377">
        <ele>1383.589499262</ele>
        <time>2016-08-10T14:51:48Z</time>
      </trkpt>
      <trkpt lat="45.61103" lon="6.12377">
        <ele>1383.589499262</ele>
        <time>2016-08-10T14:51:53Z</time>
      </trkpt>
      <trkpt lat="45.61103" lon="6.12377">
        <ele>1383.589499262</ele>
        <time>2016-08-10T14:52:08Z</time>
      </trkpt>
      <trkpt lat="45.61103" lon="6.12377">
        <ele>1383.589499262</ele>
        <time>2016-08-10T14:52:13Z</time>
      </trkpt>
      <trkpt lat="45.61103" lon="6.12377">
        <ele>1383.589499262</ele>
        <time>2016-08-10T14:52:23Z</time>
      </trkpt>
      <trkpt lat="45.61103" lon="6.12377">
        <ele>1383.589499262</ele>
        <time>2016-08-10T14:52:28Z</time>
      </trkpt>
      <trkpt lat="45.61103" lon="6.12377">
        <ele>1383.589499262</ele>
        <time>2016-08-10T14:52:38Z</time>
      </trkpt>
      <trkpt lat="45.61103" lon="6.12377">
        <ele>1383.589499262</ele>
        <time>2016-08-10T14:52:43Z</time>
      </trkpt>
      <trkpt lat="45.61104" lon="6.12377">
        <ele>1383.589499262</ele>
        <time>2016-08-10T14:52:53Z</time>
      </trkpt>
      <trkpt lat="45.61104" lon="6.12377">
        <ele>1383.589499262</ele>
        <time>2016-08-10T14:52:58Z</time>
      </trkpt>
      <trkpt lat="45.61108" lon="6.12376">
        <ele>1385.017338287</ele>
        <time>2016-08-10T14:53:08Z</time>
      </trkpt>
      <trkpt lat="45.61109" lon="6.12377">
        <ele>1385.017338287</ele>
        <time>2016-08-10T14:53:13Z</time>
      </trkpt>
      <trkpt lat="45.61109" lon="6.12377">
        <ele>1385.017338287</ele>
        <time>2016-08-10T14:53:23Z</time>
      </trkpt>
      <trkpt lat="45.61109" lon="6.12377">
        <ele>1385.017338287</ele>
        <time>2016-08-10T14:53:28Z</time>
      </trkpt>
      <trkpt lat="45.6111" lon="6.12374">
        <ele>1385.017338287</ele>
        <time>2016-08-10T14:53:38Z</time>
      </trkpt>
      <trkpt lat="45.61111" lon="6.12373">
        <ele>1385.017338287</ele>
        <time>2016-08-10T14:53:43Z</time>
      </trkpt>
      <trkpt lat="45.61111" lon="6.12374">
        <ele>1385.017338287</ele>
        <time>2016-08-10T14:53:53Z</time>
      </trkpt>
      <trkpt lat="45.61111" lon="6.12373">
        <ele>1385.017338287</ele>
        <time>2016-08-10T14:53:58Z</time>
      </trkpt>
      <trkpt lat="45.61111" lon="6.12373">
        <ele>1385.017338287</ele>
        <time>2016-08-10T14:54:08Z</time>
      </trkpt>
      <trkpt lat="45.61111" lon="6.12373">
        <ele>1385.017338287</ele>
        <time>2016-08-10T14:54:13Z</time>
      </trkpt>
      <trkpt lat="45.61111" lon="6.12373">
        <ele>1385.017338287</ele>
        <time>2016-08-10T14:54:28Z</time>
      </trkpt>
      <trkpt lat="45.61111" lon="6.12373">
        <ele>1385.017338287</ele>
        <time>2016-08-10T14:54:33Z</time>
      </trkpt>
      <trkpt lat="45.61113" lon="6.12377">
        <ele>1386.371725881</ele>
        <time>2016-08-10T14:54:43Z</time>
      </trkpt>
      <trkpt lat="45.61113" lon="6.12376">
        <ele>1386.371725881</ele>
        <time>2016-08-10T14:54:48Z</time>
      </trkpt>
      <trkpt lat="45.61114" lon="6.12376">
        <ele>1386.371725881</ele>
        <time>2016-08-10T14:54:58Z</time>
      </trkpt>
      <trkpt lat="45.61114" lon="6.12375">
        <ele>1386.371725881</ele>
        <time>2016-08-10T14:55:03Z</time>
      </trkpt>
      <trkpt lat="45.61116" lon="6.12375">
        <ele>1386.371725881</ele>
        <time>2016-08-10T14:55:13Z</time>
      </trkpt>
      <trkpt lat="45.61117" lon="6.12375">
        <ele>1386.371725881</ele>
        <time>2016-08-10T14:55:18Z</time>
      </trkpt>
      <trkpt lat="45.6112" lon="6.12377">
        <ele>1386.371725881</ele>
        <time>2016-08-10T14:55:28Z</time>
      </trkpt>
      <trkpt lat="45.6112" lon="6.12377">
        <ele>1386.371725881</ele>
        <time>2016-08-10T14:55:33Z</time>
      </trkpt>
      <trkpt lat="45.61123" lon="6.12379">
        <ele>1387.512462685</ele>
        <time>2016-08-10T14:55:43Z</time>
      </trkpt>
      <trkpt lat="45.61129" lon="6.12379">
        <ele>1387.512462685</ele>
        <time>2016-08-10T14:55:49Z</time>
      </trkpt>
      <trkpt lat="45.61137" lon="6.1238">
        <ele>1388.598637801</ele>
        <time>2016-08-10T14:55:58Z</time>
      </trkpt>
      <trkpt lat="45.61139" lon="6.12382">
        <ele>1388.598637801</ele>
        <time>2016-08-10T14:56:03Z</time>
      </trkpt>
      <trkpt lat="45.61147" lon="6.12385">
        <ele>1389.48974197</ele>
        <time>2016-08-10T14:56:14Z</time>
      </trkpt>
      <trkpt lat="45.61149" lon="6.12387">
        <ele>1389.48974197</ele>
        <time>2016-08-10T14:56:18Z</time>
      </trkpt>
      <trkpt lat="45.61154" lon="6.1239">
        <ele>1389.48974197</ele>
        <time>2016-08-10T14:56:28Z</time>
      </trkpt>
      <trkpt lat="45.61154" lon="6.12392">
        <ele>1390.056280915</ele>
        <time>2016-08-10T14:56:33Z</time>
      </trkpt>
      <trkpt lat="45.61156" lon="6.12395">
        <ele>1390.056280915</ele>
        <time>2016-08-10T14:56:38Z</time>
      </trkpt>
      <trkpt lat="45.61159" lon="6.12398">
        <ele>1390.056280915</ele>
        <time>2016-08-10T14:56:48Z</time>
      </trkpt>
      <trkpt lat="45.6116" lon="6.12397">
        <ele>1390.056280915</ele>
        <time>2016-08-10T14:56:54Z</time>
      </trkpt>
      <trkpt lat="45.61166" lon="6.12401">
        <ele>1389.891093578</ele>
        <time>2016-08-10T14:57:03Z</time>
      </trkpt>
      <trkpt lat="45.6117" lon="6.12402">
        <ele>1389.891093578</ele>
        <time>2016-08-10T14:57:09Z</time>
      </trkpt>
      <trkpt lat="45.6118" lon="6.12408">
        <ele>1389.627876868</ele>
        <time>2016-08-10T14:57:18Z</time>
      </trkpt>
      <trkpt lat="45.61183" lon="6.12411">
        <ele>1389.627876868</ele>
        <time>2016-08-10T14:57:23Z</time>
      </trkpt>
      <trkpt lat="45.61195" lon="6.12416">
        <ele>1388.989484373</ele>
        <time>2016-08-10T14:57:34Z</time>
      </trkpt>
      <trkpt lat="45.61199" lon="6.12418">
        <ele>1388.989484373</ele>
        <time>2016-08-10T14:57:38Z</time>
      </trkpt>
      <trkpt lat="45.61208" lon="6.12424">
        <ele>1388.296706271</ele>
        <time>2016-08-10T14:57:48Z</time>
      </trkpt>
      <trkpt lat="45.61214" lon="6.12426">
        <ele>1388.296706271</ele>
        <time>2016-08-10T14:57:53Z</time>
      </trkpt>
      <trkpt lat="45.61226" lon="6.12429">
        <ele>1387.702869617</ele>
        <time>2016-08-10T14:58:04Z</time>
      </trkpt>
      <trkpt lat="45.61229" lon="6.12432">
        <ele>1387.702869617</ele>
        <time>2016-08-10T14:58:08Z</time>
      </trkpt>
      <trkpt lat="45.61239" lon="6.12436">
        <ele>1387.349802129</ele>
        <time>2016-08-10T14:58:18Z</time>
      </trkpt>
      <trkpt lat="45.61247" lon="6.12439">
        <ele>1387.349802129</ele>
        <time>2016-08-10T14:58:25Z</time>
      </trkpt>
      <trkpt lat="45.61255" lon="6.12443">
        <ele>1387.080039098</ele>
        <time>2016-08-10T14:58:34Z</time>
      </trkpt>
      <trkpt lat="45.61259" lon="6.12444">
        <ele>1387.080039098</ele>
        <time>2016-08-10T14:58:39Z</time>
      </trkpt>
      <trkpt lat="45.61268" lon="6.12442">
        <ele>1386.747457566</ele>
        <time>2016-08-10T14:58:48Z</time>
      </trkpt>
      <trkpt lat="45.61273" lon="6.12444">
        <ele>1386.747457566</ele>
        <time>2016-08-10T14:58:53Z</time>
      </trkpt>
      <trkpt lat="45.61283" lon="6.12448">
        <ele>1386.649173145</ele>
        <time>2016-08-10T14:59:03Z</time>
      </trkpt>
      <trkpt lat="45.61289" lon="6.1245">
        <ele>1386.649173145</ele>
        <time>2016-08-10T14:59:09Z</time>
      </trkpt>
      <trkpt lat="45.61299" lon="6.12453">
        <ele>1386.915690709</ele>
        <time>2016-08-10T14:59:18Z</time>
      </trkpt>
      <trkpt lat="45.61302" lon="6.12452">
        <ele>1386.915690709</ele>
        <time>2016-08-10T14:59:23Z</time>
      </trkpt>
      <trkpt lat="45.61316" lon="6.12458">
        <ele>1386.946323109</ele>
        <time>2016-08-10T14:59:38Z</time>
      </trkpt>
      <trkpt lat="45.6132" lon="6.12461">
        <ele>1386.946323109</ele>
        <time>2016-08-10T14:59:43Z</time>
      </trkpt>
      <trkpt lat="45.61329" lon="6.12462">
        <ele>1386.905692729</ele>
        <time>2016-08-10T14:59:53Z</time>
      </trkpt>
      <trkpt lat="45.61333" lon="6.12463">
        <ele>1386.905692729</ele>
        <time>2016-08-10T14:59:58Z</time>
      </trkpt>
      <trkpt lat="45.61343" lon="6.12468">
        <ele>1387.234710678</ele>
        <time>2016-08-10T15:00:09Z</time>
      </trkpt>
      <trkpt lat="45.61348" lon="6.12471">
        <ele>1387.234710678</ele>
        <time>2016-08-10T15:00:13Z</time>
      </trkpt>
      <trkpt lat="45.61358" lon="6.12476">
        <ele>1387.908483331</ele>
        <time>2016-08-10T15:00:23Z</time>
      </trkpt>
      <trkpt lat="45.61365" lon="6.1248">
        <ele>1387.908483331</ele>
        <time>2016-08-10T15:00:28Z</time>
      </trkpt>
      <trkpt lat="45.61375" lon="6.12483">
        <ele>1388.614707649</ele>
        <time>2016-08-10T15:00:38Z</time>
      </trkpt>
      <trkpt lat="45.61375" lon="6.12482">
        <ele>1388.614707649</ele>
        <time>2016-08-10T15:00:43Z</time>
      </trkpt>
      <trkpt lat="45.61377" lon="6.12482">
        <ele>1388.614707649</ele>
        <time>2016-08-10T15:00:48Z</time>
      </trkpt>
      <trkpt lat="45.61379" lon="6.12483">
        <ele>1388.614707649</ele>
        <time>2016-08-10T15:00:53Z</time>
      </trkpt>
      <trkpt lat="45.61382" lon="6.12484">
        <ele>1388.614707649</ele>
        <time>2016-08-10T15:00:58Z</time>
      </trkpt>
      <trkpt lat="45.61399" lon="6.12494">
        <ele>1389.496214732</ele>
        <time>2016-08-10T15:01:13Z</time>
      </trkpt>
      <trkpt lat="45.61403" lon="6.12496">
        <ele>1389.496214732</ele>
        <time>2016-08-10T15:01:18Z</time>
      </trkpt>
      <trkpt lat="45.61411" lon="6.12501">
        <ele>1389.531911375</ele>
        <time>2016-08-10T15:01:29Z</time>
      </trkpt>
      <trkpt lat="45.61416" lon="6.12505">
        <ele>1389.531911375</ele>
        <time>2016-08-10T15:01:33Z</time>
      </trkpt>
      <trkpt lat="45.61423" lon="6.12512">
        <ele>1389.219145069</ele>
        <time>2016-08-10T15:01:44Z</time>
      </trkpt>
      <trkpt lat="45.61427" lon="6.12513">
        <ele>1389.219145069</ele>
        <time>2016-08-10T15:01:48Z</time>
      </trkpt>
      <trkpt lat="45.61437" lon="6.12513">
        <ele>1388.58731614</ele>
        <time>2016-08-10T15:01:58Z</time>
      </trkpt>
      <trkpt lat="45.61444" lon="6.12523">
        <ele>1388.529166008</ele>
        <time>2016-08-10T15:02:03Z</time>
      </trkpt>
      <trkpt lat="45.61447" lon="6.12529">
        <ele>1388.529166008</ele>
        <time>2016-08-10T15:02:13Z</time>
      </trkpt>
      <trkpt lat="45.61448" lon="6.12529">
        <ele>1388.529166008</ele>
        <time>2016-08-10T15:02:18Z</time>
      </trkpt>
      <trkpt lat="45.6146" lon="6.12532">
        <ele>1387.708510385</ele>
        <time>2016-08-10T15:02:28Z</time>
      </trkpt>
      <trkpt lat="45.61462" lon="6.12532">
        <ele>1387.708510385</ele>
        <time>2016-08-10T15:02:33Z</time>
      </trkpt>
      <trkpt lat="45.61472" lon="6.12535">
        <ele>1387.051050962</ele>
        <time>2016-08-10T15:02:48Z</time>
      </trkpt>
      <trkpt lat="45.61477" lon="6.12536">
        <ele>1387.051050962</ele>
        <time>2016-08-10T15:02:48Z</time>
      </trkpt>
      <trkpt lat="45.61494" lon="6.12546">
        <ele>1385.828723279</ele>
        <time>2016-08-10T15:03:04Z</time>
      </trkpt>
      <trkpt lat="45.615" lon="6.12549">
        <ele>1385.828723279</ele>
        <time>2016-08-10T15:03:08Z</time>
      </trkpt>
      <trkpt lat="45.61511" lon="6.12557">
        <ele>1384.521327472</ele>
        <time>2016-08-10T15:03:18Z</time>
      </trkpt>
      <trkpt lat="45.61517" lon="6.12562">
        <ele>1384.521327472</ele>
        <time>2016-08-10T15:03:24Z</time>
      </trkpt>
      <trkpt lat="45.61527" lon="6.12565">
        <ele>1383.1412207</ele>
        <time>2016-08-10T15:03:33Z</time>
      </trkpt>
      <trkpt lat="45.61531" lon="6.12572">
        <ele>1383.1412207</ele>
        <time>2016-08-10T15:03:39Z</time>
      </trkpt>
      <trkpt lat="45.61539" lon="6.12577">
        <ele>1381.41172127</ele>
        <time>2016-08-10T15:03:49Z</time>
      </trkpt>
      <trkpt lat="45.61542" lon="6.1258">
        <ele>1381.41172127</ele>
        <time>2016-08-10T15:03:53Z</time>
      </trkpt>
      <trkpt lat="45.61551" lon="6.12587">
        <ele>1379.509662089</ele>
        <time>2016-08-10T15:04:03Z</time>
      </trkpt>
      <trkpt lat="45.61557" lon="6.1259">
        <ele>1379.509662089</ele>
        <time>2016-08-10T15:04:09Z</time>
      </trkpt>
      <trkpt lat="45.61575" lon="6.12598">
        <ele>1377.887457833</ele>
        <time>2016-08-10T15:04:23Z</time>
      </trkpt>
      <trkpt lat="45.61583" lon="6.12606">
        <ele>1376.242803287</ele>
        <time>2016-08-10T15:04:33Z</time>
      </trkpt>
      <trkpt lat="45.61589" lon="6.12616">
        <ele>1375.016065742</ele>
        <time>2016-08-10T15:04:38Z</time>
      </trkpt>
      <trkpt lat="45.61601" lon="6.12621">
        <ele>1373.172818151</ele>
        <time>2016-08-10T15:04:54Z</time>
      </trkpt>
      <trkpt lat="45.61609" lon="6.12623">
        <ele>1373.172818151</ele>
        <time>2016-08-10T15:04:59Z</time>
      </trkpt>
      <trkpt lat="45.61617" lon="6.12631">
        <ele>1371.62962961</ele>
        <time>2016-08-10T15:05:08Z</time>
      </trkpt>
      <trkpt lat="45.61621" lon="6.12634">
        <ele>1371.62962961</ele>
        <time>2016-08-10T15:05:13Z</time>
      </trkpt>
      <trkpt lat="45.6163" lon="6.12642">
        <ele>1370.8023928</ele>
        <time>2016-08-10T15:05:23Z</time>
      </trkpt>
      <trkpt lat="45.61632" lon="6.12647">
        <ele>1370.8023928</ele>
        <time>2016-08-10T15:05:28Z</time>
      </trkpt>
      <trkpt lat="45.61638" lon="6.12651">
        <ele>1370.641935931</ele>
        <time>2016-08-10T15:05:38Z</time>
      </trkpt>
      <trkpt lat="45.61641" lon="6.12658">
        <ele>1370.641935931</ele>
        <time>2016-08-10T15:05:43Z</time>
      </trkpt>
      <trkpt lat="45.61647" lon="6.12663">
        <ele>1371.532994824</ele>
        <time>2016-08-10T15:05:53Z</time>
      </trkpt>
      <trkpt lat="45.61649" lon="6.12663">
        <ele>1371.532994824</ele>
        <time>2016-08-10T15:05:58Z</time>
      </trkpt>
      <trkpt lat="45.61659" lon="6.12669">
        <ele>1372.387822408</ele>
        <time>2016-08-10T15:06:08Z</time>
      </trkpt>
      <trkpt lat="45.61664" lon="6.12671">
        <ele>1372.387822408</ele>
        <time>2016-08-10T15:06:13Z</time>
      </trkpt>
      <trkpt lat="45.61672" lon="6.12683">
        <ele>1372.774976214</ele>
        <time>2016-08-10T15:06:23Z</time>
      </trkpt>
      <trkpt lat="45.61676" lon="6.12685">
        <ele>1372.774976214</ele>
        <time>2016-08-10T15:06:28Z</time>
      </trkpt>
      <trkpt lat="45.6169" lon="6.12694">
        <ele>1372.728218848</ele>
        <time>2016-08-10T15:06:44Z</time>
      </trkpt>
      <trkpt lat="45.61694" lon="6.127">
        <ele>1372.728218848</ele>
        <time>2016-08-10T15:06:48Z</time>
      </trkpt>
      <trkpt lat="45.61703" lon="6.12702">
        <ele>1372.279927665</ele>
        <time>2016-08-10T15:06:58Z</time>
      </trkpt>
      <trkpt lat="45.61708" lon="6.12705">
        <ele>1372.279927665</ele>
        <time>2016-08-10T15:07:03Z</time>
      </trkpt>
      <trkpt lat="45.61715" lon="6.12717">
        <ele>1371.317002304</ele>
        <time>2016-08-10T15:07:14Z</time>
      </trkpt>
      <trkpt lat="45.61718" lon="6.12721">
        <ele>1371.317002304</ele>
        <time>2016-08-10T15:07:18Z</time>
      </trkpt>
      <trkpt lat="45.61727" lon="6.12729">
        <ele>1370.168317518</ele>
        <time>2016-08-10T15:07:28Z</time>
      </trkpt>
      <trkpt lat="45.61732" lon="6.12734">
        <ele>1370.168317518</ele>
        <time>2016-08-10T15:07:33Z</time>
      </trkpt>
      <trkpt lat="45.6174" lon="6.12742">
        <ele>1368.994890141</ele>
        <time>2016-08-10T15:07:43Z</time>
      </trkpt>
      <trkpt lat="45.6174" lon="6.12739">
        <ele>1368.994890141</ele>
        <time>2016-08-10T15:07:48Z</time>
      </trkpt>
      <trkpt lat="45.61748" lon="6.12747">
        <ele>1367.801757781</ele>
        <time>2016-08-10T15:07:58Z</time>
      </trkpt>
      <trkpt lat="45.61753" lon="6.12747">
        <ele>1367.801757781</ele>
        <time>2016-08-10T15:08:03Z</time>
      </trkpt>
      <trkpt lat="45.61764" lon="6.12755">
        <ele>1366.88175567</ele>
        <time>2016-08-10T15:08:14Z</time>
      </trkpt>
      <trkpt lat="45.61768" lon="6.1276">
        <ele>1366.88175567</ele>
        <time>2016-08-10T15:08:18Z</time>
      </trkpt>
      <trkpt lat="45.61782" lon="6.12768">
        <ele>1365.64066358</ele>
        <time>2016-08-10T15:08:33Z</time>
      </trkpt>
      <trkpt lat="45.61788" lon="6.12775">
        <ele>1365.64066358</ele>
        <time>2016-08-10T15:08:38Z</time>
      </trkpt>
      <trkpt lat="45.61797" lon="6.12779">
        <ele>1364.681591829</ele>
        <time>2016-08-10T15:08:48Z</time>
      </trkpt>
      <trkpt lat="45.61799" lon="6.12779">
        <ele>1364.681591829</ele>
        <time>2016-08-10T15:08:53Z</time>
      </trkpt>
      <trkpt lat="45.61807" lon="6.12782">
        <ele>1363.553667073</ele>
        <time>2016-08-10T15:09:03Z</time>
      </trkpt>
      <trkpt lat="45.61811" lon="6.12785">
        <ele>1363.553667073</ele>
        <time>2016-08-10T15:09:08Z</time>
      </trkpt>
      <trkpt lat="45.61819" lon="6.12786">
        <ele>1361.839500099</ele>
        <time>2016-08-10T15:09:18Z</time>
      </trkpt>
      <trkpt lat="45.61821" lon="6.12786">
        <ele>1361.839500099</ele>
        <time>2016-08-10T15:09:25Z</time>
      </trkpt>
      <trkpt lat="45.61828" lon="6.12794">
        <ele>1360.01856292</ele>
        <time>2016-08-10T15:09:33Z</time>
      </trkpt>
      <trkpt lat="45.61832" lon="6.12798">
        <ele>1360.01856292</ele>
        <time>2016-08-10T15:09:39Z</time>
      </trkpt>
      <trkpt lat="45.6184" lon="6.128">
        <ele>1358.102958196</ele>
        <time>2016-08-10T15:09:48Z</time>
      </trkpt>
      <trkpt lat="45.61842" lon="6.128">
        <ele>1358.102958196</ele>
        <time>2016-08-10T15:09:53Z</time>
      </trkpt>
      <trkpt lat="45.61846" lon="6.12806">
        <ele>1358.102958196</ele>
        <time>2016-08-10T15:10:03Z</time>
      </trkpt>
      <trkpt lat="45.61847" lon="6.12809">
        <ele>1355.959936539</ele>
        <time>2016-08-10T15:10:08Z</time>
      </trkpt>
      <trkpt lat="45.61845" lon="6.12819">
        <ele>1355.959936539</ele>
        <time>2016-08-10T15:10:18Z</time>
      </trkpt>
      <trkpt lat="45.61847" lon="6.12824">
        <ele>1353.611127007</ele>
        <time>2016-08-10T15:10:23Z</time>
      </trkpt>
      <trkpt lat="45.6185" lon="6.1283">
        <ele>1353.611127007</ele>
        <time>2016-08-10T15:10:33Z</time>
      </trkpt>
      <trkpt lat="45.61852" lon="6.12834">
        <ele>1353.611127007</ele>
        <time>2016-08-10T15:10:38Z</time>
      </trkpt>
      <trkpt lat="45.61859" lon="6.12844">
        <ele>1350.500573417</ele>
        <time>2016-08-10T15:10:48Z</time>
      </trkpt>
      <trkpt lat="45.61862" lon="6.12849">
        <ele>1350.500573417</ele>
        <time>2016-08-10T15:10:53Z</time>
      </trkpt>
      <trkpt lat="45.61873" lon="6.12861">
        <ele>1347.123937639</ele>
        <time>2016-08-10T15:11:09Z</time>
      </trkpt>
      <trkpt lat="45.61877" lon="6.12869">
        <ele>1347.123937639</ele>
        <time>2016-08-10T15:11:18Z</time>
      </trkpt>
      <trkpt lat="45.61879" lon="6.12875">
        <ele>1343.508735969</ele>
        <time>2016-08-10T15:11:24Z</time>
      </trkpt>
      <trkpt lat="45.61889" lon="6.12887">
        <ele>1339.969195916</ele>
        <time>2016-08-10T15:11:38Z</time>
      </trkpt>
      <trkpt lat="45.61898" lon="6.12901">
        <ele>1336.363744979</ele>
        <time>2016-08-10T15:11:55Z</time>
      </trkpt>
      <trkpt lat="45.61901" lon="6.12907">
        <ele>1336.363744979</ele>
        <time>2016-08-10T15:11:58Z</time>
      </trkpt>
      <trkpt lat="45.61906" lon="6.1292">
        <ele>1332.705323599</ele>
        <time>2016-08-10T15:12:08Z</time>
      </trkpt>
      <trkpt lat="45.61909" lon="6.12926">
        <ele>1332.705323599</ele>
        <time>2016-08-10T15:12:13Z</time>
      </trkpt>
      <trkpt lat="45.61916" lon="6.12934">
        <ele>1329.294099421</ele>
        <time>2016-08-10T15:12:23Z</time>
      </trkpt>
      <trkpt lat="45.6192" lon="6.12936">
        <ele>1329.294099421</ele>
        <time>2016-08-10T15:12:28Z</time>
      </trkpt>
      <trkpt lat="45.61925" lon="6.12943">
        <ele>1325.974961407</ele>
        <time>2016-08-10T15:12:38Z</time>
      </trkpt>
      <trkpt lat="45.61924" lon="6.12942">
        <ele>1325.974961407</ele>
        <time>2016-08-10T15:12:43Z</time>
      </trkpt>
      <trkpt lat="45.61931" lon="6.12948">
        <ele>1325.974961407</ele>
        <time>2016-08-10T15:12:53Z</time>
      </trkpt>
      <trkpt lat="45.61934" lon="6.12951">
        <ele>1322.891948945</ele>
        <time>2016-08-10T15:12:58Z</time>
      </trkpt>
      <trkpt lat="45.61938" lon="6.12959">
        <ele>1322.891948945</ele>
        <time>2016-08-10T15:13:09Z</time>
      </trkpt>
      <trkpt lat="45.61941" lon="6.12961">
        <ele>1319.889423524</ele>
        <time>2016-08-10T15:13:13Z</time>
      </trkpt>
      <trkpt lat="45.61947" lon="6.12972">
        <ele>1316.966851044</ele>
        <time>2016-08-10T15:13:28Z</time>
      </trkpt>
      <trkpt lat="45.61951" lon="6.12977">
        <ele>1316.966851044</ele>
        <time>2016-08-10T15:13:33Z</time>
      </trkpt>
      <trkpt lat="45.61959" lon="6.12985">
        <ele>1313.979186694</ele>
        <time>2016-08-10T15:13:43Z</time>
      </trkpt>
      <trkpt lat="45.61963" lon="6.12989">
        <ele>1313.979186694</ele>
        <time>2016-08-10T15:13:48Z</time>
      </trkpt>
      <trkpt lat="45.61969" lon="6.12993">
        <ele>1311.080232001</ele>
        <time>2016-08-10T15:13:53Z</time>
      </trkpt>
      <trkpt lat="45.61972" lon="6.12999">
        <ele>1311.080232001</ele>
        <time>2016-08-10T15:13:59Z</time>
      </trkpt>
      <trkpt lat="45.61975" lon="6.13002">
        <ele>1308.556141587</ele>
        <time>2016-08-10T15:14:03Z</time>
      </trkpt>
      <trkpt lat="45.61985" lon="6.13009">
        <ele>1306.382568528</ele>
        <time>2016-08-10T15:14:14Z</time>
      </trkpt>
      <trkpt lat="45.61988" lon="6.13013">
        <ele>1306.382568528</ele>
        <time>2016-08-10T15:14:18Z</time>
      </trkpt>
      <trkpt lat="45.61997" lon="6.13019">
        <ele>1304.247547803</ele>
        <time>2016-08-10T15:14:28Z</time>
      </trkpt>
      <trkpt lat="45.61999" lon="6.13019">
        <ele>1304.247547803</ele>
        <time>2016-08-10T15:14:33Z</time>
      </trkpt>
      <trkpt lat="45.61999" lon="6.13014">
        <ele>1304.247547803</ele>
        <time>2016-08-10T15:14:43Z</time>
      </trkpt>
      <trkpt lat="45.62002" lon="6.1301">
        <ele>1302.149952124</ele>
        <time>2016-08-10T15:14:48Z</time>
      </trkpt>
      <trkpt lat="45.62007" lon="6.13011">
        <ele>1302.149952124</ele>
        <time>2016-08-10T15:14:59Z</time>
      </trkpt>
      <trkpt lat="45.62009" lon="6.1301">
        <ele>1302.149952124</ele>
        <time>2016-08-10T15:15:03Z</time>
      </trkpt>
      <trkpt lat="45.62011" lon="6.13015">
        <ele>1300.520782206</ele>
        <time>2016-08-10T15:15:13Z</time>
      </trkpt>
      <trkpt lat="45.62012" lon="6.13016">
        <ele>1300.520782206</ele>
        <time>2016-08-10T15:15:19Z</time>
      </trkpt>
      <trkpt lat="45.62015" lon="6.1302">
        <ele>1300.520782206</ele>
        <time>2016-08-10T15:15:28Z</time>
      </trkpt>
      <trkpt lat="45.62016" lon="6.13019">
        <ele>1300.520782206</ele>
        <time>2016-08-10T15:15:33Z</time>
      </trkpt>
      <trkpt lat="45.6202" lon="6.13018">
        <ele>1299.18144711</ele>
        <time>2016-08-10T15:15:43Z</time>
      </trkpt>
      <trkpt lat="45.62021" lon="6.13018">
        <ele>1299.18144711</ele>
        <time>2016-08-10T15:15:48Z</time>
      </trkpt>
      <trkpt lat="45.62029" lon="6.13016">
        <ele>1298.83017146</ele>
        <time>2016-08-10T15:15:58Z</time>
      </trkpt>
      <trkpt lat="45.62032" lon="6.13014">
        <ele>1298.83017146</ele>
        <time>2016-08-10T15:16:03Z</time>
      </trkpt>
      <trkpt lat="45.62038" lon="6.13017">
        <ele>1299.24631029</ele>
        <time>2016-08-10T15:16:14Z</time>
      </trkpt>
      <trkpt lat="45.62041" lon="6.1302">
        <ele>1299.24631029</ele>
        <time>2016-08-10T15:16:18Z</time>
      </trkpt>
      <trkpt lat="45.62049" lon="6.13031">
        <ele>1299.358488377</ele>
        <time>2016-08-10T15:16:28Z</time>
      </trkpt>
      <trkpt lat="45.62055" lon="6.13035">
        <ele>1299.358488377</ele>
        <time>2016-08-10T15:16:33Z</time>
      </trkpt>
      <trkpt lat="45.62067" lon="6.13035">
        <ele>1299.327679035</ele>
        <time>2016-08-10T15:16:43Z</time>
      </trkpt>
      <trkpt lat="45.62069" lon="6.13038">
        <ele>1299.327679035</ele>
        <time>2016-08-10T15:16:48Z</time>
      </trkpt>
      <trkpt lat="45.62076" lon="6.13045">
        <ele>1298.582801941</ele>
        <time>2016-08-10T15:17:04Z</time>
      </trkpt>
      <trkpt lat="45.62078" lon="6.13047">
        <ele>1298.582801941</ele>
        <time>2016-08-10T15:17:08Z</time>
      </trkpt>
      <trkpt lat="45.62084" lon="6.13057">
        <ele>1298.181900558</ele>
        <time>2016-08-10T15:17:19Z</time>
      </trkpt>
      <trkpt lat="45.62088" lon="6.13058">
        <ele>1298.181900558</ele>
        <time>2016-08-10T15:17:23Z</time>
      </trkpt>
      <trkpt lat="45.62093" lon="6.13065">
        <ele>1297.951405042</ele>
        <time>2016-08-10T15:17:33Z</time>
      </trkpt>
      <trkpt lat="45.62097" lon="6.13067">
        <ele>1297.951405042</ele>
        <time>2016-08-10T15:17:39Z</time>
      </trkpt>
      <trkpt lat="45.62107" lon="6.13071">
        <ele>1297.729997845</ele>
        <time>2016-08-10T15:17:48Z</time>
      </trkpt>
      <trkpt lat="45.6211" lon="6.13073">
        <ele>1297.729997845</ele>
        <time>2016-08-10T15:17:53Z</time>
      </trkpt>
      <trkpt lat="45.62115" lon="6.13079">
        <ele>1297.224069252</ele>
        <time>2016-08-10T15:18:04Z</time>
      </trkpt>
      <trkpt lat="45.62117" lon="6.13083">
        <ele>1297.224069252</ele>
        <time>2016-08-10T15:18:08Z</time>
      </trkpt>
      <trkpt lat="45.62122" lon="6.13086">
        <ele>1297.224069252</ele>
        <time>2016-08-10T15:18:18Z</time>
      </trkpt>
      <trkpt lat="45.62121" lon="6.13086">
        <ele>1297.171162857</ele>
        <time>2016-08-10T15:18:23Z</time>
      </trkpt>
      <trkpt lat="45.62123" lon="6.13088">
        <ele>1297.171162857</ele>
        <time>2016-08-10T15:18:28Z</time>
      </trkpt>
      <trkpt lat="45.62123" lon="6.13087">
        <ele>1297.171162857</ele>
        <time>2016-08-10T15:18:33Z</time>
      </trkpt>
      <trkpt lat="45.62125" lon="6.13092">
        <ele>1297.171162857</ele>
        <time>2016-08-10T15:18:38Z</time>
      </trkpt>
      <trkpt lat="45.62129" lon="6.131">
        <ele>1296.668170362</ele>
        <time>2016-08-10T15:18:48Z</time>
      </trkpt>
      <trkpt lat="45.6213" lon="6.13102">
        <ele>1296.668170362</ele>
        <time>2016-08-10T15:18:53Z</time>
      </trkpt>
      <trkpt lat="45.62139" lon="6.13113">
        <ele>1295.600175547</ele>
        <time>2016-08-10T15:19:08Z</time>
      </trkpt>
      <trkpt lat="45.6214" lon="6.13115">
        <ele>1295.600175547</ele>
        <time>2016-08-10T15:19:13Z</time>
      </trkpt>
      <trkpt lat="45.62146" lon="6.13119">
        <ele>1295.600175547</ele>
        <time>2016-08-10T15:19:23Z</time>
      </trkpt>
      <trkpt lat="45.62148" lon="6.13123">
        <ele>1294.726996454</ele>
        <time>2016-08-10T15:19:28Z</time>
      </trkpt>
      <trkpt lat="45.62156" lon="6.13129">
        <ele>1294.726996454</ele>
        <time>2016-08-10T15:19:38Z</time>
      </trkpt>
      <trkpt lat="45.62158" lon="6.13131">
        <ele>1293.887469268</ele>
        <time>2016-08-10T15:19:43Z</time>
      </trkpt>
      <trkpt lat="45.62161" lon="6.13135">
        <ele>1293.887469268</ele>
        <time>2016-08-10T15:19:53Z</time>
      </trkpt>
      <trkpt lat="45.62162" lon="6.13136">
        <ele>1293.887469268</ele>
        <time>2016-08-10T15:19:58Z</time>
      </trkpt>
      <trkpt lat="45.62169" lon="6.13141">
        <ele>1293.364561157</ele>
        <time>2016-08-10T15:20:08Z</time>
      </trkpt>
      <trkpt lat="45.62171" lon="6.13146">
        <ele>1293.364561157</ele>
        <time>2016-08-10T15:20:13Z</time>
      </trkpt>
      <trkpt lat="45.62174" lon="6.13153">
        <ele>1292.843177692</ele>
        <time>2016-08-10T15:20:23Z</time>
      </trkpt>
      <trkpt lat="45.62176" lon="6.13156">
        <ele>1292.843177692</ele>
        <time>2016-08-10T15:20:28Z</time>
      </trkpt>
      <trkpt lat="45.62181" lon="6.13173">
        <ele>1292.896098116</ele>
        <time>2016-08-10T15:20:38Z</time>
      </trkpt>
      <trkpt lat="45.62185" lon="6.13178">
        <ele>1292.896098116</ele>
        <time>2016-08-10T15:20:43Z</time>
      </trkpt>
      <trkpt lat="45.6219" lon="6.13189">
        <ele>1291.890816695</ele>
        <time>2016-08-10T15:20:53Z</time>
      </trkpt>
      <trkpt lat="45.62195" lon="6.13194">
        <ele>1291.890816695</ele>
        <time>2016-08-10T15:20:58Z</time>
      </trkpt>
      <trkpt lat="45.62196" lon="6.13195">
        <ele>1291.890816695</ele>
        <time>2016-08-10T15:21:08Z</time>
      </trkpt>
      <trkpt lat="45.62198" lon="6.13195">
        <ele>1291.200017619</ele>
        <time>2016-08-10T15:21:13Z</time>
      </trkpt>
      <trkpt lat="45.62208" lon="6.13203">
        <ele>1290.797745613</ele>
        <time>2016-08-10T15:21:23Z</time>
      </trkpt>
      <trkpt lat="45.62212" lon="6.13208">
        <ele>1290.797745613</ele>
        <time>2016-08-10T15:21:28Z</time>
      </trkpt>
      <trkpt lat="45.62216" lon="6.13212">
        <ele>1290.515115347</ele>
        <time>2016-08-10T15:21:38Z</time>
      </trkpt>
      <trkpt lat="45.62216" lon="6.13212">
        <ele>1290.515115347</ele>
        <time>2016-08-10T15:21:43Z</time>
      </trkpt>
      <trkpt lat="45.62228" lon="6.1322">
        <ele>1290.051287864</ele>
        <time>2016-08-10T15:21:58Z</time>
      </trkpt>
      <trkpt lat="45.62233" lon="6.13221">
        <ele>1290.051287864</ele>
        <time>2016-08-10T15:22:03Z</time>
      </trkpt>
      <trkpt lat="45.62242" lon="6.13228">
        <ele>1289.560455976</ele>
        <time>2016-08-10T15:22:13Z</time>
      </trkpt>
      <trkpt lat="45.62244" lon="6.13229">
        <ele>1289.560455976</ele>
        <time>2016-08-10T15:22:18Z</time>
      </trkpt>
      <trkpt lat="45.6225" lon="6.13236">
        <ele>1289.04154386</ele>
        <time>2016-08-10T15:22:28Z</time>
      </trkpt>
      <trkpt lat="45.62256" lon="6.13241">
        <ele>1289.04154386</ele>
        <time>2016-08-10T15:22:33Z</time>
      </trkpt>
      <trkpt lat="45.62266" lon="6.13245">
        <ele>1288.349618084</ele>
        <time>2016-08-10T15:22:43Z</time>
      </trkpt>
      <trkpt lat="45.62268" lon="6.13245">
        <ele>1288.349618084</ele>
        <time>2016-08-10T15:22:48Z</time>
      </trkpt>
      <trkpt lat="45.62271" lon="6.13247">
        <ele>1288.349618084</ele>
        <time>2016-08-10T15:23:03Z</time>
      </trkpt>
      <trkpt lat="45.62271" lon="6.13247">
        <ele>1288.349618084</ele>
        <time>2016-08-10T15:23:08Z</time>
      </trkpt>
      <trkpt lat="45.62281" lon="6.13249">
        <ele>1288.215642043</ele>
        <time>2016-08-10T15:23:18Z</time>
      </trkpt>
      <trkpt lat="45.62283" lon="6.13249">
        <ele>1288.215642043</ele>
        <time>2016-08-10T15:23:23Z</time>
      </trkpt>
      <trkpt lat="45.62294" lon="6.13255">
        <ele>1288.738973853</ele>
        <time>2016-08-10T15:23:33Z</time>
      </trkpt>
      <trkpt lat="45.62297" lon="6.13255">
        <ele>1288.738973853</ele>
        <time>2016-08-10T15:23:38Z</time>
      </trkpt>
      <trkpt lat="45.62309" lon="6.1326">
        <ele>1289.577600796</ele>
        <time>2016-08-10T15:23:48Z</time>
      </trkpt>
      <trkpt lat="45.62313" lon="6.13264">
        <ele>1289.577600796</ele>
        <time>2016-08-10T15:23:53Z</time>
      </trkpt>
      <trkpt lat="45.62323" lon="6.13265">
        <ele>1290.413861735</ele>
        <time>2016-08-10T15:24:03Z</time>
      </trkpt>
      <trkpt lat="45.62329" lon="6.13268">
        <ele>1290.413861735</ele>
        <time>2016-08-10T15:24:08Z</time>
      </trkpt>
      <trkpt lat="45.62339" lon="6.13275">
        <ele>1290.80944596</ele>
        <time>2016-08-10T15:24:18Z</time>
      </trkpt>
      <trkpt lat="45.62341" lon="6.13279">
        <ele>1290.80944596</ele>
        <time>2016-08-10T15:24:23Z</time>
      </trkpt>
      <trkpt lat="45.6235" lon="6.13291">
        <ele>1290.936048692</ele>
        <time>2016-08-10T15:24:33Z</time>
      </trkpt>
      <trkpt lat="45.62352" lon="6.13295">
        <ele>1290.936048692</ele>
        <time>2016-08-10T15:24:38Z</time>
      </trkpt>
      <trkpt lat="45.62368" lon="6.13298">
        <ele>1291.962419276</ele>
        <time>2016-08-10T15:24:53Z</time>
      </trkpt>
      <trkpt lat="45.62374" lon="6.13299">
        <ele>1291.962419276</ele>
        <time>2016-08-10T15:24:58Z</time>
      </trkpt>
      <trkpt lat="45.62375" lon="6.133">
        <ele>1291.962419276</ele>
        <time>2016-08-10T15:25:08Z</time>
      </trkpt>
      <trkpt lat="45.62375" lon="6.133">
        <ele>1291.962419276</ele>
        <time>2016-08-10T15:25:13Z</time>
      </trkpt>
      <trkpt lat="45.62375" lon="6.13301">
        <ele>1291.962419276</ele>
        <time>2016-08-10T15:25:23Z</time>
      </trkpt>
      <trkpt lat="45.62375" lon="6.13301">
        <ele>1291.962419276</ele>
        <time>2016-08-10T15:25:28Z</time>
      </trkpt>
      <trkpt lat="45.62375" lon="6.13301">
        <ele>1291.962419276</ele>
        <time>2016-08-10T15:25:38Z</time>
      </trkpt>
      <trkpt lat="45.62375" lon="6.13301">
        <ele>1291.962419276</ele>
        <time>2016-08-10T15:25:43Z</time>
      </trkpt>
      <trkpt lat="45.62388" lon="6.13314">
        <ele>1293.672067858</ele>
        <time>2016-08-10T15:25:53Z</time>
      </trkpt>
      <trkpt lat="45.62392" lon="6.1332">
        <ele>1293.672067858</ele>
        <time>2016-08-10T15:25:58Z</time>
      </trkpt>
      <trkpt lat="45.62396" lon="6.13323">
        <ele>1295.574417767</ele>
        <time>2016-08-10T15:26:08Z</time>
      </trkpt>
      <trkpt lat="45.62397" lon="6.13323">
        <ele>1295.574417767</ele>
        <time>2016-08-10T15:26:13Z</time>
      </trkpt>
      <trkpt lat="45.62413" lon="6.1333">
        <ele>1297.79099361</ele>
        <time>2016-08-10T15:26:23Z</time>
      </trkpt>
      <trkpt lat="45.62418" lon="6.13335">
        <ele>1297.79099361</ele>
        <time>2016-08-10T15:26:28Z</time>
      </trkpt>
      <trkpt lat="45.62421" lon="6.13342">
        <ele>1300.145461721</ele>
        <time>2016-08-10T15:26:38Z</time>
      </trkpt>
      <trkpt lat="45.62424" lon="6.13344">
        <ele>1300.145461721</ele>
        <time>2016-08-10T15:26:43Z</time>
      </trkpt>
      <trkpt lat="45.62431" lon="6.13356">
        <ele>1303.194798299</ele>
        <time>2016-08-10T15:26:58Z</time>
      </trkpt>
      <trkpt lat="45.62433" lon="6.13359">
        <ele>1303.194798299</ele>
        <time>2016-08-10T15:27:03Z</time>
      </trkpt>
      <trkpt lat="45.62435" lon="6.13363">
        <ele>1303.194798299</ele>
        <time>2016-08-10T15:27:13Z</time>
      </trkpt>
      <trkpt lat="45.6244" lon="6.13368">
        <ele>1306.732762814</ele>
        <time>2016-08-10T15:27:18Z</time>
      </trkpt>
      <trkpt lat="45.62445" lon="6.13376">
        <ele>1306.732762814</ele>
        <time>2016-08-10T15:27:28Z</time>
      </trkpt>
      <trkpt lat="45.62447" lon="6.1338">
        <ele>1310.85533822</ele>
        <time>2016-08-10T15:27:33Z</time>
      </trkpt>
      <trkpt lat="45.62451" lon="6.13384">
        <ele>1310.85533822</ele>
        <time>2016-08-10T15:27:43Z</time>
      </trkpt>
      <trkpt lat="45.62456" lon="6.13389">
        <ele>1314.064833123</ele>
        <time>2016-08-10T15:27:48Z</time>
      </trkpt>
      <trkpt lat="45.62461" lon="6.13393">
        <ele>1314.064833123</ele>
        <time>2016-08-10T15:27:58Z</time>
      </trkpt>
      <trkpt lat="45.62465" lon="6.13395">
        <ele>1317.570395548</ele>
        <time>2016-08-10T15:28:03Z</time>
      </trkpt>
      <trkpt lat="45.62473" lon="6.13397">
        <ele>1317.570395548</ele>
        <time>2016-08-10T15:28:13Z</time>
      </trkpt>
      <trkpt lat="45.62481" lon="6.13402">
        <ele>1320.906570247</ele>
        <time>2016-08-10T15:28:18Z</time>
      </trkpt>
      <trkpt lat="45.62494" lon="6.13412">
        <ele>1323.786966303</ele>
        <time>2016-08-10T15:28:33Z</time>
      </trkpt>
      <trkpt lat="45.625" lon="6.13414">
        <ele>1323.786966303</ele>
        <time>2016-08-10T15:28:38Z</time>
      </trkpt>
      <trkpt lat="45.62506" lon="6.13419">
        <ele>1326.668360327</ele>
        <time>2016-08-10T15:28:48Z</time>
      </trkpt>
      <trkpt lat="45.62508" lon="6.13421">
        <ele>1326.668360327</ele>
        <time>2016-08-10T15:28:53Z</time>
      </trkpt>
      <trkpt lat="45.62515" lon="6.13418">
        <ele>1328.8213826</ele>
        <time>2016-08-10T15:29:03Z</time>
      </trkpt>
      <trkpt lat="45.62517" lon="6.13419">
        <ele>1328.8213826</ele>
        <time>2016-08-10T15:29:08Z</time>
      </trkpt>
      <trkpt lat="45.62521" lon="6.13423">
        <ele>1328.8213826</ele>
        <time>2016-08-10T15:29:18Z</time>
      </trkpt>
      <trkpt lat="45.62526" lon="6.13428">
        <ele>1331.157811182</ele>
        <time>2016-08-10T15:29:23Z</time>
      </trkpt>
      <trkpt lat="45.6253" lon="6.13438">
        <ele>1331.157811182</ele>
        <time>2016-08-10T15:29:33Z</time>
      </trkpt>
      <trkpt lat="45.62533" lon="6.13436">
        <ele>1333.657566096</ele>
        <time>2016-08-10T15:29:38Z</time>
      </trkpt>
      <trkpt lat="45.62538" lon="6.1344">
        <ele>1333.657566096</ele>
        <time>2016-08-10T15:29:48Z</time>
      </trkpt>
      <trkpt lat="45.62546" lon="6.13444">
        <ele>1336.590107316</ele>
        <time>2016-08-10T15:29:53Z</time>
      </trkpt>
      <trkpt lat="45.62556" lon="6.13452">
        <ele>1339.483629261</ele>
        <time>2016-08-10T15:30:03Z</time>
      </trkpt>
      <trkpt lat="45.62558" lon="6.13459">
        <ele>1339.483629261</ele>
        <time>2016-08-10T15:30:08Z</time>
      </trkpt>
      <trkpt lat="45.62567" lon="6.13466">
        <ele>1342.189613785</ele>
        <time>2016-08-10T15:30:18Z</time>
      </trkpt>
      <trkpt lat="45.62568" lon="6.13466">
        <ele>1342.189613785</ele>
        <time>2016-08-10T15:30:23Z</time>
      </trkpt>
      <trkpt lat="45.62568" lon="6.13467">
        <ele>1342.189613785</ele>
        <time>2016-08-10T15:30:33Z</time>
      </trkpt>
      <trkpt lat="45.62568" lon="6.13467">
        <ele>1342.189613785</ele>
        <time>2016-08-10T15:30:38Z</time>
      </trkpt>
      <trkpt lat="45.62575" lon="6.13478">
        <ele>1344.427162321</ele>
        <time>2016-08-10T15:30:48Z</time>
      </trkpt>
      <trkpt lat="45.62578" lon="6.13478">
        <ele>1344.427162321</ele>
        <time>2016-08-10T15:30:53Z</time>
      </trkpt>
      <trkpt lat="45.62582" lon="6.1348">
        <ele>1344.427162321</ele>
        <time>2016-08-10T15:30:58Z</time>
      </trkpt>
      <trkpt lat="45.62587" lon="6.13482">
        <ele>1346.802283175</ele>
        <time>2016-08-10T15:31:03Z</time>
      </trkpt>
      <trkpt lat="45.62594" lon="6.13491">
        <ele>1348.435254605</ele>
        <time>2016-08-10T15:31:13Z</time>
      </trkpt>
      <trkpt lat="45.62598" lon="6.13495">
        <ele>1348.435254605</ele>
        <time>2016-08-10T15:31:18Z</time>
      </trkpt>
      <trkpt lat="45.62601" lon="6.13496">
        <ele>1348.435254605</ele>
        <time>2016-08-10T15:31:28Z</time>
      </trkpt>
      <trkpt lat="45.62604" lon="6.13501">
        <ele>1350.530893518</ele>
        <time>2016-08-10T15:31:33Z</time>
      </trkpt>
      <trkpt lat="45.62611" lon="6.13504">
        <ele>1350.530893518</ele>
        <time>2016-08-10T15:31:43Z</time>
      </trkpt>
      <trkpt lat="45.62615" lon="6.13505">
        <ele>1352.76336934</ele>
        <time>2016-08-10T15:31:48Z</time>
      </trkpt>
      <trkpt lat="45.62622" lon="6.13515">
        <ele>1354.542437537</ele>
        <time>2016-08-10T15:31:58Z</time>
      </trkpt>
      <trkpt lat="45.62625" lon="6.13515">
        <ele>1354.542437537</ele>
        <time>2016-08-10T15:32:03Z</time>
      </trkpt>
      <trkpt lat="45.62633" lon="6.13521">
        <ele>1356.475620313</ele>
        <time>2016-08-10T15:32:13Z</time>
      </trkpt>
      <trkpt lat="45.62635" lon="6.13521">
        <ele>1356.475620313</ele>
        <time>2016-08-10T15:32:18Z</time>
      </trkpt>
      <trkpt lat="45.62638" lon="6.13522">
        <ele>1356.475620313</ele>
        <time>2016-08-10T15:32:28Z</time>
      </trkpt>
      <trkpt lat="45.62641" lon="6.13523">
        <ele>1356.475620313</ele>
        <time>2016-08-10T15:32:33Z</time>
      </trkpt>
      <trkpt lat="45.62647" lon="6.13524">
        <ele>1358.693282523</ele>
        <time>2016-08-10T15:32:43Z</time>
      </trkpt>
      <trkpt lat="45.6265" lon="6.13524">
        <ele>1358.693282523</ele>
        <time>2016-08-10T15:32:48Z</time>
      </trkpt>
      <trkpt lat="45.62662" lon="6.13533">
        <ele>1361.315642122</ele>
        <time>2016-08-10T15:33:03Z</time>
      </trkpt>
      <trkpt lat="45.62663" lon="6.13532">
        <ele>1361.315642122</ele>
        <time>2016-08-10T15:33:08Z</time>
      </trkpt>
      <trkpt lat="45.62671" lon="6.13546">
        <ele>1363.588502487</ele>
        <time>2016-08-10T15:33:18Z</time>
      </trkpt>
      <trkpt lat="45.62674" lon="6.13548">
        <ele>1363.588502487</ele>
        <time>2016-08-10T15:33:23Z</time>
      </trkpt>
      <trkpt lat="45.62681" lon="6.13554">
        <ele>1365.390705317</ele>
        <time>2016-08-10T15:33:33Z</time>
      </trkpt>
      <trkpt lat="45.62686" lon="6.13558">
        <ele>1365.390705317</ele>
        <time>2016-08-10T15:33:38Z</time>
      </trkpt>
      <trkpt lat="45.62691" lon="6.13565">
        <ele>1366.899736422</ele>
        <time>2016-08-10T15:33:48Z</time>
      </trkpt>
      <trkpt lat="45.62694" lon="6.13569">
        <ele>1366.899736422</ele>
        <time>2016-08-10T15:33:53Z</time>
      </trkpt>
      <trkpt lat="45.627" lon="6.13574">
        <ele>1368.713390726</ele>
        <time>2016-08-10T15:34:03Z</time>
      </trkpt>
      <trkpt lat="45.62704" lon="6.13579">
        <ele>1368.713390726</ele>
        <time>2016-08-10T15:34:08Z</time>
      </trkpt>
      <trkpt lat="45.62715" lon="6.13589">
        <ele>1369.943761988</ele>
        <time>2016-08-10T15:34:18Z</time>
      </trkpt>
      <trkpt lat="45.62716" lon="6.13591">
        <ele>1369.943761988</ele>
        <time>2016-08-10T15:34:23Z</time>
      </trkpt>
      <trkpt lat="45.62723" lon="6.13596">
        <ele>1371.355193744</ele>
        <time>2016-08-10T15:34:33Z</time>
      </trkpt>
      <trkpt lat="45.62726" lon="6.13597">
        <ele>1371.355193744</ele>
        <time>2016-08-10T15:34:38Z</time>
      </trkpt>
      <trkpt lat="45.62731" lon="6.13601">
        <ele>1372.646747221</ele>
        <time>2016-08-10T15:34:48Z</time>
      </trkpt>
      <trkpt lat="45.6274" lon="6.13607">
        <ele>1373.68417592</ele>
        <time>2016-08-10T15:34:53Z</time>
      </trkpt>
      <trkpt lat="45.62745" lon="6.13608">
        <ele>1373.68417592</ele>
        <time>2016-08-10T15:35:03Z</time>
      </trkpt>
      <trkpt lat="45.62749" lon="6.13608">
        <ele>1374.343930922</ele>
        <time>2016-08-10T15:35:08Z</time>
      </trkpt>
      <trkpt lat="45.62757" lon="6.1361">
        <ele>1374.343930922</ele>
        <time>2016-08-10T15:35:18Z</time>
      </trkpt>
      <trkpt lat="45.62758" lon="6.1361">
        <ele>1374.368594108</ele>
        <time>2016-08-10T15:35:23Z</time>
      </trkpt>
      <trkpt lat="45.62767" lon="6.13614">
        <ele>1374.530306078</ele>
        <time>2016-08-10T15:35:33Z</time>
      </trkpt>
      <trkpt lat="45.62771" lon="6.13616">
        <ele>1374.530306078</ele>
        <time>2016-08-10T15:35:38Z</time>
      </trkpt>
      <trkpt lat="45.62789" lon="6.13629">
        <ele>1374.679505445</ele>
        <time>2016-08-10T15:35:53Z</time>
      </trkpt>
      <trkpt lat="45.62798" lon="6.13637">
        <ele>1374.677703839</ele>
        <time>2016-08-10T15:36:08Z</time>
      </trkpt>
      <trkpt lat="45.62804" lon="6.13643">
        <ele>1374.677703839</ele>
        <time>2016-08-10T15:36:13Z</time>
      </trkpt>
      <trkpt lat="45.62812" lon="6.13646">
        <ele>1374.685264596</ele>
        <time>2016-08-10T15:36:23Z</time>
      </trkpt>
      <trkpt lat="45.62813" lon="6.13647">
        <ele>1374.685264596</ele>
        <time>2016-08-10T15:36:28Z</time>
      </trkpt>
      <trkpt lat="45.62822" lon="6.13656">
        <ele>1374.274314148</ele>
        <time>2016-08-10T15:36:38Z</time>
      </trkpt>
      <trkpt lat="45.62827" lon="6.13658">
        <ele>1374.274314148</ele>
        <time>2016-08-10T15:36:43Z</time>
      </trkpt>
      <trkpt lat="45.62838" lon="6.13664">
        <ele>1374.346582099</ele>
        <time>2016-08-10T15:36:53Z</time>
      </trkpt>
      <trkpt lat="45.62842" lon="6.1367">
        <ele>1374.346582099</ele>
        <time>2016-08-10T15:36:58Z</time>
      </trkpt>
      <trkpt lat="45.6285" lon="6.13676">
        <ele>1374.295071329</ele>
        <time>2016-08-10T15:37:08Z</time>
      </trkpt>
      <trkpt lat="45.62854" lon="6.1368">
        <ele>1374.295071329</ele>
        <time>2016-08-10T15:37:13Z</time>
      </trkpt>
      <trkpt lat="45.62859" lon="6.13684">
        <ele>1374.422354999</ele>
        <time>2016-08-10T15:37:23Z</time>
      </trkpt>
      <trkpt lat="45.62863" lon="6.13687">
        <ele>1374.422354999</ele>
        <time>2016-08-10T15:37:28Z</time>
      </trkpt>
      <trkpt lat="45.62867" lon="6.13692">
        <ele>1373.999452086</ele>
        <time>2016-08-10T15:37:38Z</time>
      </trkpt>
      <trkpt lat="45.62874" lon="6.13698">
        <ele>1373.999452086</ele>
        <time>2016-08-10T15:37:43Z</time>
      </trkpt>
      <trkpt lat="45.62886" lon="6.13705">
        <ele>1374.081750051</ele>
        <time>2016-08-10T15:37:58Z</time>
      </trkpt>
      <trkpt lat="45.62889" lon="6.13706">
        <ele>1374.081750051</ele>
        <time>2016-08-10T15:38:03Z</time>
      </trkpt>
      <trkpt lat="45.62898" lon="6.13709">
        <ele>1373.916286028</ele>
        <time>2016-08-10T15:38:13Z</time>
      </trkpt>
      <trkpt lat="45.62903" lon="6.13714">
        <ele>1373.916286028</ele>
        <time>2016-08-10T15:38:18Z</time>
      </trkpt>
      <trkpt lat="45.62914" lon="6.13723">
        <ele>1372.806021278</ele>
        <time>2016-08-10T15:38:28Z</time>
      </trkpt>
      <trkpt lat="45.62919" lon="6.13724">
        <ele>1372.806021278</ele>
        <time>2016-08-10T15:38:33Z</time>
      </trkpt>
      <trkpt lat="45.62928" lon="6.13727">
        <ele>1371.981121581</ele>
        <time>2016-08-10T15:38:43Z</time>
      </trkpt>
      <trkpt lat="45.62936" lon="6.13731">
        <ele>1371.981121581</ele>
        <time>2016-08-10T15:38:48Z</time>
      </trkpt>
      <trkpt lat="45.62941" lon="6.13733">
        <ele>1371.139365901</ele>
        <time>2016-08-10T15:38:58Z</time>
      </trkpt>
      <trkpt lat="45.62948" lon="6.13737">
        <ele>1371.139365901</ele>
        <time>2016-08-10T15:39:03Z</time>
      </trkpt>
      <trkpt lat="45.62955" lon="6.13743">
        <ele>1370.577106647</ele>
        <time>2016-08-10T15:39:13Z</time>
      </trkpt>
      <trkpt lat="45.62957" lon="6.13743">
        <ele>1370.577106647</ele>
        <time>2016-08-10T15:39:19Z</time>
      </trkpt>
      <trkpt lat="45.62964" lon="6.1375">
        <ele>1369.703344041</ele>
        <time>2016-08-10T15:39:28Z</time>
      </trkpt>
      <trkpt lat="45.62965" lon="6.1375">
        <ele>1369.703344041</ele>
        <time>2016-08-10T15:39:33Z</time>
      </trkpt>
      <trkpt lat="45.62976" lon="6.13758">
        <ele>1368.403558221</ele>
        <time>2016-08-10T15:39:43Z</time>
      </trkpt>
      <trkpt lat="45.6298" lon="6.1376">
        <ele>1368.403558221</ele>
        <time>2016-08-10T15:39:48Z</time>
      </trkpt>
      <trkpt lat="45.62991" lon="6.13766">
        <ele>1366.860906859</ele>
        <time>2016-08-10T15:40:03Z</time>
      </trkpt>
      <trkpt lat="45.62996" lon="6.13766">
        <ele>1366.860906859</ele>
        <time>2016-08-10T15:40:13Z</time>
      </trkpt>
      <trkpt lat="45.62998" lon="6.13768">
        <ele>1366.860906859</ele>
        <time>2016-08-10T15:40:18Z</time>
      </trkpt>
      <trkpt lat="45.63001" lon="6.13769">
        <ele>1364.957388106</ele>
        <time>2016-08-10T15:40:23Z</time>
      </trkpt>
      <trkpt lat="45.63009" lon="6.1377">
        <ele>1364.957388106</ele>
        <time>2016-08-10T15:40:33Z</time>
      </trkpt>
      <trkpt lat="45.63011" lon="6.13775">
        <ele>1362.872726736</ele>
        <time>2016-08-10T15:40:38Z</time>
      </trkpt>
      <trkpt lat="45.63019" lon="6.13789">
        <ele>1360.341429407</ele>
        <time>2016-08-10T15:40:48Z</time>
      </trkpt>
      <trkpt lat="45.63024" lon="6.13793">
        <ele>1360.341429407</ele>
        <time>2016-08-10T15:40:54Z</time>
      </trkpt>
      <trkpt lat="45.6303" lon="6.13806">
        <ele>1357.98322143</ele>
        <time>2016-08-10T15:41:03Z</time>
      </trkpt>
      <trkpt lat="45.63037" lon="6.13813">
        <ele>1357.98322143</ele>
        <time>2016-08-10T15:41:08Z</time>
      </trkpt>
      <trkpt lat="45.63037" lon="6.13819">
        <ele>1356.515712495</ele>
        <time>2016-08-10T15:41:18Z</time>
      </trkpt>
      <trkpt lat="45.63043" lon="6.13826">
        <ele>1356.515712495</ele>
        <time>2016-08-10T15:41:23Z</time>
      </trkpt>
      <trkpt lat="45.63047" lon="6.13828">
        <ele>1355.159960124</ele>
        <time>2016-08-10T15:41:33Z</time>
      </trkpt>
      <trkpt lat="45.6305" lon="6.13829">
        <ele>1355.159960124</ele>
        <time>2016-08-10T15:41:38Z</time>
      </trkpt>
      <trkpt lat="45.63055" lon="6.13833">
        <ele>1355.159960124</ele>
        <time>2016-08-10T15:41:48Z</time>
      </trkpt>
      <trkpt lat="45.63058" lon="6.13837">
        <ele>1353.914251449</ele>
        <time>2016-08-10T15:41:53Z</time>
      </trkpt>
      <trkpt lat="45.63067" lon="6.13846">
        <ele>1352.632343024</ele>
        <time>2016-08-10T15:42:03Z</time>
      </trkpt>
      <trkpt lat="45.63073" lon="6.13848">
        <ele>1352.632343024</ele>
        <time>2016-08-10T15:42:09Z</time>
      </trkpt>
      <trkpt lat="45.63082" lon="6.13849">
        <ele>1352.619712636</ele>
        <time>2016-08-10T15:42:18Z</time>
      </trkpt>
      <trkpt lat="45.63087" lon="6.13851">
        <ele>1352.619712636</ele>
        <time>2016-08-10T15:42:24Z</time>
      </trkpt>
      <trkpt lat="45.63096" lon="6.1386">
        <ele>1352.776368626</ele>
        <time>2016-08-10T15:42:34Z</time>
      </trkpt>
      <trkpt lat="45.63099" lon="6.13861">
        <ele>1352.776368626</ele>
        <time>2016-08-10T15:42:38Z</time>
      </trkpt>
      <trkpt lat="45.63103" lon="6.13864">
        <ele>1352.776368626</ele>
        <time>2016-08-10T15:42:43Z</time>
      </trkpt>
      <trkpt lat="45.63111" lon="6.13869">
        <ele>1353.23531634</ele>
        <time>2016-08-10T15:42:54Z</time>
      </trkpt>
      <trkpt lat="45.63114" lon="6.1387">
        <ele>1353.23531634</ele>
        <time>2016-08-10T15:42:59Z</time>
      </trkpt>
      <trkpt lat="45.63126" lon="6.13877">
        <ele>1353.830509898</ele>
        <time>2016-08-10T15:43:08Z</time>
      </trkpt>
      <trkpt lat="45.63128" lon="6.13878">
        <ele>1353.830509898</ele>
        <time>2016-08-10T15:43:13Z</time>
      </trkpt>
      <trkpt lat="45.63137" lon="6.1389">
        <ele>1354.695745665</ele>
        <time>2016-08-10T15:43:24Z</time>
      </trkpt>
      <trkpt lat="45.63141" lon="6.13896">
        <ele>1354.695745665</ele>
        <time>2016-08-10T15:43:29Z</time>
      </trkpt>
      <trkpt lat="45.63153" lon="6.13908">
        <ele>1355.521720579</ele>
        <time>2016-08-10T15:43:38Z</time>
      </trkpt>
      <trkpt lat="45.63162" lon="6.13913">
        <ele>1355.521720579</ele>
        <time>2016-08-10T15:43:44Z</time>
      </trkpt>
      <trkpt lat="45.6317" lon="6.13921">
        <ele>1356.454133099</ele>
        <time>2016-08-10T15:43:53Z</time>
      </trkpt>
      <trkpt lat="45.63173" lon="6.13922">
        <ele>1356.454133099</ele>
        <time>2016-08-10T15:43:58Z</time>
      </trkpt>
      <trkpt lat="45.63179" lon="6.13925">
        <ele>1357.483422314</ele>
        <time>2016-08-10T15:44:09Z</time>
      </trkpt>
      <trkpt lat="45.63182" lon="6.13925">
        <ele>1357.483422314</ele>
        <time>2016-08-10T15:44:13Z</time>
      </trkpt>
      <trkpt lat="45.63196" lon="6.13933">
        <ele>1357.591547877</ele>
        <time>2016-08-10T15:44:24Z</time>
      </trkpt>
      <trkpt lat="45.63198" lon="6.13933">
        <ele>1357.591547877</ele>
        <time>2016-08-10T15:44:28Z</time>
      </trkpt>
      <trkpt lat="45.63215" lon="6.13921">
        <ele>1358.143499052</ele>
        <time>2016-08-10T15:44:45Z</time>
      </trkpt>
      <trkpt lat="45.63216" lon="6.13917">
        <ele>1358.143499052</ele>
        <time>2016-08-10T15:44:48Z</time>
      </trkpt>
      <trkpt lat="45.63219" lon="6.13919">
        <ele>1358.143499052</ele>
        <time>2016-08-10T15:44:58Z</time>
      </trkpt>
      <trkpt lat="45.63225" lon="6.1392">
        <ele>1358.961532041</ele>
        <time>2016-08-10T15:45:03Z</time>
      </trkpt>
      <trkpt lat="45.63238" lon="6.13931">
        <ele>1359.303674744</ele>
        <time>2016-08-10T15:45:13Z</time>
      </trkpt>
      <trkpt lat="45.63246" lon="6.13927">
        <ele>1359.303674744</ele>
        <time>2016-08-10T15:45:18Z</time>
      </trkpt>
      <trkpt lat="45.63254" lon="6.13926">
        <ele>1360.357157036</ele>
        <time>2016-08-10T15:45:28Z</time>
      </trkpt>
      <trkpt lat="45.63258" lon="6.13923">
        <ele>1360.357157036</ele>
        <time>2016-08-10T15:45:33Z</time>
      </trkpt>
      <trkpt lat="45.63268" lon="6.13919">
        <ele>1361.202371968</ele>
        <time>2016-08-10T15:45:43Z</time>
      </trkpt>
      <trkpt lat="45.63274" lon="6.13919">
        <ele>1361.202371968</ele>
        <time>2016-08-10T15:45:48Z</time>
      </trkpt>
      <trkpt lat="45.63282" lon="6.13912">
        <ele>1363.005348069</ele>
        <time>2016-08-10T15:45:58Z</time>
      </trkpt>
      <trkpt lat="45.63286" lon="6.1391">
        <ele>1363.005348069</ele>
        <time>2016-08-10T15:46:03Z</time>
      </trkpt>
      <trkpt lat="45.633" lon="6.13916">
        <ele>1364.105612737</ele>
        <time>2016-08-10T15:46:18Z</time>
      </trkpt>
      <trkpt lat="45.63308" lon="6.13922">
        <ele>1364.263607735</ele>
        <time>2016-08-10T15:46:23Z</time>
      </trkpt>
      <trkpt lat="45.63312" lon="6.13917">
        <ele>1364.263607735</ele>
        <time>2016-08-10T15:46:33Z</time>
      </trkpt>
      <trkpt lat="45.63317" lon="6.13919">
        <ele>1364.845214518</ele>
        <time>2016-08-10T15:46:38Z</time>
      </trkpt>
      <trkpt lat="45.6332" lon="6.13921">
        <ele>1364.845214518</ele>
        <time>2016-08-10T15:46:43Z</time>
      </trkpt>
      <trkpt lat="45.63325" lon="6.13922">
        <ele>1364.845214518</ele>
        <time>2016-08-10T15:46:48Z</time>
      </trkpt>
      <trkpt lat="45.63341" lon="6.1393">
        <ele>1364.664882177</ele>
        <time>2016-08-10T15:46:58Z</time>
      </trkpt>
      <trkpt lat="45.63347" lon="6.13931">
        <ele>1364.664882177</ele>
        <time>2016-08-10T15:47:03Z</time>
      </trkpt>
      <trkpt lat="45.63356" lon="6.13933">
        <ele>1364.355607091</ele>
        <time>2016-08-10T15:47:13Z</time>
      </trkpt>
      <trkpt lat="45.63361" lon="6.13938">
        <ele>1364.355607091</ele>
        <time>2016-08-10T15:47:18Z</time>
      </trkpt>
      <trkpt lat="45.63368" lon="6.1394">
        <ele>1364.360124045</ele>
        <time>2016-08-10T15:47:28Z</time>
      </trkpt>
      <trkpt lat="45.63371" lon="6.13943">
        <ele>1364.360124045</ele>
        <time>2016-08-10T15:47:33Z</time>
      </trkpt>
      <trkpt lat="45.63379" lon="6.13943">
        <ele>1364.223085246</ele>
        <time>2016-08-10T15:47:48Z</time>
      </trkpt>
      <trkpt lat="45.63383" lon="6.13944">
        <ele>1364.223085246</ele>
        <time>2016-08-10T15:47:53Z</time>
      </trkpt>
      <trkpt lat="45.63391" lon="6.13945">
        <ele>1364.531755769</ele>
        <time>2016-08-10T15:48:03Z</time>
      </trkpt>
      <trkpt lat="45.63399" lon="6.13947">
        <ele>1364.531755769</ele>
        <time>2016-08-10T15:48:08Z</time>
      </trkpt>
      <trkpt lat="45.63407" lon="6.13949">
        <ele>1364.531998238</ele>
        <time>2016-08-10T15:48:13Z</time>
      </trkpt>
      <trkpt lat="45.6341" lon="6.1395">
        <ele>1364.531998238</ele>
        <time>2016-08-10T15:48:18Z</time>
      </trkpt>
      <trkpt lat="45.63412" lon="6.1395">
        <ele>1364.531998238</ele>
        <time>2016-08-10T15:48:23Z</time>
      </trkpt>
      <trkpt lat="45.63413" lon="6.13947">
        <ele>1364.531998238</ele>
        <time>2016-08-10T15:48:28Z</time>
      </trkpt>
      <trkpt lat="45.63414" lon="6.13944">
        <ele>1365.543486793</ele>
        <time>2016-08-10T15:48:33Z</time>
      </trkpt>
      <trkpt lat="45.63414" lon="6.13945">
        <ele>1365.543486793</ele>
        <time>2016-08-10T15:48:38Z</time>
      </trkpt>
      <trkpt lat="45.63426" lon="6.13942">
        <ele>1366.480333054</ele>
        <time>2016-08-10T15:48:48Z</time>
      </trkpt>
      <trkpt lat="45.63438" lon="6.13943">
        <ele>1365.9042918</ele>
        <time>2016-08-10T15:48:53Z</time>
      </trkpt>
      <trkpt lat="45.63443" lon="6.1395">
        <ele>1365.9042918</ele>
        <time>2016-08-10T15:49:03Z</time>
      </trkpt>
      <trkpt lat="45.63442" lon="6.1395">
        <ele>1365.9042918</ele>
        <time>2016-08-10T15:49:08Z</time>
      </trkpt>
      <trkpt lat="45.63451" lon="6.13959">
        <ele>1364.792793069</ele>
        <time>2016-08-10T15:49:18Z</time>
      </trkpt>
      <trkpt lat="45.63453" lon="6.13959">
        <ele>1364.792793069</ele>
        <time>2016-08-10T15:49:23Z</time>
      </trkpt>
      <trkpt lat="45.63454" lon="6.13959">
        <ele>1364.792793069</ele>
        <time>2016-08-10T15:49:33Z</time>
      </trkpt>
      <trkpt lat="45.63462" lon="6.13959">
        <ele>1362.467741106</ele>
        <time>2016-08-10T15:49:38Z</time>
      </trkpt>
      <trkpt lat="45.63486" lon="6.1396">
        <ele>1360.465912388</ele>
        <time>2016-08-10T15:49:53Z</time>
      </trkpt>
      <trkpt lat="45.63489" lon="6.13959">
        <ele>1360.465912388</ele>
        <time>2016-08-10T15:49:58Z</time>
      </trkpt>
      <trkpt lat="45.63489" lon="6.13958">
        <ele>1360.465912388</ele>
        <time>2016-08-10T15:50:08Z</time>
      </trkpt>
      <trkpt lat="45.63489" lon="6.13959">
        <ele>1360.465912388</ele>
        <time>2016-08-10T15:50:13Z</time>
      </trkpt>
      <trkpt lat="45.6349" lon="6.13959">
        <ele>1360.465912388</ele>
        <time>2016-08-10T15:50:23Z</time>
      </trkpt>
      <trkpt lat="45.63489" lon="6.13958">
        <ele>1360.465912388</ele>
        <time>2016-08-10T15:50:28Z</time>
      </trkpt>
      <trkpt lat="45.63489" lon="6.13958">
        <ele>1360.465912388</ele>
        <time>2016-08-10T15:50:38Z</time>
      </trkpt>
      <trkpt lat="45.6349" lon="6.13957">
        <ele>1360.465912388</ele>
        <time>2016-08-10T15:50:43Z</time>
      </trkpt>
      <trkpt lat="45.63492" lon="6.13958">
        <ele>1357.760369745</ele>
        <time>2016-08-10T15:50:53Z</time>
      </trkpt>
      <trkpt lat="45.63496" lon="6.13962">
        <ele>1357.760369745</ele>
        <time>2016-08-10T15:50:58Z</time>
      </trkpt>
      <trkpt lat="45.63502" lon="6.13954">
        <ele>1355.995548093</ele>
        <time>2016-08-10T15:51:08Z</time>
      </trkpt>
      <trkpt lat="45.63506" lon="6.13952">
        <ele>1355.995548093</ele>
        <time>2016-08-10T15:51:13Z</time>
      </trkpt>
      <trkpt lat="45.63513" lon="6.13947">
        <ele>1354.530721121</ele>
        <time>2016-08-10T15:51:23Z</time>
      </trkpt>
      <trkpt lat="45.63518" lon="6.13944">
        <ele>1354.530721121</ele>
        <time>2016-08-10T15:51:28Z</time>
      </trkpt>
      <trkpt lat="45.63527" lon="6.1394">
        <ele>1353.635989172</ele>
        <time>2016-08-10T15:51:38Z</time>
      </trkpt>
      <trkpt lat="45.63533" lon="6.13936">
        <ele>1353.635989172</ele>
        <time>2016-08-10T15:51:43Z</time>
      </trkpt>
      <trkpt lat="45.63542" lon="6.13924">
        <ele>1352.983494162</ele>
        <time>2016-08-10T15:51:53Z</time>
      </trkpt>
      <trkpt lat="45.63544" lon="6.13917">
        <ele>1352.983494162</ele>
        <time>2016-08-10T15:51:58Z</time>
      </trkpt>
      <trkpt lat="45.6355" lon="6.13907">
        <ele>1351.548149682</ele>
        <time>2016-08-10T15:52:08Z</time>
      </trkpt>
      <trkpt lat="45.63552" lon="6.13902">
        <ele>1351.548149682</ele>
        <time>2016-08-10T15:52:13Z</time>
      </trkpt>
      <trkpt lat="45.63561" lon="6.13895">
        <ele>1350.255733284</ele>
        <time>2016-08-10T15:52:23Z</time>
      </trkpt>
      <trkpt lat="45.63568" lon="6.13892">
        <ele>1350.255733284</ele>
        <time>2016-08-10T15:52:28Z</time>
      </trkpt>
      <trkpt lat="45.6358" lon="6.13879">
        <ele>1349.675311723</ele>
        <time>2016-08-10T15:52:43Z</time>
      </trkpt>
      <trkpt lat="45.63583" lon="6.13876">
        <ele>1349.675311723</ele>
        <time>2016-08-10T15:52:48Z</time>
      </trkpt>
      <trkpt lat="45.63591" lon="6.13867">
        <ele>1349.323292352</ele>
        <time>2016-08-10T15:52:58Z</time>
      </trkpt>
      <trkpt lat="45.63594" lon="6.13866">
        <ele>1349.323292352</ele>
        <time>2016-08-10T15:53:03Z</time>
      </trkpt>
      <trkpt lat="45.63605" lon="6.13857">
        <ele>1349.615554877</ele>
        <time>2016-08-10T15:53:13Z</time>
      </trkpt>
      <trkpt lat="45.63607" lon="6.13851">
        <ele>1349.615554877</ele>
        <time>2016-08-10T15:53:18Z</time>
      </trkpt>
      <trkpt lat="45.63612" lon="6.13845">
        <ele>1350.07088151</ele>
        <time>2016-08-10T15:53:28Z</time>
      </trkpt>
      <trkpt lat="45.63614" lon="6.13841">
        <ele>1350.07088151</ele>
        <time>2016-08-10T15:53:33Z</time>
      </trkpt>
      <trkpt lat="45.63621" lon="6.13833">
        <ele>1350.963439066</ele>
        <time>2016-08-10T15:53:43Z</time>
      </trkpt>
      <trkpt lat="45.63622" lon="6.13826">
        <ele>1350.963439066</ele>
        <time>2016-08-10T15:53:48Z</time>
      </trkpt>
      <trkpt lat="45.63625" lon="6.13815">
        <ele>1351.537196254</ele>
        <time>2016-08-10T15:53:58Z</time>
      </trkpt>
      <trkpt lat="45.63626" lon="6.1381">
        <ele>1351.537196254</ele>
        <time>2016-08-10T15:54:03Z</time>
      </trkpt>
      <trkpt lat="45.63631" lon="6.13803">
        <ele>1352.533624434</ele>
        <time>2016-08-10T15:54:13Z</time>
      </trkpt>
      <trkpt lat="45.63632" lon="6.138">
        <ele>1352.533624434</ele>
        <time>2016-08-10T15:54:18Z</time>
      </trkpt>
      <trkpt lat="45.63634" lon="6.13792">
        <ele>1352.533624434</ele>
        <time>2016-08-10T15:54:28Z</time>
      </trkpt>
      <trkpt lat="45.63635" lon="6.13783">
        <ele>1353.341511885</ele>
        <time>2016-08-10T15:54:33Z</time>
      </trkpt>
      <trkpt lat="45.63637" lon="6.13771">
        <ele>1353.341511885</ele>
        <time>2016-08-10T15:54:43Z</time>
      </trkpt>
      <trkpt lat="45.63638" lon="6.13764">
        <ele>1355.124393819</ele>
        <time>2016-08-10T15:54:48Z</time>
      </trkpt>
      <trkpt lat="45.63641" lon="6.13755">
        <ele>1355.124393819</ele>
        <time>2016-08-10T15:54:58Z</time>
      </trkpt>
      <trkpt lat="45.6364" lon="6.1375">
        <ele>1356.940040099</ele>
        <time>2016-08-10T15:55:03Z</time>
      </trkpt>
      <trkpt lat="45.6364" lon="6.1374">
        <ele>1356.940040099</ele>
        <time>2016-08-10T15:55:13Z</time>
      </trkpt>
      <trkpt lat="45.6364" lon="6.13737">
        <ele>1359.356470959</ele>
        <time>2016-08-10T15:55:18Z</time>
      </trkpt>
      <trkpt lat="45.63643" lon="6.13729">
        <ele>1359.356470959</ele>
        <time>2016-08-10T15:55:28Z</time>
      </trkpt>
      <trkpt lat="45.63643" lon="6.13726">
        <ele>1359.356470959</ele>
        <time>2016-08-10T15:55:33Z</time>
      </trkpt>
      <trkpt lat="45.63646" lon="6.13714">
        <ele>1362.321883549</ele>
        <time>2016-08-10T15:55:48Z</time>
      </trkpt>
      <trkpt lat="45.63647" lon="6.13709">
        <ele>1362.321883549</ele>
        <time>2016-08-10T15:55:53Z</time>
      </trkpt>
      <trkpt lat="45.63647" lon="6.13697">
        <ele>1365.066237842</ele>
        <time>2016-08-10T15:56:03Z</time>
      </trkpt>
      <trkpt lat="45.63647" lon="6.13693">
        <ele>1365.066237842</ele>
        <time>2016-08-10T15:56:08Z</time>
      </trkpt>
      <trkpt lat="45.63651" lon="6.13685">
        <ele>1368.461978202</ele>
        <time>2016-08-10T15:56:18Z</time>
      </trkpt>
      <trkpt lat="45.63652" lon="6.1368">
        <ele>1368.461978202</ele>
        <time>2016-08-10T15:56:23Z</time>
      </trkpt>
      <trkpt lat="45.63655" lon="6.13669">
        <ele>1372.306951683</ele>
        <time>2016-08-10T15:56:33Z</time>
      </trkpt>
      <trkpt lat="45.63656" lon="6.13665">
        <ele>1372.306951683</ele>
        <time>2016-08-10T15:56:38Z</time>
      </trkpt>
      <trkpt lat="45.63656" lon="6.13657">
        <ele>1372.306951683</ele>
        <time>2016-08-10T15:56:48Z</time>
      </trkpt>
      <trkpt lat="45.63656" lon="6.13651">
        <ele>1376.268604522</ele>
        <time>2016-08-10T15:56:53Z</time>
      </trkpt>
      <trkpt lat="45.63659" lon="6.13638">
        <ele>1380.182739537</ele>
        <time>2016-08-10T15:57:08Z</time>
      </trkpt>
      <trkpt lat="45.6366" lon="6.1363">
        <ele>1380.182739537</ele>
        <time>2016-08-10T15:57:13Z</time>
      </trkpt>
      <trkpt lat="45.63658" lon="6.13615">
        <ele>1384.473966282</ele>
        <time>2016-08-10T15:57:23Z</time>
      </trkpt>
      <trkpt lat="45.6366" lon="6.13611">
        <ele>1384.473966282</ele>
        <time>2016-08-10T15:57:28Z</time>
      </trkpt>
      <trkpt lat="45.63663" lon="6.13606">
        <ele>1384.473966282</ele>
        <time>2016-08-10T15:57:38Z</time>
      </trkpt>
      <trkpt lat="45.63663" lon="6.13609">
        <ele>1388.237832783</ele>
        <time>2016-08-10T15:57:44Z</time>
      </trkpt>
      <trkpt lat="45.63663" lon="6.13609">
        <ele>1388.237832783</ele>
        <time>2016-08-10T15:57:53Z</time>
      </trkpt>
      <trkpt lat="45.63663" lon="6.13609">
        <ele>1388.237832783</ele>
        <time>2016-08-10T15:57:58Z</time>
      </trkpt>
      <trkpt lat="45.63664" lon="6.13609">
        <ele>1388.237832783</ele>
        <time>2016-08-10T15:58:08Z</time>
      </trkpt>
      <trkpt lat="45.63665" lon="6.13609">
        <ele>1388.237832783</ele>
        <time>2016-08-10T15:58:13Z</time>
      </trkpt>
      <trkpt lat="45.63666" lon="6.13609">
        <ele>1388.237832783</ele>
        <time>2016-08-10T15:58:28Z</time>
      </trkpt>
      <trkpt lat="45.63666" lon="6.1361">
        <ele>1388.237832783</ele>
        <time>2016-08-10T15:58:43Z</time>
      </trkpt>
      <trkpt lat="45.63666" lon="6.1361">
        <ele>1388.237832783</ele>
        <time>2016-08-10T15:58:48Z</time>
      </trkpt>
      <trkpt lat="45.63666" lon="6.1361">
        <ele>1388.237832783</ele>
        <time>2016-08-10T15:58:58Z</time>
      </trkpt>
      <trkpt lat="45.63666" lon="6.1361">
        <ele>1388.237832783</ele>
        <time>2016-08-10T15:59:03Z</time>
      </trkpt>
      <trkpt lat="45.63663" lon="6.13625">
        <ele>1391.502680881</ele>
        <time>2016-08-10T15:59:14Z</time>
      </trkpt>
      <trkpt lat="45.63663" lon="6.13631">
        <ele>1391.502680881</ele>
        <time>2016-08-10T15:59:18Z</time>
      </trkpt>
      <trkpt lat="45.63663" lon="6.13639">
        <ele>1394.584614661</ele>
        <time>2016-08-10T15:59:29Z</time>
      </trkpt>
      <trkpt lat="45.63662" lon="6.13639">
        <ele>1394.584614661</ele>
        <time>2016-08-10T15:59:33Z</time>
      </trkpt>
      <trkpt lat="45.63662" lon="6.1364">
        <ele>1394.584614661</ele>
        <time>2016-08-10T15:59:43Z</time>
      </trkpt>
      <trkpt lat="45.63662" lon="6.1364">
        <ele>1394.584614661</ele>
        <time>2016-08-10T15:59:48Z</time>
      </trkpt>
      <trkpt lat="45.63663" lon="6.13642">
        <ele>1394.584614661</ele>
        <time>2016-08-10T15:59:53Z</time>
      </trkpt>
      <trkpt lat="45.63661" lon="6.1365">
        <ele>1396.768484237</ele>
        <time>2016-08-10T16:00:03Z</time>
      </trkpt>
      <trkpt lat="45.6366" lon="6.13656">
        <ele>1396.768484237</ele>
        <time>2016-08-10T16:00:08Z</time>
      </trkpt>
      <trkpt lat="45.63662" lon="6.13669">
        <ele>1398.114984957</ele>
        <time>2016-08-10T16:00:18Z</time>
      </trkpt>
      <trkpt lat="45.63664" lon="6.13674">
        <ele>1398.114984957</ele>
        <time>2016-08-10T16:00:23Z</time>
      </trkpt>
      <trkpt lat="45.63658" lon="6.13684">
        <ele>1398.682935494</ele>
        <time>2016-08-10T16:00:33Z</time>
      </trkpt>
      <trkpt lat="45.63657" lon="6.13688">
        <ele>1398.682935494</ele>
        <time>2016-08-10T16:00:38Z</time>
      </trkpt>
      <trkpt lat="45.63652" lon="6.13696">
        <ele>1398.673352886</ele>
        <time>2016-08-10T16:00:48Z</time>
      </trkpt>
      <trkpt lat="45.63652" lon="6.13697">
        <ele>1398.673352886</ele>
        <time>2016-08-10T16:00:53Z</time>
      </trkpt>
      <trkpt lat="45.63649" lon="6.1371">
        <ele>1398.130205313</ele>
        <time>2016-08-10T16:01:03Z</time>
      </trkpt>
      <trkpt lat="45.63646" lon="6.13713">
        <ele>1398.130205313</ele>
        <time>2016-08-10T16:01:08Z</time>
      </trkpt>
      <trkpt lat="45.63645" lon="6.13722">
        <ele>1396.951805128</ele>
        <time>2016-08-10T16:01:18Z</time>
      </trkpt>
      <trkpt lat="45.63643" lon="6.13728">
        <ele>1396.951805128</ele>
        <time>2016-08-10T16:01:23Z</time>
      </trkpt>
      <trkpt lat="45.63642" lon="6.13747">
        <ele>1395.045880295</ele>
        <time>2016-08-10T16:01:38Z</time>
      </trkpt>
      <trkpt lat="45.6364" lon="6.13754">
        <ele>1395.045880295</ele>
        <time>2016-08-10T16:01:43Z</time>
      </trkpt>
      <trkpt lat="45.63641" lon="6.13758">
        <ele>1395.045880295</ele>
        <time>2016-08-10T16:01:53Z</time>
      </trkpt>
      <trkpt lat="45.63641" lon="6.13758">
        <ele>1395.045880295</ele>
        <time>2016-08-10T16:01:58Z</time>
      </trkpt>
      <trkpt lat="45.63641" lon="6.13759">
        <ele>1395.045880295</ele>
        <time>2016-08-10T16:02:08Z</time>
      </trkpt>
      <trkpt lat="45.63641" lon="6.13759">
        <ele>1393.049669729</ele>
        <time>2016-08-10T16:02:13Z</time>
      </trkpt>
      <trkpt lat="45.63641" lon="6.13762">
        <ele>1393.049669729</ele>
        <time>2016-08-10T16:02:23Z</time>
      </trkpt>
      <trkpt lat="45.6364" lon="6.13769">
        <ele>1393.049669729</ele>
        <time>2016-08-10T16:02:28Z</time>
      </trkpt>
      <trkpt lat="45.63637" lon="6.13783">
        <ele>1390.833404569</ele>
        <time>2016-08-10T16:02:38Z</time>
      </trkpt>
      <trkpt lat="45.63635" lon="6.1379">
        <ele>1390.833404569</ele>
        <time>2016-08-10T16:02:43Z</time>
      </trkpt>
      <trkpt lat="45.63633" lon="6.13795">
        <ele>1390.833404569</ele>
        <time>2016-08-10T16:02:53Z</time>
      </trkpt>
      <trkpt lat="45.63634" lon="6.13795">
        <ele>1388.133429188</ele>
        <time>2016-08-10T16:02:58Z</time>
      </trkpt>
      <trkpt lat="45.63633" lon="6.13795">
        <ele>1388.133429188</ele>
        <time>2016-08-10T16:03:08Z</time>
      </trkpt>
      <trkpt lat="45.63631" lon="6.138">
        <ele>1388.133429188</ele>
        <time>2016-08-10T16:03:13Z</time>
      </trkpt>
      <trkpt lat="45.63627" lon="6.13818">
        <ele>1384.850965659</ele>
        <time>2016-08-10T16:03:24Z</time>
      </trkpt>
      <trkpt lat="45.63625" lon="6.13826">
        <ele>1384.850965659</ele>
        <time>2016-08-10T16:03:28Z</time>
      </trkpt>
      <trkpt lat="45.63622" lon="6.1384">
        <ele>1381.61669109</ele>
        <time>2016-08-10T16:03:38Z</time>
      </trkpt>
      <trkpt lat="45.63618" lon="6.13846">
        <ele>1381.61669109</ele>
        <time>2016-08-10T16:03:44Z</time>
      </trkpt>
      <trkpt lat="45.6361" lon="6.13855">
        <ele>1378.006015838</ele>
        <time>2016-08-10T16:03:53Z</time>
      </trkpt>
      <trkpt lat="45.63606" lon="6.13859">
        <ele>1378.006015838</ele>
        <time>2016-08-10T16:03:59Z</time>
      </trkpt>
      <trkpt lat="45.63593" lon="6.13867">
        <ele>1374.347094971</ele>
        <time>2016-08-10T16:04:14Z</time>
      </trkpt>
      <trkpt lat="45.63591" lon="6.13871">
        <ele>1374.347094971</ele>
        <time>2016-08-10T16:04:18Z</time>
      </trkpt>
      <trkpt lat="45.6358" lon="6.13879">
        <ele>1370.511690108</ele>
        <time>2016-08-10T16:04:28Z</time>
      </trkpt>
      <trkpt lat="45.63574" lon="6.13884">
        <ele>1370.511690108</ele>
        <time>2016-08-10T16:04:33Z</time>
      </trkpt>
      <trkpt lat="45.63565" lon="6.13893">
        <ele>1366.525469585</ele>
        <time>2016-08-10T16:04:43Z</time>
      </trkpt>
      <trkpt lat="45.6356" lon="6.13897">
        <ele>1366.525469585</ele>
        <time>2016-08-10T16:04:49Z</time>
      </trkpt>
      <trkpt lat="45.63549" lon="6.13909">
        <ele>1362.844824308</ele>
        <time>2016-08-10T16:04:59Z</time>
      </trkpt>
      <trkpt lat="45.63545" lon="6.13914">
        <ele>1362.844824308</ele>
        <time>2016-08-10T16:05:04Z</time>
      </trkpt>
      <trkpt lat="45.6354" lon="6.1392">
        <ele>1359.603365469</ele>
        <time>2016-08-10T16:05:08Z</time>
      </trkpt>
      <trkpt lat="45.6353" lon="6.13933">
        <ele>1356.491127642</ele>
        <time>2016-08-10T16:05:18Z</time>
      </trkpt>
      <trkpt lat="45.63525" lon="6.13939">
        <ele>1356.491127642</ele>
        <time>2016-08-10T16:05:23Z</time>
      </trkpt>
      <trkpt lat="45.63514" lon="6.13947">
        <ele>1353.220338051</ele>
        <time>2016-08-10T16:05:33Z</time>
      </trkpt>
      <trkpt lat="45.63508" lon="6.1395">
        <ele>1353.220338051</ele>
        <time>2016-08-10T16:05:39Z</time>
      </trkpt>
      <trkpt lat="45.635" lon="6.13957">
        <ele>1350.245134721</ele>
        <time>2016-08-10T16:05:48Z</time>
      </trkpt>
      <trkpt lat="45.63496" lon="6.13959">
        <ele>1350.245134721</ele>
        <time>2016-08-10T16:05:53Z</time>
      </trkpt>
      <trkpt lat="45.63487" lon="6.1396">
        <ele>1347.841114168</ele>
        <time>2016-08-10T16:06:04Z</time>
      </trkpt>
      <trkpt lat="45.63483" lon="6.13958">
        <ele>1347.841114168</ele>
        <time>2016-08-10T16:06:08Z</time>
      </trkpt>
      <trkpt lat="45.63479" lon="6.13956">
        <ele>1347.841114168</ele>
        <time>2016-08-10T16:06:19Z</time>
      </trkpt>
      <trkpt lat="45.63473" lon="6.13958">
        <ele>1345.685332574</ele>
        <time>2016-08-10T16:06:24Z</time>
      </trkpt>
      <trkpt lat="45.6347" lon="6.13954">
        <ele>1345.685332574</ele>
        <time>2016-08-10T16:06:38Z</time>
      </trkpt>
      <trkpt lat="45.63471" lon="6.13955">
        <ele>1345.685332574</ele>
        <time>2016-08-10T16:06:44Z</time>
      </trkpt>
      <trkpt lat="45.63462" lon="6.13949">
        <ele>1344.918734376</ele>
        <time>2016-08-10T16:06:54Z</time>
      </trkpt>
      <trkpt lat="45.63457" lon="6.1395">
        <ele>1344.918734376</ele>
        <time>2016-08-10T16:06:58Z</time>
      </trkpt>
      <trkpt lat="45.63449" lon="6.13956">
        <ele>1344.144416427</ele>
        <time>2016-08-10T16:07:08Z</time>
      </trkpt>
      <trkpt lat="45.63445" lon="6.13954">
        <ele>1344.144416427</ele>
        <time>2016-08-10T16:07:13Z</time>
      </trkpt>
      <trkpt lat="45.63444" lon="6.13952">
        <ele>1344.144416427</ele>
        <time>2016-08-10T16:07:18Z</time>
      </trkpt>
      <trkpt lat="45.63443" lon="6.1395">
        <ele>1344.144416427</ele>
        <time>2016-08-10T16:07:23Z</time>
      </trkpt>
      <trkpt lat="45.63439" lon="6.13947">
        <ele>1343.797207444</ele>
        <time>2016-08-10T16:07:28Z</time>
      </trkpt>
      <trkpt lat="45.63435" lon="6.13943">
        <ele>1343.797207444</ele>
        <time>2016-08-10T16:07:38Z</time>
      </trkpt>
      <trkpt lat="45.63435" lon="6.13946">
        <ele>1343.797207444</ele>
        <time>2016-08-10T16:07:43Z</time>
      </trkpt>
      <trkpt lat="45.63435" lon="6.13946">
        <ele>1343.797207444</ele>
        <time>2016-08-10T16:07:53Z</time>
      </trkpt>
      <trkpt lat="45.63435" lon="6.13947">
        <ele>1343.797207444</ele>
        <time>2016-08-10T16:07:58Z</time>
      </trkpt>
      <trkpt lat="45.63433" lon="6.13944">
        <ele>1342.837455396</ele>
        <time>2016-08-10T16:08:09Z</time>
      </trkpt>
      <trkpt lat="45.6343" lon="6.13944">
        <ele>1342.837455396</ele>
        <time>2016-08-10T16:08:13Z</time>
      </trkpt>
      <trkpt lat="45.63422" lon="6.1394">
        <ele>1341.744494233</ele>
        <time>2016-08-10T16:08:23Z</time>
      </trkpt>
      <trkpt lat="45.6342" lon="6.13939">
        <ele>1341.744494233</ele>
        <time>2016-08-10T16:08:28Z</time>
      </trkpt>
      <trkpt lat="45.63411" lon="6.13925">
        <ele>1341.106727177</ele>
        <time>2016-08-10T16:08:39Z</time>
      </trkpt>
      <trkpt lat="45.63409" lon="6.13919">
        <ele>1341.106727177</ele>
        <time>2016-08-10T16:08:43Z</time>
      </trkpt>
      <trkpt lat="45.63401" lon="6.13912">
        <ele>1340.459086229</ele>
        <time>2016-08-10T16:08:54Z</time>
      </trkpt>
      <trkpt lat="45.63396" lon="6.13908">
        <ele>1340.459086229</ele>
        <time>2016-08-10T16:08:58Z</time>
      </trkpt>
      <trkpt lat="45.63384" lon="6.13895">
        <ele>1339.370512752</ele>
        <time>2016-08-10T16:09:08Z</time>
      </trkpt>
      <trkpt lat="45.63378" lon="6.1389">
        <ele>1339.370512752</ele>
        <time>2016-08-10T16:09:13Z</time>
      </trkpt>
      <trkpt lat="45.63367" lon="6.13888">
        <ele>1338.30734573</ele>
        <time>2016-08-10T16:09:23Z</time>
      </trkpt>
      <trkpt lat="45.63366" lon="6.13878">
        <ele>1338.30734573</ele>
        <time>2016-08-10T16:09:28Z</time>
      </trkpt>
      <trkpt lat="45.63363" lon="6.13876">
        <ele>1336.548543472</ele>
        <time>2016-08-10T16:09:39Z</time>
      </trkpt>
      <trkpt lat="45.63355" lon="6.1387">
        <ele>1336.548543472</ele>
        <time>2016-08-10T16:09:43Z</time>
      </trkpt>
      <trkpt lat="45.63339" lon="6.1388">
        <ele>1335.157161232</ele>
        <time>2016-08-10T16:09:53Z</time>
      </trkpt>
      <trkpt lat="45.63338" lon="6.13872">
        <ele>1335.157161232</ele>
        <time>2016-08-10T16:09:58Z</time>
      </trkpt>
      <trkpt lat="45.63337" lon="6.13873">
        <ele>1335.157161232</ele>
        <time>2016-08-10T16:10:03Z</time>
      </trkpt>
      <trkpt lat="45.63338" lon="6.13875">
        <ele>1335.157161232</ele>
        <time>2016-08-10T16:10:08Z</time>
      </trkpt>
      <trkpt lat="45.63338" lon="6.13875">
        <ele>1335.157161232</ele>
        <time>2016-08-10T16:10:13Z</time>
      </trkpt>
      <trkpt lat="45.63338" lon="6.13874">
        <ele>1334.684650116</ele>
        <time>2016-08-10T16:10:18Z</time>
      </trkpt>
      <trkpt lat="45.63339" lon="6.13871">
        <ele>1334.684650116</ele>
        <time>2016-08-10T16:10:23Z</time>
      </trkpt>
      <trkpt lat="45.63337" lon="6.13871">
        <ele>1334.684650116</ele>
        <time>2016-08-10T16:10:28Z</time>
      </trkpt>
      <trkpt lat="45.63331" lon="6.13866">
        <ele>1333.333453365</ele>
        <time>2016-08-10T16:10:38Z</time>
      </trkpt>
      <trkpt lat="45.63325" lon="6.13862">
        <ele>1333.333453365</ele>
        <time>2016-08-10T16:10:43Z</time>
      </trkpt>
      <trkpt lat="45.63309" lon="6.13835">
        <ele>1332.178503691</ele>
        <time>2016-08-10T16:10:53Z</time>
      </trkpt>
      <trkpt lat="45.63307" lon="6.13825">
        <ele>1332.178503691</ele>
        <time>2016-08-10T16:10:59Z</time>
      </trkpt>
      <trkpt lat="45.63303" lon="6.13831">
        <ele>1330.053422777</ele>
        <time>2016-08-10T16:11:08Z</time>
      </trkpt>
      <trkpt lat="45.63298" lon="6.13818">
        <ele>1327.897667066</ele>
        <time>2016-08-10T16:11:14Z</time>
      </trkpt>
      <trkpt lat="45.63294" lon="6.13813">
        <ele>1327.897667066</ele>
        <time>2016-08-10T16:11:23Z</time>
      </trkpt>
      <trkpt lat="45.63291" lon="6.13808">
        <ele>1325.284643019</ele>
        <time>2016-08-10T16:11:28Z</time>
      </trkpt>
      <trkpt lat="45.63284" lon="6.13795">
        <ele>1322.684919474</ele>
        <time>2016-08-10T16:11:38Z</time>
      </trkpt>
      <trkpt lat="45.63278" lon="6.13791">
        <ele>1322.684919474</ele>
        <time>2016-08-10T16:11:43Z</time>
      </trkpt>
      <trkpt lat="45.63273" lon="6.13791">
        <ele>1320.678444809</ele>
        <time>2016-08-10T16:11:54Z</time>
      </trkpt>
      <trkpt lat="45.63267" lon="6.1379">
        <ele>1320.678444809</ele>
        <time>2016-08-10T16:11:59Z</time>
      </trkpt>
      <trkpt lat="45.63257" lon="6.13787">
        <ele>1318.359660182</ele>
        <time>2016-08-10T16:12:08Z</time>
      </trkpt>
      <trkpt lat="45.63252" lon="6.13789">
        <ele>1318.359660182</ele>
        <time>2016-08-10T16:12:14Z</time>
      </trkpt>
      <trkpt lat="45.6324" lon="6.13778">
        <ele>1315.89905267</ele>
        <time>2016-08-10T16:12:23Z</time>
      </trkpt>
      <trkpt lat="45.63236" lon="6.13775">
        <ele>1315.89905267</ele>
        <time>2016-08-10T16:12:28Z</time>
      </trkpt>
      <trkpt lat="45.6323" lon="6.13766">
        <ele>1313.887186757</ele>
        <time>2016-08-10T16:12:38Z</time>
      </trkpt>
      <trkpt lat="45.63227" lon="6.13768">
        <ele>1313.887186757</ele>
        <time>2016-08-10T16:12:43Z</time>
      </trkpt>
      <trkpt lat="45.63227" lon="6.13764">
        <ele>1313.887186757</ele>
        <time>2016-08-10T16:12:48Z</time>
      </trkpt>
      <trkpt lat="45.63219" lon="6.13742">
        <ele>1312.293412543</ele>
        <time>2016-08-10T16:12:58Z</time>
      </trkpt>
      <trkpt lat="45.63214" lon="6.1374">
        <ele>1312.293412543</ele>
        <time>2016-08-10T16:13:03Z</time>
      </trkpt>
      <trkpt lat="45.63219" lon="6.13745">
        <ele>1309.502808288</ele>
        <time>2016-08-10T16:13:14Z</time>
      </trkpt>
      <trkpt lat="45.63221" lon="6.13751">
        <ele>1309.502808288</ele>
        <time>2016-08-10T16:13:18Z</time>
      </trkpt>
      <trkpt lat="45.63222" lon="6.13739">
        <ele>1306.47220363</ele>
        <time>2016-08-10T16:13:33Z</time>
      </trkpt>
      <trkpt lat="45.63221" lon="6.13745">
        <ele>1306.47220363</ele>
        <time>2016-08-10T16:13:38Z</time>
      </trkpt>
      <trkpt lat="45.63219" lon="6.13742">
        <ele>1306.47220363</ele>
        <time>2016-08-10T16:13:43Z</time>
      </trkpt>
      <trkpt lat="45.63219" lon="6.13741">
        <ele>1306.47220363</ele>
        <time>2016-08-10T16:13:48Z</time>
      </trkpt>
      <trkpt lat="45.63219" lon="6.13741">
        <ele>1306.47220363</ele>
        <time>2016-08-10T16:13:53Z</time>
      </trkpt>
      <trkpt lat="45.63219" lon="6.13741">
        <ele>1306.47220363</ele>
        <time>2016-08-10T16:13:58Z</time>
      </trkpt>
      <trkpt lat="45.63219" lon="6.13741">
        <ele>1306.47220363</ele>
        <time>2016-08-10T16:14:08Z</time>
      </trkpt>
      <trkpt lat="45.63229" lon="6.13745">
        <ele>1304.23279832</ele>
        <time>2016-08-10T16:14:13Z</time>
      </trkpt>
      <trkpt lat="45.63229" lon="6.13743">
        <ele>1304.23279832</ele>
        <time>2016-08-10T16:14:23Z</time>
      </trkpt>
      <trkpt lat="45.63225" lon="6.13738">
        <ele>1304.23279832</ele>
        <time>2016-08-10T16:14:28Z</time>
      </trkpt>
      <trkpt lat="45.63216" lon="6.13726">
        <ele>1302.296583904</ele>
        <time>2016-08-10T16:14:39Z</time>
      </trkpt>
      <trkpt lat="45.63211" lon="6.13723">
        <ele>1302.296583904</ele>
        <time>2016-08-10T16:14:44Z</time>
      </trkpt>
      <trkpt lat="45.63203" lon="6.13722">
        <ele>1299.922202227</ele>
        <time>2016-08-10T16:14:48Z</time>
      </trkpt>
      <trkpt lat="45.63197" lon="6.13707">
        <ele>1297.864972326</ele>
        <time>2016-08-10T16:14:59Z</time>
      </trkpt>
      <trkpt lat="45.63194" lon="6.13701">
        <ele>1297.864972326</ele>
        <time>2016-08-10T16:15:03Z</time>
      </trkpt>
      <trkpt lat="45.63187" lon="6.13699">
        <ele>1295.526717505</ele>
        <time>2016-08-10T16:15:13Z</time>
      </trkpt>
      <trkpt lat="45.63181" lon="6.13696">
        <ele>1295.526717505</ele>
        <time>2016-08-10T16:15:19Z</time>
      </trkpt>
      <trkpt lat="45.63175" lon="6.13687">
        <ele>1292.065649708</ele>
        <time>2016-08-10T16:15:28Z</time>
      </trkpt>
      <trkpt lat="45.63174" lon="6.13688">
        <ele>1292.065649708</ele>
        <time>2016-08-10T16:15:34Z</time>
      </trkpt>
      <trkpt lat="45.63172" lon="6.13689">
        <ele>1292.065649708</ele>
        <time>2016-08-10T16:15:43Z</time>
      </trkpt>
      <trkpt lat="45.63171" lon="6.13689">
        <ele>1292.065649708</ele>
        <time>2016-08-10T16:15:48Z</time>
      </trkpt>
      <trkpt lat="45.63171" lon="6.13689">
        <ele>1292.065649708</ele>
        <time>2016-08-10T16:15:59Z</time>
      </trkpt>
      <trkpt lat="45.63171" lon="6.13689">
        <ele>1292.065649708</ele>
        <time>2016-08-10T16:16:03Z</time>
      </trkpt>
      <trkpt lat="45.63171" lon="6.13689">
        <ele>1292.065649708</ele>
        <time>2016-08-10T16:16:13Z</time>
      </trkpt>
      <trkpt lat="45.63171" lon="6.13689">
        <ele>1292.065649708</ele>
        <time>2016-08-10T16:16:18Z</time>
      </trkpt>
      <trkpt lat="45.63178" lon="6.13689">
        <ele>1289.875296108</ele>
        <time>2016-08-10T16:16:35Z</time>
      </trkpt>
      <trkpt lat="45.63172" lon="6.13686">
        <ele>1289.875296108</ele>
        <time>2016-08-10T16:16:43Z</time>
      </trkpt>
      <trkpt lat="45.63172" lon="6.13685">
        <ele>1289.875296108</ele>
        <time>2016-08-10T16:16:48Z</time>
      </trkpt>
      <trkpt lat="45.63172" lon="6.13685">
        <ele>1289.875296108</ele>
        <time>2016-08-10T16:16:55Z</time>
      </trkpt>
      <trkpt lat="45.63164" lon="6.13679">
        <ele>1287.711007667</ele>
        <time>2016-08-10T16:17:03Z</time>
      </trkpt>
      <trkpt lat="45.63157" lon="6.13677">
        <ele>1287.711007667</ele>
        <time>2016-08-10T16:17:08Z</time>
      </trkpt>
      <trkpt lat="45.63145" lon="6.1366">
        <ele>1284.995822155</ele>
        <time>2016-08-10T16:17:23Z</time>
      </trkpt>
      <trkpt lat="45.63144" lon="6.1366">
        <ele>1284.995822155</ele>
        <time>2016-08-10T16:17:28Z</time>
      </trkpt>
      <trkpt lat="45.63144" lon="6.13663">
        <ele>1284.995822155</ele>
        <time>2016-08-10T16:17:39Z</time>
      </trkpt>
      <trkpt lat="45.63144" lon="6.13661">
        <ele>1284.995822155</ele>
        <time>2016-08-10T16:17:43Z</time>
      </trkpt>
      <trkpt lat="45.63144" lon="6.13661">
        <ele>1284.995822155</ele>
        <time>2016-08-10T16:17:54Z</time>
      </trkpt>
      <trkpt lat="45.63144" lon="6.13661">
        <ele>1284.995822155</ele>
        <time>2016-08-10T16:17:58Z</time>
      </trkpt>
      <trkpt lat="45.63137" lon="6.13647">
        <ele>1282.781814956</ele>
        <time>2016-08-10T16:18:08Z</time>
      </trkpt>
      <trkpt lat="45.63129" lon="6.1364">
        <ele>1279.880591504</ele>
        <time>2016-08-10T16:18:23Z</time>
      </trkpt>
      <trkpt lat="45.63129" lon="6.1364">
        <ele>1279.880591504</ele>
        <time>2016-08-10T16:18:28Z</time>
      </trkpt>
      <trkpt lat="45.63126" lon="6.13615">
        <ele>1276.77809616</ele>
        <time>2016-08-10T16:18:39Z</time>
      </trkpt>
      <trkpt lat="45.63123" lon="6.1361">
        <ele>1276.77809616</ele>
        <time>2016-08-10T16:18:43Z</time>
      </trkpt>
      <trkpt lat="45.6312" lon="6.13604">
        <ele>1274.501476278</ele>
        <time>2016-08-10T16:18:48Z</time>
      </trkpt>
      <trkpt lat="45.63118" lon="6.13598">
        <ele>1274.501476278</ele>
        <time>2016-08-10T16:18:53Z</time>
      </trkpt>
      <trkpt lat="45.63114" lon="6.13596">
        <ele>1274.501476278</ele>
        <time>2016-08-10T16:18:58Z</time>
      </trkpt>
      <trkpt lat="45.63112" lon="6.13594">
        <ele>1271.694221669</ele>
        <time>2016-08-10T16:19:13Z</time>
      </trkpt>
      <trkpt lat="45.6311" lon="6.13588">
        <ele>1271.694221669</ele>
        <time>2016-08-10T16:19:28Z</time>
      </trkpt>
      <trkpt lat="45.63101" lon="6.13579">
        <ele>1268.253739629</ele>
        <time>2016-08-10T16:19:43Z</time>
      </trkpt>
      <trkpt lat="45.63096" lon="6.13572">
        <ele>1268.253739629</ele>
        <time>2016-08-10T16:19:48Z</time>
      </trkpt>
      <trkpt lat="45.63082" lon="6.13545">
        <ele>1264.374862257</ele>
        <time>2016-08-10T16:19:59Z</time>
      </trkpt>
      <trkpt lat="45.63074" lon="6.13554">
        <ele>1260.671559901</ele>
        <time>2016-08-10T16:20:03Z</time>
      </trkpt>
      <trkpt lat="45.63064" lon="6.13544">
        <ele>1257.567980889</ele>
        <time>2016-08-10T16:20:13Z</time>
      </trkpt>
      <trkpt lat="45.63065" lon="6.13544">
        <ele>1257.567980889</ele>
        <time>2016-08-10T16:20:19Z</time>
      </trkpt>
      <trkpt lat="45.6306" lon="6.13535">
        <ele>1257.567980889</ele>
        <time>2016-08-10T16:20:28Z</time>
      </trkpt>
      <trkpt lat="45.63059" lon="6.13534">
        <ele>1254.302423899</ele>
        <time>2016-08-10T16:20:33Z</time>
      </trkpt>
      <trkpt lat="45.63057" lon="6.13532">
        <ele>1254.302423899</ele>
        <time>2016-08-10T16:20:43Z</time>
      </trkpt>
      <trkpt lat="45.63056" lon="6.13529">
        <ele>1254.302423899</ele>
        <time>2016-08-10T16:20:48Z</time>
      </trkpt>
      <trkpt lat="45.63051" lon="6.13518">
        <ele>1250.457694853</ele>
        <time>2016-08-10T16:20:59Z</time>
      </trkpt>
      <trkpt lat="45.6305" lon="6.13515">
        <ele>1250.457694853</ele>
        <time>2016-08-10T16:21:03Z</time>
      </trkpt>
      <trkpt lat="45.63048" lon="6.13515">
        <ele>1250.457694853</ele>
        <time>2016-08-10T16:21:08Z</time>
      </trkpt>
      <trkpt lat="45.63048" lon="6.13513">
        <ele>1250.457694853</ele>
        <time>2016-08-10T16:21:19Z</time>
      </trkpt>
      <trkpt lat="45.63047" lon="6.13511">
        <ele>1250.457694853</ele>
        <time>2016-08-10T16:21:23Z</time>
      </trkpt>
      <trkpt lat="45.63046" lon="6.13502">
        <ele>1246.657523441</ele>
        <time>2016-08-10T16:21:33Z</time>
      </trkpt>
      <trkpt lat="45.63041" lon="6.13494">
        <ele>1246.657523441</ele>
        <time>2016-08-10T16:21:38Z</time>
      </trkpt>
      <trkpt lat="45.63038" lon="6.13484">
        <ele>1242.470788286</ele>
        <time>2016-08-10T16:21:48Z</time>
      </trkpt>
      <trkpt lat="45.63038" lon="6.13484">
        <ele>1242.470788286</ele>
        <time>2016-08-10T16:21:54Z</time>
      </trkpt>
      <trkpt lat="45.63036" lon="6.13476">
        <ele>1242.470788286</ele>
        <time>2016-08-10T16:22:03Z</time>
      </trkpt>
      <trkpt lat="45.63033" lon="6.1347">
        <ele>1238.075433293</ele>
        <time>2016-08-10T16:22:08Z</time>
      </trkpt>
      <trkpt lat="45.63027" lon="6.13452">
        <ele>1234.069110734</ele>
        <time>2016-08-10T16:22:18Z</time>
      </trkpt>
      <trkpt lat="45.63024" lon="6.13441">
        <ele>1234.069110734</ele>
        <time>2016-08-10T16:22:23Z</time>
      </trkpt>
      <trkpt lat="45.63029" lon="6.13432">
        <ele>1230.427890798</ele>
        <time>2016-08-10T16:22:33Z</time>
      </trkpt>
      <trkpt lat="45.63033" lon="6.13426">
        <ele>1230.427890798</ele>
        <time>2016-08-10T16:22:39Z</time>
      </trkpt>
      <trkpt lat="45.63037" lon="6.13417">
        <ele>1226.407874881</ele>
        <time>2016-08-10T16:22:48Z</time>
      </trkpt>
      <trkpt lat="45.63036" lon="6.13417">
        <ele>1226.407874881</ele>
        <time>2016-08-10T16:22:53Z</time>
      </trkpt>
      <trkpt lat="45.63037" lon="6.13416">
        <ele>1226.407874881</ele>
        <time>2016-08-10T16:22:58Z</time>
      </trkpt>
      <trkpt lat="45.63037" lon="6.13412">
        <ele>1226.407874881</ele>
        <time>2016-08-10T16:23:03Z</time>
      </trkpt>
      <trkpt lat="45.63038" lon="6.13394">
        <ele>1223.050059644</ele>
        <time>2016-08-10T16:23:19Z</time>
      </trkpt>
      <trkpt lat="45.63038" lon="6.13379">
        <ele>1219.731743381</ele>
        <time>2016-08-10T16:23:23Z</time>
      </trkpt>
      <trkpt lat="45.63038" lon="6.13371">
        <ele>1219.731743381</ele>
        <time>2016-08-10T16:23:33Z</time>
      </trkpt>
      <trkpt lat="45.63038" lon="6.13364">
        <ele>1216.019822886</ele>
        <time>2016-08-10T16:23:38Z</time>
      </trkpt>
      <trkpt lat="45.63038" lon="6.13354">
        <ele>1216.019822886</ele>
        <time>2016-08-10T16:23:48Z</time>
      </trkpt>
      <trkpt lat="45.63037" lon="6.13349">
        <ele>1212.234527552</ele>
        <time>2016-08-10T16:23:53Z</time>
      </trkpt>
      <trkpt lat="45.63036" lon="6.13338">
        <ele>1212.234527552</ele>
        <time>2016-08-10T16:24:04Z</time>
      </trkpt>
      <trkpt lat="45.63036" lon="6.13332">
        <ele>1207.231514628</ele>
        <time>2016-08-10T16:24:08Z</time>
      </trkpt>
      <trkpt lat="45.63029" lon="6.13317">
        <ele>1202.836000436</ele>
        <time>2016-08-10T16:24:18Z</time>
      </trkpt>
      <trkpt lat="45.63023" lon="6.13313">
        <ele>1202.836000436</ele>
        <time>2016-08-10T16:24:23Z</time>
      </trkpt>
      <trkpt lat="45.63013" lon="6.13297">
        <ele>1199.296162037</ele>
        <time>2016-08-10T16:24:39Z</time>
      </trkpt>
      <trkpt lat="45.63009" lon="6.13293">
        <ele>1199.296162037</ele>
        <time>2016-08-10T16:24:44Z</time>
      </trkpt>
      <trkpt lat="45.63005" lon="6.13285">
        <ele>1196.551179484</ele>
        <time>2016-08-10T16:24:53Z</time>
      </trkpt>
      <trkpt lat="45.63004" lon="6.13283">
        <ele>1196.551179484</ele>
        <time>2016-08-10T16:24:59Z</time>
      </trkpt>
      <trkpt lat="45.63" lon="6.13279">
        <ele>1196.551179484</ele>
        <time>2016-08-10T16:25:03Z</time>
      </trkpt>
      <trkpt lat="45.62998" lon="6.13277">
        <ele>1196.551179484</ele>
        <time>2016-08-10T16:25:08Z</time>
      </trkpt>
      <trkpt lat="45.62993" lon="6.13269">
        <ele>1193.245329557</ele>
        <time>2016-08-10T16:25:13Z</time>
      </trkpt>
      <trkpt lat="45.62988" lon="6.13248">
        <ele>1190.285586585</ele>
        <time>2016-08-10T16:25:24Z</time>
      </trkpt>
      <trkpt lat="45.62987" lon="6.13241">
        <ele>1190.285586585</ele>
        <time>2016-08-10T16:25:28Z</time>
      </trkpt>
      <trkpt lat="45.6299" lon="6.13237">
        <ele>1187.934759315</ele>
        <time>2016-08-10T16:25:44Z</time>
      </trkpt>
      <trkpt lat="45.62994" lon="6.13234">
        <ele>1187.934759315</ele>
        <time>2016-08-10T16:25:48Z</time>
      </trkpt>
      <trkpt lat="45.62993" lon="6.13234">
        <ele>1187.934759315</ele>
        <time>2016-08-10T16:25:58Z</time>
      </trkpt>
      <trkpt lat="45.63001" lon="6.13236">
        <ele>1187.155087822</ele>
        <time>2016-08-10T16:26:04Z</time>
      </trkpt>
      <trkpt lat="45.63008" lon="6.13238">
        <ele>1187.155087822</ele>
        <time>2016-08-10T16:26:13Z</time>
      </trkpt>
      <trkpt lat="45.63013" lon="6.13237">
        <ele>1186.816069157</ele>
        <time>2016-08-10T16:26:18Z</time>
      </trkpt>
      <trkpt lat="45.63024" lon="6.13229">
        <ele>1186.733605682</ele>
        <time>2016-08-10T16:26:28Z</time>
      </trkpt>
      <trkpt lat="45.63028" lon="6.13228">
        <ele>1186.733605682</ele>
        <time>2016-08-10T16:26:33Z</time>
      </trkpt>
      <trkpt lat="45.63026" lon="6.13213">
        <ele>1185.295243801</ele>
        <time>2016-08-10T16:26:44Z</time>
      </trkpt>
      <trkpt lat="45.63021" lon="6.13209">
        <ele>1185.295243801</ele>
        <time>2016-08-10T16:26:48Z</time>
      </trkpt>
      <trkpt lat="45.63019" lon="6.13192">
        <ele>1183.89298204</ele>
        <time>2016-08-10T16:26:59Z</time>
      </trkpt>
      <trkpt lat="45.63019" lon="6.1319">
        <ele>1183.89298204</ele>
        <time>2016-08-10T16:27:04Z</time>
      </trkpt>
      <trkpt lat="45.63013" lon="6.13171">
        <ele>1181.510677228</ele>
        <time>2016-08-10T16:27:13Z</time>
      </trkpt>
      <trkpt lat="45.6301" lon="6.13159">
        <ele>1179.803590037</ele>
        <time>2016-08-10T16:27:18Z</time>
      </trkpt>
      <trkpt lat="45.63003" lon="6.13148">
        <ele>1178.862401006</ele>
        <time>2016-08-10T16:27:28Z</time>
      </trkpt>
      <trkpt lat="45.63001" lon="6.13142">
        <ele>1178.862401006</ele>
        <time>2016-08-10T16:27:33Z</time>
      </trkpt>
      <trkpt lat="45.62998" lon="6.13127">
        <ele>1177.904345407</ele>
        <time>2016-08-10T16:27:43Z</time>
      </trkpt>
      <trkpt lat="45.62993" lon="6.1312">
        <ele>1177.904345407</ele>
        <time>2016-08-10T16:27:48Z</time>
      </trkpt>
      <trkpt lat="45.62991" lon="6.13109">
        <ele>1178.077698078</ele>
        <time>2016-08-10T16:27:58Z</time>
      </trkpt>
      <trkpt lat="45.62991" lon="6.13109">
        <ele>1178.077698078</ele>
        <time>2016-08-10T16:28:04Z</time>
      </trkpt>
      <trkpt lat="45.6299" lon="6.13109">
        <ele>1178.077698078</ele>
        <time>2016-08-10T16:28:18Z</time>
      </trkpt>
      <trkpt lat="45.6299" lon="6.13109">
        <ele>1178.077698078</ele>
        <time>2016-08-10T16:28:23Z</time>
      </trkpt>
      <trkpt lat="45.62989" lon="6.13106">
        <ele>1178.077698078</ele>
        <time>2016-08-10T16:28:29Z</time>
      </trkpt>
      <trkpt lat="45.62986" lon="6.13105">
        <ele>1178.077698078</ele>
        <time>2016-08-10T16:28:33Z</time>
      </trkpt>
      <trkpt lat="45.62983" lon="6.13094">
        <ele>1177.849269024</ele>
        <time>2016-08-10T16:28:38Z</time>
      </trkpt>
      <trkpt lat="45.62974" lon="6.13081">
        <ele>1177.81725838</ele>
        <time>2016-08-10T16:28:49Z</time>
      </trkpt>
      <trkpt lat="45.6297" lon="6.13075">
        <ele>1177.81725838</ele>
        <time>2016-08-10T16:28:53Z</time>
      </trkpt>
      <trkpt lat="45.62964" lon="6.13059">
        <ele>1177.382579096</ele>
        <time>2016-08-10T16:29:04Z</time>
      </trkpt>
      <trkpt lat="45.62962" lon="6.13048">
        <ele>1177.382579096</ele>
        <time>2016-08-10T16:29:08Z</time>
      </trkpt>
      <trkpt lat="45.62959" lon="6.1303">
        <ele>1176.856061876</ele>
        <time>2016-08-10T16:29:18Z</time>
      </trkpt>
      <trkpt lat="45.62959" lon="6.13025">
        <ele>1176.856061876</ele>
        <time>2016-08-10T16:29:24Z</time>
      </trkpt>
      <trkpt lat="45.62957" lon="6.13009">
        <ele>1176.381976417</ele>
        <time>2016-08-10T16:29:33Z</time>
      </trkpt>
      <trkpt lat="45.62958" lon="6.13001">
        <ele>1176.381976417</ele>
        <time>2016-08-10T16:29:39Z</time>
      </trkpt>
      <trkpt lat="45.6295" lon="6.12976">
        <ele>1176.526319254</ele>
        <time>2016-08-10T16:29:49Z</time>
      </trkpt>
      <trkpt lat="45.62957" lon="6.12965">
        <ele>1177.09136883</ele>
        <time>2016-08-10T16:29:53Z</time>
      </trkpt>
      <trkpt lat="45.62952" lon="6.12953">
        <ele>1179.045802469</ele>
        <time>2016-08-10T16:30:04Z</time>
      </trkpt>
      <trkpt lat="45.62945" lon="6.12932">
        <ele>1180.977645192</ele>
        <time>2016-08-10T16:30:08Z</time>
      </trkpt>
      <trkpt lat="45.62939" lon="6.1293">
        <ele>1180.977645192</ele>
        <time>2016-08-10T16:30:13Z</time>
      </trkpt>
      <trkpt lat="45.62927" lon="6.12927">
        <ele>1181.146574006</ele>
        <time>2016-08-10T16:30:23Z</time>
      </trkpt>
      <trkpt lat="45.62923" lon="6.12927">
        <ele>1181.146574006</ele>
        <time>2016-08-10T16:30:28Z</time>
      </trkpt>
      <trkpt lat="45.62912" lon="6.12926">
        <ele>1180.971603511</ele>
        <time>2016-08-10T16:30:38Z</time>
      </trkpt>
      <trkpt lat="45.62907" lon="6.12918">
        <ele>1180.971603511</ele>
        <time>2016-08-10T16:30:44Z</time>
      </trkpt>
      <trkpt lat="45.629" lon="6.12894">
        <ele>1179.895252022</ele>
        <time>2016-08-10T16:30:59Z</time>
      </trkpt>
      <trkpt lat="45.62889" lon="6.12897">
        <ele>1179.133080181</ele>
        <time>2016-08-10T16:31:03Z</time>
      </trkpt>
      <trkpt lat="45.62886" lon="6.12895">
        <ele>1179.133080181</ele>
        <time>2016-08-10T16:31:08Z</time>
      </trkpt>
      <trkpt lat="45.6288" lon="6.12891">
        <ele>1178.946032139</ele>
        <time>2016-08-10T16:31:13Z</time>
      </trkpt>
      <trkpt lat="45.62875" lon="6.12882">
        <ele>1178.946032139</ele>
        <time>2016-08-10T16:31:18Z</time>
      </trkpt>
      <trkpt lat="45.62864" lon="6.12882">
        <ele>1179.142160666</ele>
        <time>2016-08-10T16:31:24Z</time>
      </trkpt>
      <trkpt lat="45.62836" lon="6.12869">
        <ele>1179.398655818</ele>
        <time>2016-08-10T16:31:39Z</time>
      </trkpt>
      <trkpt lat="45.62832" lon="6.12871">
        <ele>1179.398655818</ele>
        <time>2016-08-10T16:31:43Z</time>
      </trkpt>
      <trkpt lat="45.62811" lon="6.12876">
        <ele>1179.416474969</ele>
        <time>2016-08-10T16:31:53Z</time>
      </trkpt>
      <trkpt lat="45.62808" lon="6.12878">
        <ele>1179.416474969</ele>
        <time>2016-08-10T16:31:58Z</time>
      </trkpt>
      <trkpt lat="45.628" lon="6.12855">
        <ele>1180.504661313</ele>
        <time>2016-08-10T16:32:08Z</time>
      </trkpt>
      <trkpt lat="45.62791" lon="6.12863">
        <ele>1182.143990102</ele>
        <time>2016-08-10T16:32:13Z</time>
      </trkpt>
      <trkpt lat="45.62788" lon="6.1285">
        <ele>1182.555065961</ele>
        <time>2016-08-10T16:32:24Z</time>
      </trkpt>
      <trkpt lat="45.62777" lon="6.12856">
        <ele>1182.39866822</ele>
        <time>2016-08-10T16:32:28Z</time>
      </trkpt>
      <trkpt lat="45.62761" lon="6.12857">
        <ele>1182.577089067</ele>
        <time>2016-08-10T16:32:38Z</time>
      </trkpt>
      <trkpt lat="45.62756" lon="6.1285">
        <ele>1182.577089067</ele>
        <time>2016-08-10T16:32:44Z</time>
      </trkpt>
      <trkpt lat="45.62748" lon="6.1284">
        <ele>1183.060970813</ele>
        <time>2016-08-10T16:32:53Z</time>
      </trkpt>
      <trkpt lat="45.62745" lon="6.12837">
        <ele>1183.060970813</ele>
        <time>2016-08-10T16:32:58Z</time>
      </trkpt>
      <trkpt lat="45.62732" lon="6.12837">
        <ele>1182.669599685</ele>
        <time>2016-08-10T16:33:08Z</time>
      </trkpt>
      <trkpt lat="45.62727" lon="6.12837">
        <ele>1182.669599685</ele>
        <time>2016-08-10T16:33:13Z</time>
      </trkpt>
      <trkpt lat="45.6271" lon="6.12843">
        <ele>1182.761570333</ele>
        <time>2016-08-10T16:33:24Z</time>
      </trkpt>
      <trkpt lat="45.62701" lon="6.12852">
        <ele>1182.432875147</ele>
        <time>2016-08-10T16:33:28Z</time>
      </trkpt>
      <trkpt lat="45.62701" lon="6.12844">
        <ele>1182.432875147</ele>
        <time>2016-08-10T16:33:33Z</time>
      </trkpt>
      <trkpt lat="45.62688" lon="6.1285">
        <ele>1182.576644912</ele>
        <time>2016-08-10T16:33:44Z</time>
      </trkpt>
      <trkpt lat="45.62683" lon="6.12857">
        <ele>1182.576644912</ele>
        <time>2016-08-10T16:33:49Z</time>
      </trkpt>
      <trkpt lat="45.62673" lon="6.12859">
        <ele>1181.569393836</ele>
        <time>2016-08-10T16:33:58Z</time>
      </trkpt>
      <trkpt lat="45.62672" lon="6.12853">
        <ele>1181.569393836</ele>
        <time>2016-08-10T16:34:03Z</time>
      </trkpt>
      <trkpt lat="45.62673" lon="6.12852">
        <ele>1181.569393836</ele>
        <time>2016-08-10T16:34:08Z</time>
      </trkpt>
      <trkpt lat="45.62669" lon="6.12856">
        <ele>1180.792547016</ele>
        <time>2016-08-10T16:34:13Z</time>
      </trkpt>
      <trkpt lat="45.62668" lon="6.12856">
        <ele>1180.792547016</ele>
        <time>2016-08-10T16:34:18Z</time>
      </trkpt>
      <trkpt lat="45.62651" lon="6.12862">
        <ele>1179.075700551</ele>
        <time>2016-08-10T16:34:33Z</time>
      </trkpt>
      <trkpt lat="45.62647" lon="6.12862">
        <ele>1179.075700551</ele>
        <time>2016-08-10T16:34:38Z</time>
      </trkpt>
      <trkpt lat="45.62637" lon="6.12858">
        <ele>1177.354792387</ele>
        <time>2016-08-10T16:34:48Z</time>
      </trkpt>
      <trkpt lat="45.6263" lon="6.12863">
        <ele>1177.354792387</ele>
        <time>2016-08-10T16:34:53Z</time>
      </trkpt>
      <trkpt lat="45.62619" lon="6.1286">
        <ele>1175.776617229</ele>
        <time>2016-08-10T16:35:04Z</time>
      </trkpt>
      <trkpt lat="45.62609" lon="6.12846">
        <ele>1173.61225527</ele>
        <time>2016-08-10T16:35:20Z</time>
      </trkpt>
      <trkpt lat="45.62606" lon="6.12833">
        <ele>1171.485094968</ele>
        <time>2016-08-10T16:35:23Z</time>
      </trkpt>
      <trkpt lat="45.62601" lon="6.12819">
        <ele>1170.116837665</ele>
        <time>2016-08-10T16:35:33Z</time>
      </trkpt>
      <trkpt lat="45.62598" lon="6.12812">
        <ele>1170.116837665</ele>
        <time>2016-08-10T16:35:39Z</time>
      </trkpt>
      <trkpt lat="45.62583" lon="6.12796">
        <ele>1168.733011797</ele>
        <time>2016-08-10T16:35:49Z</time>
      </trkpt>
      <trkpt lat="45.6258" lon="6.12796">
        <ele>1168.733011797</ele>
        <time>2016-08-10T16:35:53Z</time>
      </trkpt>
      <trkpt lat="45.62567" lon="6.12796">
        <ele>1166.472037914</ele>
        <time>2016-08-10T16:36:03Z</time>
      </trkpt>
      <trkpt lat="45.6256" lon="6.12798">
        <ele>1166.472037914</ele>
        <time>2016-08-10T16:36:09Z</time>
      </trkpt>
      <trkpt lat="45.62547" lon="6.12808">
        <ele>1164.988032211</ele>
        <time>2016-08-10T16:36:24Z</time>
      </trkpt>
      <trkpt lat="45.62544" lon="6.12814">
        <ele>1164.988032211</ele>
        <time>2016-08-10T16:36:28Z</time>
      </trkpt>
      <trkpt lat="45.62536" lon="6.12826">
        <ele>1163.073349715</ele>
        <time>2016-08-10T16:36:38Z</time>
      </trkpt>
      <trkpt lat="45.6253" lon="6.12834">
        <ele>1163.073349715</ele>
        <time>2016-08-10T16:36:44Z</time>
      </trkpt>
      <trkpt lat="45.62523" lon="6.12837">
        <ele>1160.619071885</ele>
        <time>2016-08-10T16:36:53Z</time>
      </trkpt>
      <trkpt lat="45.62522" lon="6.12836">
        <ele>1160.619071885</ele>
        <time>2016-08-10T16:36:58Z</time>
      </trkpt>
      <trkpt lat="45.62511" lon="6.12835">
        <ele>1157.814029809</ele>
        <time>2016-08-10T16:37:09Z</time>
      </trkpt>
      <trkpt lat="45.6251" lon="6.12829">
        <ele>1157.814029809</ele>
        <time>2016-08-10T16:37:13Z</time>
      </trkpt>
      <trkpt lat="45.625" lon="6.12816">
        <ele>1154.978275732</ele>
        <time>2016-08-10T16:37:24Z</time>
      </trkpt>
      <trkpt lat="45.62496" lon="6.1281">
        <ele>1154.978275732</ele>
        <time>2016-08-10T16:37:28Z</time>
      </trkpt>
      <trkpt lat="45.62489" lon="6.12803">
        <ele>1152.264307324</ele>
        <time>2016-08-10T16:37:38Z</time>
      </trkpt>
      <trkpt lat="45.62483" lon="6.12793">
        <ele>1149.957155216</ele>
        <time>2016-08-10T16:37:44Z</time>
      </trkpt>
      <trkpt lat="45.62475" lon="6.12772">
        <ele>1148.463835098</ele>
        <time>2016-08-10T16:37:58Z</time>
      </trkpt>
      <trkpt lat="45.62472" lon="6.12763">
        <ele>1148.463835098</ele>
        <time>2016-08-10T16:38:03Z</time>
      </trkpt>
      <trkpt lat="45.62475" lon="6.12749">
        <ele>1147.438569507</ele>
        <time>2016-08-10T16:38:13Z</time>
      </trkpt>
      <trkpt lat="45.62478" lon="6.12747">
        <ele>1147.438569507</ele>
        <time>2016-08-10T16:38:18Z</time>
      </trkpt>
      <trkpt lat="45.62487" lon="6.12736">
        <ele>1146.7037207</ele>
        <time>2016-08-10T16:38:28Z</time>
      </trkpt>
      <trkpt lat="45.6249" lon="6.12731">
        <ele>1146.7037207</ele>
        <time>2016-08-10T16:38:33Z</time>
      </trkpt>
      <trkpt lat="45.62497" lon="6.12718">
        <ele>1146.814383804</ele>
        <time>2016-08-10T16:38:44Z</time>
      </trkpt>
      <trkpt lat="45.62501" lon="6.12712">
        <ele>1146.814383804</ele>
        <time>2016-08-10T16:38:48Z</time>
      </trkpt>
      <trkpt lat="45.62504" lon="6.12701">
        <ele>1146.120784177</ele>
        <time>2016-08-10T16:38:58Z</time>
      </trkpt>
      <trkpt lat="45.625" lon="6.12684">
        <ele>1145.114102984</ele>
        <time>2016-08-10T16:39:03Z</time>
      </trkpt>
      <trkpt lat="45.62485" lon="6.12682">
        <ele>1143.241494899</ele>
        <time>2016-08-10T16:39:13Z</time>
      </trkpt>
      <trkpt lat="45.62479" lon="6.12688">
        <ele>1143.241494899</ele>
        <time>2016-08-10T16:39:18Z</time>
      </trkpt>
      <trkpt lat="45.62472" lon="6.12701">
        <ele>1141.290112162</ele>
        <time>2016-08-10T16:39:28Z</time>
      </trkpt>
      <trkpt lat="45.6247" lon="6.12708">
        <ele>1141.290112162</ele>
        <time>2016-08-10T16:39:33Z</time>
      </trkpt>
      <trkpt lat="45.62466" lon="6.12732">
        <ele>1139.845347562</ele>
        <time>2016-08-10T16:39:44Z</time>
      </trkpt>
      <trkpt lat="45.62464" lon="6.12737">
        <ele>1139.845347562</ele>
        <time>2016-08-10T16:39:48Z</time>
      </trkpt>
      <trkpt lat="45.62458" lon="6.12747">
        <ele>1139.880457507</ele>
        <time>2016-08-10T16:40:04Z</time>
      </trkpt>
      <trkpt lat="45.62452" lon="6.12749">
        <ele>1139.880457507</ele>
        <time>2016-08-10T16:40:08Z</time>
      </trkpt>
      <trkpt lat="45.62442" lon="6.12746">
        <ele>1139.699006003</ele>
        <time>2016-08-10T16:40:18Z</time>
      </trkpt>
      <trkpt lat="45.62439" lon="6.1274">
        <ele>1139.699006003</ele>
        <time>2016-08-10T16:40:24Z</time>
      </trkpt>
      <trkpt lat="45.6243" lon="6.1273">
        <ele>1139.170854446</ele>
        <time>2016-08-10T16:40:33Z</time>
      </trkpt>
      <trkpt lat="45.62428" lon="6.12724">
        <ele>1139.170854446</ele>
        <time>2016-08-10T16:40:38Z</time>
      </trkpt>
      <trkpt lat="45.62423" lon="6.1271">
        <ele>1137.888138731</ele>
        <time>2016-08-10T16:40:48Z</time>
      </trkpt>
      <trkpt lat="45.62422" lon="6.12703">
        <ele>1137.888138731</ele>
        <time>2016-08-10T16:40:53Z</time>
      </trkpt>
      <trkpt lat="45.62418" lon="6.12696">
        <ele>1136.195597316</ele>
        <time>2016-08-10T16:41:03Z</time>
      </trkpt>
      <trkpt lat="45.62416" lon="6.12692">
        <ele>1136.195597316</ele>
        <time>2016-08-10T16:41:08Z</time>
      </trkpt>
      <trkpt lat="45.62413" lon="6.12689">
        <ele>1136.195597316</ele>
        <time>2016-08-10T16:41:13Z</time>
      </trkpt>
      <trkpt lat="45.62411" lon="6.12684">
        <ele>1134.269651832</ele>
        <time>2016-08-10T16:41:18Z</time>
      </trkpt>
      <trkpt lat="45.62408" lon="6.12678">
        <ele>1134.269651832</ele>
        <time>2016-08-10T16:41:23Z</time>
      </trkpt>
      <trkpt lat="45.62406" lon="6.12671">
        <ele>1132.562607878</ele>
        <time>2016-08-10T16:41:28Z</time>
      </trkpt>
      <trkpt lat="45.62403" lon="6.12663">
        <ele>1132.562607878</ele>
        <time>2016-08-10T16:41:33Z</time>
      </trkpt>
      <trkpt lat="45.62397" lon="6.12655">
        <ele>1130.484114755</ele>
        <time>2016-08-10T16:41:43Z</time>
      </trkpt>
      <trkpt lat="45.62397" lon="6.12648">
        <ele>1130.484114755</ele>
        <time>2016-08-10T16:41:49Z</time>
      </trkpt>
      <trkpt lat="45.62394" lon="6.12626">
        <ele>1127.920520065</ele>
        <time>2016-08-10T16:42:03Z</time>
      </trkpt>
      <trkpt lat="45.62393" lon="6.12605">
        <ele>1124.911940665</ele>
        <time>2016-08-10T16:42:18Z</time>
      </trkpt>
      <trkpt lat="45.62393" lon="6.12603">
        <ele>1124.911940665</ele>
        <time>2016-08-10T16:42:23Z</time>
      </trkpt>
      <trkpt lat="45.62393" lon="6.12596">
        <ele>1124.911940665</ele>
        <time>2016-08-10T16:42:34Z</time>
      </trkpt>
      <trkpt lat="45.62394" lon="6.12585">
        <ele>1122.64962493</ele>
        <time>2016-08-10T16:42:38Z</time>
      </trkpt>
      <trkpt lat="45.62398" lon="6.12565">
        <ele>1120.794041009</ele>
        <time>2016-08-10T16:42:49Z</time>
      </trkpt>
      <trkpt lat="45.62403" lon="6.12561">
        <ele>1120.794041009</ele>
        <time>2016-08-10T16:42:53Z</time>
      </trkpt>
      <trkpt lat="45.624" lon="6.12547">
        <ele>1118.452939501</ele>
        <time>2016-08-10T16:43:03Z</time>
      </trkpt>
      <trkpt lat="45.62397" lon="6.12537">
        <ele>1118.452939501</ele>
        <time>2016-08-10T16:43:09Z</time>
      </trkpt>
      <trkpt lat="45.62395" lon="6.12525">
        <ele>1115.521453057</ele>
        <time>2016-08-10T16:43:23Z</time>
      </trkpt>
      <trkpt lat="45.62387" lon="6.12495">
        <ele>1113.777435859</ele>
        <time>2016-08-10T16:43:34Z</time>
      </trkpt>
      <trkpt lat="45.62385" lon="6.12489">
        <ele>1113.777435859</ele>
        <time>2016-08-10T16:43:38Z</time>
      </trkpt>
      <trkpt lat="45.62381" lon="6.12472">
        <ele>1112.703058159</ele>
        <time>2016-08-10T16:43:48Z</time>
      </trkpt>
      <trkpt lat="45.62381" lon="6.12464">
        <ele>1112.703058159</ele>
        <time>2016-08-10T16:43:53Z</time>
      </trkpt>
      <trkpt lat="45.62379" lon="6.12458">
        <ele>1111.672455076</ele>
        <time>2016-08-10T16:43:58Z</time>
      </trkpt>
      <trkpt lat="45.62378" lon="6.12453">
        <ele>1111.672455076</ele>
        <time>2016-08-10T16:44:03Z</time>
      </trkpt>
      <trkpt lat="45.62378" lon="6.12446">
        <ele>1111.672455076</ele>
        <time>2016-08-10T16:44:09Z</time>
      </trkpt>
      <trkpt lat="45.62379" lon="6.12433">
        <ele>1110.105532202</ele>
        <time>2016-08-10T16:44:23Z</time>
      </trkpt>
      <trkpt lat="45.6238" lon="6.12432">
        <ele>1110.105532202</ele>
        <time>2016-08-10T16:44:28Z</time>
      </trkpt>
      <trkpt lat="45.62379" lon="6.12429">
        <ele>1110.105532202</ele>
        <time>2016-08-10T16:44:38Z</time>
      </trkpt>
      <trkpt lat="45.62379" lon="6.12427">
        <ele>1110.105532202</ele>
        <time>2016-08-10T16:44:43Z</time>
      </trkpt>
      <trkpt lat="45.62373" lon="6.12411">
        <ele>1108.042679357</ele>
        <time>2016-08-10T16:44:54Z</time>
      </trkpt>
      <trkpt lat="45.62371" lon="6.12405">
        <ele>1108.042679357</ele>
        <time>2016-08-10T16:44:58Z</time>
      </trkpt>
      <trkpt lat="45.62367" lon="6.12386">
        <ele>1106.099080271</ele>
        <time>2016-08-10T16:45:08Z</time>
      </trkpt>
      <trkpt lat="45.62364" lon="6.12378">
        <ele>1106.099080271</ele>
        <time>2016-08-10T16:45:13Z</time>
      </trkpt>
      <trkpt lat="45.62361" lon="6.12369">
        <ele>1104.267875142</ele>
        <time>2016-08-10T16:45:18Z</time>
      </trkpt>
      <trkpt lat="45.62358" lon="6.1236">
        <ele>1104.267875142</ele>
        <time>2016-08-10T16:45:23Z</time>
      </trkpt>
      <trkpt lat="45.62356" lon="6.12357">
        <ele>1102.686431556</ele>
        <time>2016-08-10T16:45:28Z</time>
      </trkpt>
      <trkpt lat="45.62345" lon="6.12344">
        <ele>1101.481254931</ele>
        <time>2016-08-10T16:45:43Z</time>
      </trkpt>
      <trkpt lat="45.62343" lon="6.12348">
        <ele>1101.481254931</ele>
        <time>2016-08-10T16:45:48Z</time>
      </trkpt>
      <trkpt lat="45.62342" lon="6.12344">
        <ele>1101.481254931</ele>
        <time>2016-08-10T16:45:58Z</time>
      </trkpt>
      <trkpt lat="45.62341" lon="6.12334">
        <ele>1100.191990054</ele>
        <time>2016-08-10T16:46:03Z</time>
      </trkpt>
      <trkpt lat="45.6234" lon="6.12331">
        <ele>1100.191990054</ele>
        <time>2016-08-10T16:46:14Z</time>
      </trkpt>
      <trkpt lat="45.62337" lon="6.12329">
        <ele>1100.191990054</ele>
        <time>2016-08-10T16:46:18Z</time>
      </trkpt>
      <trkpt lat="45.62326" lon="6.12312">
        <ele>1097.383491249</ele>
        <time>2016-08-10T16:46:28Z</time>
      </trkpt>
      <trkpt lat="45.62319" lon="6.12304">
        <ele>1097.383491249</ele>
        <time>2016-08-10T16:46:33Z</time>
      </trkpt>
      <trkpt lat="45.62306" lon="6.12289">
        <ele>1095.621238125</ele>
        <time>2016-08-10T16:46:43Z</time>
      </trkpt>
      <trkpt lat="45.62303" lon="6.12283">
        <ele>1095.621238125</ele>
        <time>2016-08-10T16:46:48Z</time>
      </trkpt>
      <trkpt lat="45.62301" lon="6.12264">
        <ele>1093.9646981</ele>
        <time>2016-08-10T16:47:03Z</time>
      </trkpt>
      <trkpt lat="45.62319" lon="6.12234">
        <ele>1091.83029339</ele>
        <time>2016-08-10T16:47:18Z</time>
      </trkpt>
      <trkpt lat="45.62321" lon="6.12225">
        <ele>1091.83029339</ele>
        <time>2016-08-10T16:47:23Z</time>
      </trkpt>
      <trkpt lat="45.62314" lon="6.12215">
        <ele>1089.831483218</ele>
        <time>2016-08-10T16:47:34Z</time>
      </trkpt>
      <trkpt lat="45.6232" lon="6.12217">
        <ele>1089.831483218</ele>
        <time>2016-08-10T16:47:38Z</time>
      </trkpt>
      <trkpt lat="45.62308" lon="6.12206">
        <ele>1087.671553472</ele>
        <time>2016-08-10T16:47:48Z</time>
      </trkpt>
      <trkpt lat="45.62303" lon="6.12199">
        <ele>1087.671553472</ele>
        <time>2016-08-10T16:47:53Z</time>
      </trkpt>
      <trkpt lat="45.62296" lon="6.12181">
        <ele>1085.364198899</ele>
        <time>2016-08-10T16:48:03Z</time>
      </trkpt>
      <trkpt lat="45.62288" lon="6.12179">
        <ele>1085.364198899</ele>
        <time>2016-08-10T16:48:08Z</time>
      </trkpt>
      <trkpt lat="45.62273" lon="6.12166">
        <ele>1082.634235829</ele>
        <time>2016-08-10T16:48:18Z</time>
      </trkpt>
      <trkpt lat="45.62276" lon="6.12159">
        <ele>1082.634235829</ele>
        <time>2016-08-10T16:48:23Z</time>
      </trkpt>
      <trkpt lat="45.62269" lon="6.12138">
        <ele>1080.668927891</ele>
        <time>2016-08-10T16:48:33Z</time>
      </trkpt>
      <trkpt lat="45.6226" lon="6.12131">
        <ele>1079.557335362</ele>
        <time>2016-08-10T16:48:38Z</time>
      </trkpt>
      <trkpt lat="45.62255" lon="6.12112">
        <ele>1078.658963558</ele>
        <time>2016-08-10T16:48:49Z</time>
      </trkpt>
      <trkpt lat="45.62251" lon="6.12105">
        <ele>1078.658963558</ele>
        <time>2016-08-10T16:48:53Z</time>
      </trkpt>
      <trkpt lat="45.62239" lon="6.1207">
        <ele>1079.10904999</ele>
        <time>2016-08-10T16:49:09Z</time>
      </trkpt>
      <trkpt lat="45.62237" lon="6.1205">
        <ele>1078.92927827</ele>
        <time>2016-08-10T16:49:23Z</time>
      </trkpt>
      <trkpt lat="45.62225" lon="6.12034">
        <ele>1077.873617616</ele>
        <time>2016-08-10T16:49:38Z</time>
      </trkpt>
      <trkpt lat="45.62223" lon="6.12029">
        <ele>1077.873617616</ele>
        <time>2016-08-10T16:49:44Z</time>
      </trkpt>
      <trkpt lat="45.62215" lon="6.1201">
        <ele>1077.445884839</ele>
        <time>2016-08-10T16:49:53Z</time>
      </trkpt>
      <trkpt lat="45.6221" lon="6.12002">
        <ele>1077.445884839</ele>
        <time>2016-08-10T16:49:58Z</time>
      </trkpt>
      <trkpt lat="45.6221" lon="6.11986">
        <ele>1077.308327385</ele>
        <time>2016-08-10T16:50:09Z</time>
      </trkpt>
      <trkpt lat="45.62206" lon="6.11979">
        <ele>1077.308327385</ele>
        <time>2016-08-10T16:50:14Z</time>
      </trkpt>
      <trkpt lat="45.62195" lon="6.11956">
        <ele>1077.003084579</ele>
        <time>2016-08-10T16:50:28Z</time>
      </trkpt>
      <trkpt lat="45.62185" lon="6.11933">
        <ele>1077.259306558</ele>
        <time>2016-08-10T16:50:43Z</time>
      </trkpt>
      <trkpt lat="45.62181" lon="6.11926">
        <ele>1077.259306558</ele>
        <time>2016-08-10T16:50:48Z</time>
      </trkpt>
      <trkpt lat="45.62175" lon="6.11915">
        <ele>1077.886367861</ele>
        <time>2016-08-10T16:50:58Z</time>
      </trkpt>
      <trkpt lat="45.62173" lon="6.1191">
        <ele>1077.886367861</ele>
        <time>2016-08-10T16:51:03Z</time>
      </trkpt>
      <trkpt lat="45.62169" lon="6.11904">
        <ele>1078.418426059</ele>
        <time>2016-08-10T16:51:08Z</time>
      </trkpt>
      <trkpt lat="45.62165" lon="6.11899">
        <ele>1078.418426059</ele>
        <time>2016-08-10T16:51:13Z</time>
      </trkpt>
      <trkpt lat="45.62162" lon="6.11894">
        <ele>1078.424180702</ele>
        <time>2016-08-10T16:51:18Z</time>
      </trkpt>
      <trkpt lat="45.62159" lon="6.11888">
        <ele>1078.424180702</ele>
        <time>2016-08-10T16:51:23Z</time>
      </trkpt>
      <trkpt lat="45.62149" lon="6.11872">
        <ele>1078.514336123</ele>
        <time>2016-08-10T16:51:38Z</time>
      </trkpt>
      <trkpt lat="45.62148" lon="6.11867">
        <ele>1078.514336123</ele>
        <time>2016-08-10T16:51:43Z</time>
      </trkpt>
      <trkpt lat="45.62138" lon="6.11853">
        <ele>1078.389907992</ele>
        <time>2016-08-10T16:51:53Z</time>
      </trkpt>
      <trkpt lat="45.62134" lon="6.11845">
        <ele>1078.389907992</ele>
        <time>2016-08-10T16:51:58Z</time>
      </trkpt>
      <trkpt lat="45.62124" lon="6.11835">
        <ele>1078.639229598</ele>
        <time>2016-08-10T16:52:08Z</time>
      </trkpt>
      <trkpt lat="45.62118" lon="6.11827">
        <ele>1078.639229598</ele>
        <time>2016-08-10T16:52:13Z</time>
      </trkpt>
      <trkpt lat="45.62109" lon="6.11817">
        <ele>1079.230015462</ele>
        <time>2016-08-10T16:52:23Z</time>
      </trkpt>
      <trkpt lat="45.62103" lon="6.1181">
        <ele>1079.230015462</ele>
        <time>2016-08-10T16:52:28Z</time>
      </trkpt>
      <trkpt lat="45.62093" lon="6.11796">
        <ele>1080.13149502</ele>
        <time>2016-08-10T16:52:38Z</time>
      </trkpt>
      <trkpt lat="45.62089" lon="6.11791">
        <ele>1080.13149502</ele>
        <time>2016-08-10T16:52:43Z</time>
      </trkpt>
      <trkpt lat="45.62073" lon="6.11768">
        <ele>1081.31439695</ele>
        <time>2016-08-10T16:52:58Z</time>
      </trkpt>
      <trkpt lat="45.62069" lon="6.11763">
        <ele>1081.31439695</ele>
        <time>2016-08-10T16:53:03Z</time>
      </trkpt>
      <trkpt lat="45.62065" lon="6.11758">
        <ele>1080.445149374</ele>
        <time>2016-08-10T16:53:13Z</time>
      </trkpt>
      <trkpt lat="45.62065" lon="6.11757">
        <ele>1080.445149374</ele>
        <time>2016-08-10T16:53:18Z</time>
      </trkpt>
      <trkpt lat="45.62059" lon="6.11751">
        <ele>1080.445149374</ele>
        <time>2016-08-10T16:53:28Z</time>
      </trkpt>
      <trkpt lat="45.62057" lon="6.11749">
        <ele>1077.961480546</ele>
        <time>2016-08-10T16:53:33Z</time>
      </trkpt>
      <trkpt lat="45.62049" lon="6.11743">
        <ele>1075.426497244</ele>
        <time>2016-08-10T16:53:43Z</time>
      </trkpt>
      <trkpt lat="45.62043" lon="6.11734">
        <ele>1075.426497244</ele>
        <time>2016-08-10T16:53:48Z</time>
      </trkpt>
      <trkpt lat="45.62033" lon="6.1172">
        <ele>1073.568175101</ele>
        <time>2016-08-10T16:53:58Z</time>
      </trkpt>
      <trkpt lat="45.62028" lon="6.11713">
        <ele>1073.568175101</ele>
        <time>2016-08-10T16:54:03Z</time>
      </trkpt>
      <trkpt lat="45.62018" lon="6.117">
        <ele>1072.194539685</ele>
        <time>2016-08-10T16:54:13Z</time>
      </trkpt>
      <trkpt lat="45.62012" lon="6.11694">
        <ele>1072.194539685</ele>
        <time>2016-08-10T16:54:18Z</time>
      </trkpt>
      <trkpt lat="45.62003" lon="6.11683">
        <ele>1072.135218198</ele>
        <time>2016-08-10T16:54:28Z</time>
      </trkpt>
      <trkpt lat="45.61999" lon="6.11677">
        <ele>1072.135218198</ele>
        <time>2016-08-10T16:54:33Z</time>
      </trkpt>
      <trkpt lat="45.61984" lon="6.11655">
        <ele>1072.137725113</ele>
        <time>2016-08-10T16:54:48Z</time>
      </trkpt>
      <trkpt lat="45.61972" lon="6.11641">
        <ele>1071.762036713</ele>
        <time>2016-08-10T16:55:03Z</time>
      </trkpt>
      <trkpt lat="45.61967" lon="6.11634">
        <ele>1071.762036713</ele>
        <time>2016-08-10T16:55:08Z</time>
      </trkpt>
      <trkpt lat="45.61959" lon="6.11613">
        <ele>1071.754477492</ele>
        <time>2016-08-10T16:55:18Z</time>
      </trkpt>
      <trkpt lat="45.61953" lon="6.11605">
        <ele>1071.754477492</ele>
        <time>2016-08-10T16:55:23Z</time>
      </trkpt>
      <trkpt lat="45.61945" lon="6.11592">
        <ele>1071.652701993</ele>
        <time>2016-08-10T16:55:33Z</time>
      </trkpt>
      <trkpt lat="45.61939" lon="6.11584">
        <ele>1071.652701993</ele>
        <time>2016-08-10T16:55:38Z</time>
      </trkpt>
      <trkpt lat="45.61938" lon="6.11589">
        <ele>1071.316893395</ele>
        <time>2016-08-10T16:55:43Z</time>
      </trkpt>
      <trkpt lat="45.61935" lon="6.11588">
        <ele>1071.316893395</ele>
        <time>2016-08-10T16:55:48Z</time>
      </trkpt>
      <trkpt lat="45.61933" lon="6.11585">
        <ele>1071.316893395</ele>
        <time>2016-08-10T16:55:53Z</time>
      </trkpt>
      <trkpt lat="45.61929" lon="6.1158">
        <ele>1069.60946116</ele>
        <time>2016-08-10T16:55:58Z</time>
      </trkpt>
      <trkpt lat="45.61924" lon="6.11573">
        <ele>1069.60946116</ele>
        <time>2016-08-10T16:56:03Z</time>
      </trkpt>
      <trkpt lat="45.61916" lon="6.11562">
        <ele>1068.074304182</ele>
        <time>2016-08-10T16:56:13Z</time>
      </trkpt>
      <trkpt lat="45.61914" lon="6.11558">
        <ele>1068.074304182</ele>
        <time>2016-08-10T16:56:18Z</time>
      </trkpt>
      <trkpt lat="45.61909" lon="6.11552">
        <ele>1066.412157519</ele>
        <time>2016-08-10T16:56:23Z</time>
      </trkpt>
      <trkpt lat="45.61906" lon="6.11548">
        <ele>1066.412157519</ele>
        <time>2016-08-10T16:56:28Z</time>
      </trkpt>
      <trkpt lat="45.61902" lon="6.11541">
        <ele>1064.778488071</ele>
        <time>2016-08-10T16:56:33Z</time>
      </trkpt>
      <trkpt lat="45.61897" lon="6.1154">
        <ele>1064.778488071</ele>
        <time>2016-08-10T16:56:38Z</time>
      </trkpt>
      <trkpt lat="45.61894" lon="6.11535">
        <ele>1062.884976372</ele>
        <time>2016-08-10T16:56:43Z</time>
      </trkpt>
      <trkpt lat="45.61886" lon="6.11521">
        <ele>1061.041693563</ele>
        <time>2016-08-10T16:56:53Z</time>
      </trkpt>
      <trkpt lat="45.61882" lon="6.11515">
        <ele>1061.041693563</ele>
        <time>2016-08-10T16:56:58Z</time>
      </trkpt>
      <trkpt lat="45.61872" lon="6.11503">
        <ele>1058.959374171</ele>
        <time>2016-08-10T16:57:13Z</time>
      </trkpt>
      <trkpt lat="45.61872" lon="6.11503">
        <ele>1058.959374171</ele>
        <time>2016-08-10T16:57:18Z</time>
      </trkpt>
      <trkpt lat="45.6186" lon="6.11487">
        <ele>1058.100024708</ele>
        <time>2016-08-10T16:57:28Z</time>
      </trkpt>
      <trkpt lat="45.61853" lon="6.11477">
        <ele>1058.085501389</ele>
        <time>2016-08-10T16:57:33Z</time>
      </trkpt>
      <trkpt lat="45.61842" lon="6.11465">
        <ele>1058.707191686</ele>
        <time>2016-08-10T16:57:43Z</time>
      </trkpt>
      <trkpt lat="45.61838" lon="6.11462">
        <ele>1058.707191686</ele>
        <time>2016-08-10T16:57:48Z</time>
      </trkpt>
      <trkpt lat="45.61828" lon="6.11455">
        <ele>1058.905370927</ele>
        <time>2016-08-10T16:57:58Z</time>
      </trkpt>
      <trkpt lat="45.61823" lon="6.11452">
        <ele>1058.905370927</ele>
        <time>2016-08-10T16:58:03Z</time>
      </trkpt>
      <trkpt lat="45.61811" lon="6.11447">
        <ele>1059.28459449</ele>
        <time>2016-08-10T16:58:13Z</time>
      </trkpt>
      <trkpt lat="45.61804" lon="6.11444">
        <ele>1059.28459449</ele>
        <time>2016-08-10T16:58:18Z</time>
      </trkpt>
      <trkpt lat="45.61804" lon="6.11451">
        <ele>1057.954637659</ele>
        <time>2016-08-10T16:58:23Z</time>
      </trkpt>
      <trkpt lat="45.61799" lon="6.11448">
        <ele>1057.954637659</ele>
        <time>2016-08-10T16:58:28Z</time>
      </trkpt>
      <trkpt lat="45.61795" lon="6.11447">
        <ele>1056.48351287</ele>
        <time>2016-08-10T16:58:33Z</time>
      </trkpt>
      <trkpt lat="45.61791" lon="6.11441">
        <ele>1056.48351287</ele>
        <time>2016-08-10T16:58:38Z</time>
      </trkpt>
      <trkpt lat="45.61787" lon="6.11439">
        <ele>1054.595137976</ele>
        <time>2016-08-10T16:58:43Z</time>
      </trkpt>
      <trkpt lat="45.61777" lon="6.11435">
        <ele>1052.755460729</ele>
        <time>2016-08-10T16:58:53Z</time>
      </trkpt>
      <trkpt lat="45.61772" lon="6.11431">
        <ele>1052.755460729</ele>
        <time>2016-08-10T16:58:58Z</time>
      </trkpt>
      <trkpt lat="45.61762" lon="6.11419">
        <ele>1051.107855785</ele>
        <time>2016-08-10T16:59:08Z</time>
      </trkpt>
      <trkpt lat="45.61758" lon="6.11413">
        <ele>1051.107855785</ele>
        <time>2016-08-10T16:59:13Z</time>
      </trkpt>
      <trkpt lat="45.61742" lon="6.11394">
        <ele>1049.928744167</ele>
        <time>2016-08-10T16:59:28Z</time>
      </trkpt>
      <trkpt lat="45.61737" lon="6.1139">
        <ele>1049.928744167</ele>
        <time>2016-08-10T16:59:33Z</time>
      </trkpt>
      <trkpt lat="45.61726" lon="6.11376">
        <ele>1049.18470484</ele>
        <time>2016-08-10T16:59:43Z</time>
      </trkpt>
      <trkpt lat="45.61718" lon="6.11365">
        <ele>1049.419994464</ele>
        <time>2016-08-10T16:59:48Z</time>
      </trkpt>
      <trkpt lat="45.61713" lon="6.11354">
        <ele>1049.419994464</ele>
        <time>2016-08-10T16:59:58Z</time>
      </trkpt>
      <trkpt lat="45.6171" lon="6.1135">
        <ele>1048.830361701</ele>
        <time>2016-08-10T17:00:03Z</time>
      </trkpt>
      <trkpt lat="45.61706" lon="6.1134">
        <ele>1048.830361701</ele>
        <time>2016-08-10T17:00:13Z</time>
      </trkpt>
      <trkpt lat="45.61705" lon="6.11334">
        <ele>1046.899297034</ele>
        <time>2016-08-10T17:00:18Z</time>
      </trkpt>
      <trkpt lat="45.61698" lon="6.11316">
        <ele>1045.457774538</ele>
        <time>2016-08-10T17:00:28Z</time>
      </trkpt>
      <trkpt lat="45.61694" lon="6.11312">
        <ele>1045.457774538</ele>
        <time>2016-08-10T17:00:33Z</time>
      </trkpt>
      <trkpt lat="45.61688" lon="6.11306">
        <ele>1044.039222366</ele>
        <time>2016-08-10T17:00:43Z</time>
      </trkpt>
      <trkpt lat="45.61683" lon="6.11301">
        <ele>1044.039222366</ele>
        <time>2016-08-10T17:00:48Z</time>
      </trkpt>
      <trkpt lat="45.61675" lon="6.11293">
        <ele>1041.923047199</ele>
        <time>2016-08-10T17:00:58Z</time>
      </trkpt>
      <trkpt lat="45.61669" lon="6.11288">
        <ele>1041.923047199</ele>
        <time>2016-08-10T17:01:03Z</time>
      </trkpt>
      <trkpt lat="45.61661" lon="6.1128">
        <ele>1039.308197244</ele>
        <time>2016-08-10T17:01:13Z</time>
      </trkpt>
      <trkpt lat="45.61658" lon="6.11273">
        <ele>1039.308197244</ele>
        <time>2016-08-10T17:01:18Z</time>
      </trkpt>
      <trkpt lat="45.61652" lon="6.1126">
        <ele>1036.812713044</ele>
        <time>2016-08-10T17:01:28Z</time>
      </trkpt>
      <trkpt lat="45.61648" lon="6.11249">
        <ele>1035.152976447</ele>
        <time>2016-08-10T17:01:33Z</time>
      </trkpt>
      <trkpt lat="45.61645" lon="6.11233">
        <ele>1034.413914166</ele>
        <time>2016-08-10T17:01:43Z</time>
      </trkpt>
      <trkpt lat="45.61643" lon="6.11221">
        <ele>1034.413914166</ele>
        <time>2016-08-10T17:01:49Z</time>
      </trkpt>
      <trkpt lat="45.61642" lon="6.11208">
        <ele>1032.365805893</ele>
        <time>2016-08-10T17:01:59Z</time>
      </trkpt>
      <trkpt lat="45.61637" lon="6.11204">
        <ele>1032.365805893</ele>
        <time>2016-08-10T17:02:03Z</time>
      </trkpt>
      <trkpt lat="45.61635" lon="6.11201">
        <ele>1032.365805893</ele>
        <time>2016-08-10T17:02:08Z</time>
      </trkpt>
      <trkpt lat="45.61627" lon="6.11193">
        <ele>1030.405015342</ele>
        <time>2016-08-10T17:02:13Z</time>
      </trkpt>
      <trkpt lat="45.61623" lon="6.11189">
        <ele>1030.405015342</ele>
        <time>2016-08-10T17:02:18Z</time>
      </trkpt>
      <trkpt lat="45.6161" lon="6.11178">
        <ele>1028.816255066</ele>
        <time>2016-08-10T17:02:28Z</time>
      </trkpt>
      <trkpt lat="45.61603" lon="6.11174">
        <ele>1028.816255066</ele>
        <time>2016-08-10T17:02:33Z</time>
      </trkpt>
      <trkpt lat="45.61595" lon="6.11169">
        <ele>1027.285780401</ele>
        <time>2016-08-10T17:02:43Z</time>
      </trkpt>
      <trkpt lat="45.6159" lon="6.11163">
        <ele>1027.285780401</ele>
        <time>2016-08-10T17:02:48Z</time>
      </trkpt>
      <trkpt lat="45.61577" lon="6.11155">
        <ele>1026.387342163</ele>
        <time>2016-08-10T17:02:59Z</time>
      </trkpt>
      <trkpt lat="45.61574" lon="6.11153">
        <ele>1026.387342163</ele>
        <time>2016-08-10T17:03:03Z</time>
      </trkpt>
      <trkpt lat="45.61561" lon="6.11144">
        <ele>1025.786049402</ele>
        <time>2016-08-10T17:03:13Z</time>
      </trkpt>
      <trkpt lat="45.61558" lon="6.11142">
        <ele>1025.786049402</ele>
        <time>2016-08-10T17:03:18Z</time>
      </trkpt>
      <trkpt lat="45.61553" lon="6.11138">
        <ele>1025.458950557</ele>
        <time>2016-08-10T17:03:28Z</time>
      </trkpt>
      <trkpt lat="45.6155" lon="6.11134">
        <ele>1025.458950557</ele>
        <time>2016-08-10T17:03:33Z</time>
      </trkpt>
      <trkpt lat="45.61539" lon="6.11123">
        <ele>1025.528078697</ele>
        <time>2016-08-10T17:03:43Z</time>
      </trkpt>
      <trkpt lat="45.61535" lon="6.11117">
        <ele>1025.528078697</ele>
        <time>2016-08-10T17:03:48Z</time>
      </trkpt>
      <trkpt lat="45.61532" lon="6.11113">
        <ele>1024.808354726</ele>
        <time>2016-08-10T17:04:03Z</time>
      </trkpt>
      <trkpt lat="45.61523" lon="6.11112">
        <ele>1024.808354726</ele>
        <time>2016-08-10T17:04:08Z</time>
      </trkpt>
      <trkpt lat="45.61506" lon="6.11109">
        <ele>1024.797942219</ele>
        <time>2016-08-10T17:04:18Z</time>
      </trkpt>
      <trkpt lat="45.61504" lon="6.11111">
        <ele>1024.797942219</ele>
        <time>2016-08-10T17:04:23Z</time>
      </trkpt>
      <trkpt lat="45.615" lon="6.11117">
        <ele>1024.797942219</ele>
        <time>2016-08-10T17:04:33Z</time>
      </trkpt>
      <trkpt lat="45.615" lon="6.11118">
        <ele>1024.797942219</ele>
        <time>2016-08-10T17:04:38Z</time>
      </trkpt>
      <trkpt lat="45.61499" lon="6.11118">
        <ele>1024.144829944</ele>
        <time>2016-08-10T17:04:48Z</time>
      </trkpt>
      <trkpt lat="45.61499" lon="6.11118">
        <ele>1024.144829944</ele>
        <time>2016-08-10T17:04:53Z</time>
      </trkpt>
      <trkpt lat="45.61493" lon="6.1111">
        <ele>1024.144829944</ele>
        <time>2016-08-10T17:05:03Z</time>
      </trkpt>
      <trkpt lat="45.61488" lon="6.11103">
        <ele>1023.903895293</ele>
        <time>2016-08-10T17:05:08Z</time>
      </trkpt>
      <trkpt lat="45.61475" lon="6.111">
        <ele>1023.610252654</ele>
        <time>2016-08-10T17:05:18Z</time>
      </trkpt>
      <trkpt lat="45.61469" lon="6.111">
        <ele>1023.610252654</ele>
        <time>2016-08-10T17:05:23Z</time>
      </trkpt>
      <trkpt lat="45.61462" lon="6.11098">
        <ele>1023.553872906</ele>
        <time>2016-08-10T17:05:33Z</time>
      </trkpt>
      <trkpt lat="45.61457" lon="6.11097">
        <ele>1023.553872906</ele>
        <time>2016-08-10T17:05:38Z</time>
      </trkpt>
      <trkpt lat="45.61447" lon="6.11095">
        <ele>1023.282213192</ele>
        <time>2016-08-10T17:05:48Z</time>
      </trkpt>
      <trkpt lat="45.61424" lon="6.11086">
        <ele>1024</ele>
        <time>2016-08-10T12:44:43Z</time>
      </trkpt>
      <trkpt lat="45.61419" lon="6.11077">
        <ele>1024</ele>
        <time>2016-08-10T12:44:48Z</time>
      </trkpt>
      <trkpt lat="45.61411" lon="6.11072">
        <ele>1019.336448268</ele>
        <time>2016-08-10T12:44:58Z</time>
      </trkpt>
      <trkpt lat="45.61414" lon="6.11074">
        <ele>1019.336448268</ele>
        <time>2016-08-10T12:45:03Z</time>
      </trkpt>
      <trkpt lat="45.61421" lon="6.11088">
        <ele>1022.924385478</ele>
        <time>2016-08-10T12:45:13Z</time>
      </trkpt>
      <trkpt lat="45.61421" lon="6.11086">
        <ele>1022.924385478</ele>
        <time>2016-08-10T12:45:18Z</time>
      </trkpt>
      <trkpt lat="45.6142" lon="6.11085">
        <ele>1022.924385478</ele>
        <time>2016-08-10T12:45:28Z</time>
      </trkpt>
      <trkpt lat="45.61421" lon="6.11084">
        <ele>1022.924385478</ele>
        <time>2016-08-10T12:45:33Z</time>
      </trkpt>
      <trkpt lat="45.61415" lon="6.11078">
        <ele>1027.555835832</ele>
        <time>2016-08-10T12:45:43Z</time>
      </trkpt>
      <trkpt lat="45.61411" lon="6.11074">
        <ele>1027.555835832</ele>
        <time>2016-08-10T12:45:48Z</time>
      </trkpt>
      <trkpt lat="45.614" lon="6.11066">
        <ele>1032.602138468</ele>
        <time>2016-08-10T12:45:58Z</time>
      </trkpt>
      <trkpt lat="45.61394" lon="6.1106">
        <ele>1032.602138468</ele>
        <time>2016-08-10T12:46:03Z</time>
      </trkpt>
      <trkpt lat="45.61388" lon="6.11048">
        <ele>1038.06510474</ele>
        <time>2016-08-10T12:46:13Z</time>
      </trkpt>
      <trkpt lat="45.61385" lon="6.11041">
        <ele>1038.06510474</ele>
        <time>2016-08-10T12:46:18Z</time>
      </trkpt>
      <trkpt lat="45.61377" lon="6.11028">
        <ele>1042.575389832</ele>
        <time>2016-08-10T12:46:29Z</time>
      </trkpt>
      <trkpt lat="45.61374" lon="6.11021">
        <ele>1042.575389832</ele>
        <time>2016-08-10T12:46:33Z</time>
      </trkpt>
      <trkpt lat="45.61358" lon="6.11012">
        <ele>1046.344777396</ele>
        <time>2016-08-10T12:46:48Z</time>
      </trkpt>
      <trkpt lat="45.61352" lon="6.11009">
        <ele>1046.344777396</ele>
        <time>2016-08-10T12:46:53Z</time>
      </trkpt>
      <trkpt lat="45.61345" lon="6.11007">
        <ele>1049.460516754</ele>
        <time>2016-08-10T12:46:58Z</time>
      </trkpt>
      <trkpt lat="45.61338" lon="6.11005">
        <ele>1049.460516754</ele>
        <time>2016-08-10T12:47:03Z</time>
      </trkpt>
      <trkpt lat="45.61335" lon="6.10997">
        <ele>1052.509475708</ele>
        <time>2016-08-10T12:47:08Z</time>
      </trkpt>
      <trkpt lat="45.6132" lon="6.1099">
        <ele>1053.729770117</ele>
        <time>2016-08-10T12:47:18Z</time>
      </trkpt>
      <trkpt lat="45.61317" lon="6.10984">
        <ele>1053.729770117</ele>
        <time>2016-08-10T12:47:23Z</time>
      </trkpt>
      <trkpt lat="45.61307" lon="6.10975">
        <ele>1054.587709315</ele>
        <time>2016-08-10T12:47:33Z</time>
      </trkpt>
      <trkpt lat="45.61303" lon="6.1097">
        <ele>1054.587709315</ele>
        <time>2016-08-10T12:47:38Z</time>
      </trkpt>
      <trkpt lat="45.61294" lon="6.1096">
        <ele>1055.130441657</ele>
        <time>2016-08-10T12:47:48Z</time>
      </trkpt>
      <trkpt lat="45.61289" lon="6.10954">
        <ele>1055.130441657</ele>
        <time>2016-08-10T12:47:53Z</time>
      </trkpt>
      <trkpt lat="45.6128" lon="6.10944">
        <ele>1055.433401305</ele>
        <time>2016-08-10T12:48:03Z</time>
      </trkpt>
      <trkpt lat="45.61272" lon="6.10937">
        <ele>1055.079896245</ele>
        <time>2016-08-10T12:48:08Z</time>
      </trkpt>
      <trkpt lat="45.61263" lon="6.1093">
        <ele>1054.861737006</ele>
        <time>2016-08-10T12:48:19Z</time>
      </trkpt>
      <trkpt lat="45.61258" lon="6.10925">
        <ele>1054.861737006</ele>
        <time>2016-08-10T12:48:23Z</time>
      </trkpt>
      <trkpt lat="45.61251" lon="6.10922">
        <ele>1051.858912787</ele>
        <time>2016-08-10T12:48:33Z</time>
      </trkpt>
      <trkpt lat="45.61247" lon="6.10917">
        <ele>1051.858912787</ele>
        <time>2016-08-10T12:48:38Z</time>
      </trkpt>
      <trkpt lat="45.61239" lon="6.10907">
        <ele>1047.737233133</ele>
        <time>2016-08-10T12:48:48Z</time>
      </trkpt>
      <trkpt lat="45.61236" lon="6.109">
        <ele>1047.737233133</ele>
        <time>2016-08-10T12:48:53Z</time>
      </trkpt>
      <trkpt lat="45.61224" lon="6.10881">
        <ele>1044.140223031</ele>
        <time>2016-08-10T12:49:08Z</time>
      </trkpt>
      <trkpt lat="45.61221" lon="6.10876">
        <ele>1044.140223031</ele>
        <time>2016-08-10T12:49:13Z</time>
      </trkpt>
      <trkpt lat="45.61213" lon="6.10866">
        <ele>1039.629903217</ele>
        <time>2016-08-10T12:49:23Z</time>
      </trkpt>
      <trkpt lat="45.61209" lon="6.10861">
        <ele>1039.629903217</ele>
        <time>2016-08-10T12:49:28Z</time>
      </trkpt>
      <trkpt lat="45.61201" lon="6.10853">
        <ele>1034.66944271</ele>
        <time>2016-08-10T12:49:38Z</time>
      </trkpt>
      <trkpt lat="45.61197" lon="6.1085">
        <ele>1034.66944271</ele>
        <time>2016-08-10T12:49:43Z</time>
      </trkpt>
      <trkpt lat="45.61189" lon="6.10841">
        <ele>1029.192558587</ele>
        <time>2016-08-10T12:49:53Z</time>
      </trkpt>
      <trkpt lat="45.61186" lon="6.10841">
        <ele>1029.192558587</ele>
        <time>2016-08-10T12:49:58Z</time>
      </trkpt>
      <trkpt lat="45.61185" lon="6.10839">
        <ele>1029.192558587</ele>
        <time>2016-08-10T12:50:08Z</time>
      </trkpt>
      <trkpt lat="45.61181" lon="6.10838">
        <ele>1029.192558587</ele>
        <time>2016-08-10T12:50:13Z</time>
      </trkpt>
      <trkpt lat="45.61172" lon="6.10833">
        <ele>1023.743532839</ele>
        <time>2016-08-10T12:50:23Z</time>
      </trkpt>
      <trkpt lat="45.61167" lon="6.10831">
        <ele>1023.743532839</ele>
        <time>2016-08-10T12:50:28Z</time>
      </trkpt>
      <trkpt lat="45.61161" lon="6.10827">
        <ele>1018.938727491</ele>
        <time>2016-08-10T12:50:33Z</time>
      </trkpt>
      <trkpt lat="45.61153" lon="6.10818">
        <ele>1014.12761626</ele>
        <time>2016-08-10T12:50:43Z</time>
      </trkpt>
      <trkpt lat="45.6115" lon="6.10813">
        <ele>1014.12761626</ele>
        <time>2016-08-10T12:50:48Z</time>
      </trkpt>
      <trkpt lat="45.6114" lon="6.108">
        <ele>1009.755488522</ele>
        <time>2016-08-10T12:50:58Z</time>
      </trkpt>
      <trkpt lat="45.61137" lon="6.10798">
        <ele>1009.755488522</ele>
        <time>2016-08-10T12:51:03Z</time>
      </trkpt>
      <trkpt lat="45.61129" lon="6.10784">
        <ele>1004.916010487</ele>
        <time>2016-08-10T12:51:13Z</time>
      </trkpt>
      <trkpt lat="45.61125" lon="6.10779">
        <ele>1004.916010487</ele>
        <time>2016-08-10T12:51:18Z</time>
      </trkpt>
      <trkpt lat="45.61116" lon="6.10769">
        <ele>1000.797519907</ele>
        <time>2016-08-10T12:51:28Z</time>
      </trkpt>
      <trkpt lat="45.6111" lon="6.10761">
        <ele>1000.797519907</ele>
        <time>2016-08-10T12:51:33Z</time>
      </trkpt>
      <trkpt lat="45.61103" lon="6.10754">
        <ele>996.483321189</ele>
        <time>2016-08-10T12:51:43Z</time>
      </trkpt>
      <trkpt lat="45.61099" lon="6.10748">
        <ele>996.483321189</ele>
        <time>2016-08-10T12:51:48Z</time>
      </trkpt>
      <trkpt lat="45.61088" lon="6.10739">
        <ele>992.271194046</ele>
        <time>2016-08-10T12:51:58Z</time>
      </trkpt>
      <trkpt lat="45.61078" lon="6.10736">
        <ele>988.291203487</ele>
        <time>2016-08-10T12:52:03Z</time>
      </trkpt>
      <trkpt lat="45.6107" lon="6.10727">
        <ele>984.385444097</ele>
        <time>2016-08-10T12:52:13Z</time>
      </trkpt>
      <trkpt lat="45.61066" lon="6.10721">
        <ele>984.385444097</ele>
        <time>2016-08-10T12:52:18Z</time>
      </trkpt>
      <trkpt lat="45.61059" lon="6.10712">
        <ele>980.82678316</ele>
        <time>2016-08-10T12:52:28Z</time>
      </trkpt>
      <trkpt lat="45.6106" lon="6.10714">
        <ele>980.82678316</ele>
        <time>2016-08-10T12:52:33Z</time>
      </trkpt>
      <trkpt lat="45.61055" lon="6.10705">
        <ele>980.82678316</ele>
        <time>2016-08-10T12:52:43Z</time>
      </trkpt>
      <trkpt lat="45.61052" lon="6.10699">
        <ele>977.036897546</ele>
        <time>2016-08-10T12:52:48Z</time>
      </trkpt>
      <trkpt lat="45.61044" lon="6.1069">
        <ele>973.591456875</ele>
        <time>2016-08-10T12:52:58Z</time>
      </trkpt>
      <trkpt lat="45.6104" lon="6.10683">
        <ele>973.591456875</ele>
        <time>2016-08-10T12:53:03Z</time>
      </trkpt>
      <trkpt lat="45.61037" lon="6.10674">
        <ele>971.03061128</ele>
        <time>2016-08-10T12:53:08Z</time>
      </trkpt>
      <trkpt lat="45.61033" lon="6.10668">
        <ele>971.03061128</ele>
        <time>2016-08-10T12:53:13Z</time>
      </trkpt>
      <trkpt lat="45.61031" lon="6.10663">
        <ele>968.462884664</ele>
        <time>2016-08-10T12:53:18Z</time>
      </trkpt>
      <trkpt lat="45.61027" lon="6.10657">
        <ele>968.462884664</ele>
        <time>2016-08-10T12:53:23Z</time>
      </trkpt>
      <trkpt lat="45.61019" lon="6.10645">
        <ele>965.470755449</ele>
        <time>2016-08-10T12:53:33Z</time>
      </trkpt>
      <trkpt lat="45.61013" lon="6.10638">
        <ele>965.470755449</ele>
        <time>2016-08-10T12:53:38Z</time>
      </trkpt>
      <trkpt lat="45.61004" lon="6.10626">
        <ele>962.51032698</ele>
        <time>2016-08-10T12:53:48Z</time>
      </trkpt>
      <trkpt lat="45.61" lon="6.10621">
        <ele>962.51032698</ele>
        <time>2016-08-10T12:53:53Z</time>
      </trkpt>
      <trkpt lat="45.61" lon="6.10618">
        <ele>962.51032698</ele>
        <time>2016-08-10T12:54:03Z</time>
      </trkpt>
      <trkpt lat="45.61" lon="6.10616">
        <ele>959.300829775</ele>
        <time>2016-08-10T12:54:08Z</time>
      </trkpt>
      <trkpt lat="45.60995" lon="6.1062">
        <ele>959.300829775</ele>
        <time>2016-08-10T12:54:18Z</time>
      </trkpt>
      <trkpt lat="45.60991" lon="6.10617">
        <ele>957.157412445</ele>
        <time>2016-08-10T12:54:23Z</time>
      </trkpt>
      <trkpt lat="45.60982" lon="6.10605">
        <ele>955.44503285</ele>
        <time>2016-08-10T12:54:33Z</time>
      </trkpt>
      <trkpt lat="45.60988" lon="6.10595">
        <ele>953.703855752</ele>
        <time>2016-08-10T12:54:38Z</time>
      </trkpt>
      <trkpt lat="45.6099" lon="6.10595">
        <ele>953.703855752</ele>
        <time>2016-08-10T12:54:48Z</time>
      </trkpt>
      <trkpt lat="45.60991" lon="6.10594">
        <ele>953.703855752</ele>
        <time>2016-08-10T12:54:53Z</time>
      </trkpt>
      <trkpt lat="45.60981" lon="6.10581">
        <ele>951.937051191</ele>
        <time>2016-08-10T12:55:03Z</time>
      </trkpt>
      <trkpt lat="45.60979" lon="6.10578">
        <ele>951.937051191</ele>
        <time>2016-08-10T12:55:08Z</time>
      </trkpt>
      <trkpt lat="45.60977" lon="6.10562">
        <ele>950.29491259</ele>
        <time>2016-08-10T12:55:18Z</time>
      </trkpt>
      <trkpt lat="45.60976" lon="6.10555">
        <ele>950.29491259</ele>
        <time>2016-08-10T12:55:23Z</time>
      </trkpt>
      <trkpt lat="45.60971" lon="6.10537">
        <ele>949.066801275</ele>
        <time>2016-08-10T12:55:34Z</time>
      </trkpt>
      <trkpt lat="45.60969" lon="6.10528">
        <ele>949.066801275</ele>
        <time>2016-08-10T12:55:38Z</time>
      </trkpt>
      <trkpt lat="45.60968" lon="6.10522">
        <ele>947.926886318</ele>
        <time>2016-08-10T12:55:43Z</time>
      </trkpt>
      <trkpt lat="45.60965" lon="6.10507">
        <ele>947.166214102</ele>
        <time>2016-08-10T12:55:53Z</time>
      </trkpt>
      <trkpt lat="45.60963" lon="6.105">
        <ele>947.166214102</ele>
        <time>2016-08-10T12:55:58Z</time>
      </trkpt>
      <trkpt lat="45.6096" lon="6.10479">
        <ele>947.205341749</ele>
        <time>2016-08-10T12:56:08Z</time>
      </trkpt>
      <trkpt lat="45.60958" lon="6.10471">
        <ele>947.205341749</ele>
        <time>2016-08-10T12:56:13Z</time>
      </trkpt>
      <trkpt lat="45.60956" lon="6.10459">
        <ele>946.476837905</ele>
        <time>2016-08-10T12:56:23Z</time>
      </trkpt>
      <trkpt lat="45.60953" lon="6.10452">
        <ele>946.476837905</ele>
        <time>2016-08-10T12:56:28Z</time>
      </trkpt>
      <trkpt lat="45.60948" lon="6.1043">
        <ele>946.236811531</ele>
        <time>2016-08-10T12:56:38Z</time>
      </trkpt>
      <trkpt lat="45.60946" lon="6.10423">
        <ele>946.236811531</ele>
        <time>2016-08-10T12:56:43Z</time>
      </trkpt>
      <trkpt lat="45.60943" lon="6.10409">
        <ele>945.387435177</ele>
        <time>2016-08-10T12:56:54Z</time>
      </trkpt>
      <trkpt lat="45.60941" lon="6.10405">
        <ele>945.387435177</ele>
        <time>2016-08-10T12:56:58Z</time>
      </trkpt>
      <trkpt lat="45.60938" lon="6.10387">
        <ele>944.725799959</ele>
        <time>2016-08-10T12:57:08Z</time>
      </trkpt>
      <trkpt lat="45.60936" lon="6.10382">
        <ele>944.725799959</ele>
        <time>2016-08-10T12:57:13Z</time>
      </trkpt>
      <trkpt lat="45.6093" lon="6.10356">
        <ele>944.233887973</ele>
        <time>2016-08-10T12:57:28Z</time>
      </trkpt>
      <trkpt lat="45.60928" lon="6.10345">
        <ele>944.233887973</ele>
        <time>2016-08-10T12:57:33Z</time>
      </trkpt>
      <trkpt lat="45.60925" lon="6.10331">
        <ele>943.592606537</ele>
        <time>2016-08-10T12:57:43Z</time>
      </trkpt>
      <trkpt lat="45.60922" lon="6.10322">
        <ele>943.592606537</ele>
        <time>2016-08-10T12:57:48Z</time>
      </trkpt>
      <trkpt lat="45.60918" lon="6.10299">
        <ele>943.262505679</ele>
        <time>2016-08-10T12:57:58Z</time>
      </trkpt>
      <trkpt lat="45.60916" lon="6.10293">
        <ele>943.262505679</ele>
        <time>2016-08-10T12:58:03Z</time>
      </trkpt>
      <trkpt lat="45.60912" lon="6.10281">
        <ele>942.461907235</ele>
        <time>2016-08-10T12:58:13Z</time>
      </trkpt>
      <trkpt lat="45.6091" lon="6.10271">
        <ele>942.461907235</ele>
        <time>2016-08-10T12:58:18Z</time>
      </trkpt>
      <trkpt lat="45.60907" lon="6.10251">
        <ele>941.827258247</ele>
        <time>2016-08-10T12:58:28Z</time>
      </trkpt>
      <trkpt lat="45.60902" lon="6.10241">
        <ele>941.827258247</ele>
        <time>2016-08-10T12:58:33Z</time>
      </trkpt>
      <trkpt lat="45.60896" lon="6.10231">
        <ele>940.892372193</ele>
        <time>2016-08-10T12:58:43Z</time>
      </trkpt>
      <trkpt lat="45.60893" lon="6.10222">
        <ele>940.892372193</ele>
        <time>2016-08-10T12:58:48Z</time>
      </trkpt>
      <trkpt lat="45.60886" lon="6.10208">
        <ele>939.979266014</ele>
        <time>2016-08-10T12:58:58Z</time>
      </trkpt>
      <trkpt lat="45.60885" lon="6.102">
        <ele>939.979266014</ele>
        <time>2016-08-10T12:59:03Z</time>
      </trkpt>
      <trkpt lat="45.6088" lon="6.10182">
        <ele>939.084466948</ele>
        <time>2016-08-10T12:59:13Z</time>
      </trkpt>
      <trkpt lat="45.60878" lon="6.10175">
        <ele>939.084466948</ele>
        <time>2016-08-10T12:59:18Z</time>
      </trkpt>
      <trkpt lat="45.60872" lon="6.10159">
        <ele>938.055872657</ele>
        <time>2016-08-10T12:59:28Z</time>
      </trkpt>
      <trkpt lat="45.60867" lon="6.10151">
        <ele>938.055872657</ele>
        <time>2016-08-10T12:59:33Z</time>
      </trkpt>
      <trkpt lat="45.60866" lon="6.1016">
        <ele>936.903234226</ele>
        <time>2016-08-10T12:59:48Z</time>
      </trkpt>
      <trkpt lat="45.60867" lon="6.10159">
        <ele>936.903234226</ele>
        <time>2016-08-10T12:59:53Z</time>
      </trkpt>
      <trkpt lat="45.60867" lon="6.10159">
        <ele>936.903234226</ele>
        <time>2016-08-10T13:00:03Z</time>
      </trkpt>
      <trkpt lat="45.60867" lon="6.10159">
        <ele>936.903234226</ele>
        <time>2016-08-10T13:00:08Z</time>
      </trkpt>
      <trkpt lat="45.60867" lon="6.10159">
        <ele>936.903234226</ele>
        <time>2016-08-10T13:00:18Z</time>
      </trkpt>
      <trkpt lat="45.60867" lon="6.10159">
        <ele>936.903234226</ele>
        <time>2016-08-10T13:00:23Z</time>
      </trkpt>
      <trkpt lat="45.60867" lon="6.10159">
        <ele>936.903234226</ele>
        <time>2016-08-10T13:00:33Z</time>
      </trkpt>
      <trkpt lat="45.60867" lon="6.10159">
        <ele>936.903234226</ele>
        <time>2016-08-10T13:00:38Z</time>
      </trkpt>
      <trkpt lat="45.60867" lon="6.10159">
        <ele>936.903234226</ele>
        <time>2016-08-10T13:00:48Z</time>
      </trkpt>
      <trkpt lat="45.60867" lon="6.10159">
        <ele>936.903234226</ele>
        <time>2016-08-10T13:00:53Z</time>
      </trkpt>
      <trkpt lat="45.60867" lon="6.10159">
        <ele>936.903234226</ele>
        <time>2016-08-10T13:01:03Z</time>
      </trkpt>
      <trkpt lat="45.60867" lon="6.10159">
        <ele>936.903234226</ele>
        <time>2016-08-10T13:01:08Z</time>
      </trkpt>
      <trkpt lat="45.60867" lon="6.10159">
        <ele>936.903234226</ele>
        <time>2016-08-10T13:01:18Z</time>
      </trkpt>
      <trkpt lat="45.60867" lon="6.10159">
        <ele>936.903234226</ele>
        <time>2016-08-10T13:01:23Z</time>
      </trkpt>
      <trkpt lat="45.60867" lon="6.10159">
        <ele>936.903234226</ele>
        <time>2016-08-10T13:01:33Z</time>
      </trkpt>
      <trkpt lat="45.60864" lon="6.10154">
        <ele>936.903234226</ele>
        <time>2016-08-10T13:01:38Z</time>
      </trkpt>
      <trkpt lat="45.60856" lon="6.10149">
        <ele>936.080478827</ele>
        <time>2016-08-10T13:01:48Z</time>
      </trkpt>
      <trkpt lat="45.6085" lon="6.1015">
        <ele>936.080478827</ele>
        <time>2016-08-10T13:01:53Z</time>
      </trkpt>
      <trkpt lat="45.60836" lon="6.10142">
        <ele>935.706830868</ele>
        <time>2016-08-10T13:02:03Z</time>
      </trkpt>
      <trkpt lat="45.6083" lon="6.1014">
        <ele>935.706830868</ele>
        <time>2016-08-10T13:02:08Z</time>
      </trkpt>
      <trkpt lat="45.60813" lon="6.10127">
        <ele>936.18533362</ele>
        <time>2016-08-10T13:02:23Z</time>
      </trkpt>
      <trkpt lat="45.60809" lon="6.10121">
        <ele>936.18533362</ele>
        <time>2016-08-10T13:02:28Z</time>
      </trkpt>
      <trkpt lat="45.60805" lon="6.10113">
        <ele>936.412141196</ele>
        <time>2016-08-10T13:02:39Z</time>
      </trkpt>
      <trkpt lat="45.60804" lon="6.1011">
        <ele>936.412141196</ele>
        <time>2016-08-10T13:02:43Z</time>
      </trkpt>
      <trkpt lat="45.60802" lon="6.10095">
        <ele>935.963025575</ele>
        <time>2016-08-10T13:02:53Z</time>
      </trkpt>
      <trkpt lat="45.60798" lon="6.10087">
        <ele>935.963025575</ele>
        <time>2016-08-10T13:02:59Z</time>
      </trkpt>
      <trkpt lat="45.6079" lon="6.10067">
        <ele>936.061618337</ele>
        <time>2016-08-10T13:03:09Z</time>
      </trkpt>
      <trkpt lat="45.60787" lon="6.10067">
        <ele>936.061618337</ele>
        <time>2016-08-10T13:03:13Z</time>
      </trkpt>
      <trkpt lat="45.6078" lon="6.1006">
        <ele>935.63727676</ele>
        <time>2016-08-10T13:03:24Z</time>
      </trkpt>
      <trkpt lat="45.60777" lon="6.10052">
        <ele>935.63727676</ele>
        <time>2016-08-10T13:03:28Z</time>
      </trkpt>
      <trkpt lat="45.60771" lon="6.10031">
        <ele>935.750476005</ele>
        <time>2016-08-10T13:03:40Z</time>
      </trkpt>
      <trkpt lat="45.60771" lon="6.10031">
        <ele>935.750476005</ele>
        <time>2016-08-10T13:03:43Z</time>
      </trkpt>
      <trkpt lat="45.60762" lon="6.10025">
        <ele>936.06393168</ele>
        <time>2016-08-10T13:03:59Z</time>
      </trkpt>
      <trkpt lat="45.60768" lon="6.10028">
        <ele>936.06393168</ele>
        <time>2016-08-10T13:04:03Z</time>
      </trkpt>
      <trkpt lat="45.60772" lon="6.1003">
        <ele>936.12164571</ele>
        <time>2016-08-10T13:04:14Z</time>
      </trkpt>
      <trkpt lat="45.6077" lon="6.10026">
        <ele>936.12164571</ele>
        <time>2016-08-10T13:04:18Z</time>
      </trkpt>
      <trkpt lat="45.6077" lon="6.10026">
        <ele>936.12164571</ele>
        <time>2016-08-10T13:04:28Z</time>
      </trkpt>
      <trkpt lat="45.60771" lon="6.10027">
        <ele>936.12164571</ele>
        <time>2016-08-10T13:04:34Z</time>
      </trkpt>
      <trkpt lat="45.60771" lon="6.10026">
        <ele>936.12164571</ele>
        <time>2016-08-10T13:04:43Z</time>
      </trkpt>
      <trkpt lat="45.60771" lon="6.10026">
        <ele>936.12164571</ele>
        <time>2016-08-10T13:04:49Z</time>
      </trkpt>
      <trkpt lat="45.60771" lon="6.10026">
        <ele>936.12164571</ele>
        <time>2016-08-10T13:04:58Z</time>
      </trkpt>
      <trkpt lat="45.60771" lon="6.10026">
        <ele>936.12164571</ele>
        <time>2016-08-10T13:05:03Z</time>
      </trkpt>
      <trkpt lat="45.60771" lon="6.10026">
        <ele>936.12164571</ele>
        <time>2016-08-10T13:05:13Z</time>
      </trkpt>
      <trkpt lat="45.60771" lon="6.10026">
        <ele>936.12164571</ele>
        <time>2016-08-10T13:05:18Z</time>
      </trkpt>
      <trkpt lat="45.60771" lon="6.10027">
        <ele>936.12164571</ele>
        <time>2016-08-10T13:05:28Z</time>
      </trkpt>
      <trkpt lat="45.60771" lon="6.10027">
        <ele>936.12164571</ele>
        <time>2016-08-10T13:05:33Z</time>
      </trkpt>
      <trkpt lat="45.60771" lon="6.10027">
        <ele>936.12164571</ele>
        <time>2016-08-10T13:05:48Z</time>
      </trkpt>
      <trkpt lat="45.60771" lon="6.10027">
        <ele>936.12164571</ele>
        <time>2016-08-10T13:05:53Z</time>
      </trkpt>
      <trkpt lat="45.60771" lon="6.10027">
        <ele>936.12164571</ele>
        <time>2016-08-10T13:06:03Z</time>
      </trkpt>
      <trkpt lat="45.60771" lon="6.10027">
        <ele>936.12164571</ele>
        <time>2016-08-10T13:06:08Z</time>
      </trkpt>
      <trkpt lat="45.60771" lon="6.10027">
        <ele>936.12164571</ele>
        <time>2016-08-10T13:06:18Z</time>
      </trkpt>
      <trkpt lat="45.60771" lon="6.10027">
        <ele>936.12164571</ele>
        <time>2016-08-10T13:06:23Z</time>
      </trkpt>
      <trkpt lat="45.60771" lon="6.10027">
        <ele>936.12164571</ele>
        <time>2016-08-10T13:06:33Z</time>
      </trkpt>
      <trkpt lat="45.60771" lon="6.10027">
        <ele>936.12164571</ele>
        <time>2016-08-10T13:06:38Z</time>
      </trkpt>
      <trkpt lat="45.60771" lon="6.10027">
        <ele>936.12164571</ele>
        <time>2016-08-10T13:06:48Z</time>
      </trkpt>
      <trkpt lat="45.60771" lon="6.10027">
        <ele>936.12164571</ele>
        <time>2016-08-10T13:06:53Z</time>
      </trkpt>
      <trkpt lat="45.60771" lon="6.10027">
        <ele>936.12164571</ele>
        <time>2016-08-10T13:07:08Z</time>
      </trkpt>
      <trkpt lat="45.60771" lon="6.10027">
        <ele>936.12164571</ele>
        <time>2016-08-10T13:07:13Z</time>
      </trkpt>
      <trkpt lat="45.60771" lon="6.10027">
        <ele>936.12164571</ele>
        <time>2016-08-10T13:07:23Z</time>
      </trkpt>
      <trkpt lat="45.60771" lon="6.10027">
        <ele>936.12164571</ele>
        <time>2016-08-10T13:07:28Z</time>
      </trkpt>
      <trkpt lat="45.60771" lon="6.10027">
        <ele>936.12164571</ele>
        <time>2016-08-10T13:07:38Z</time>
      </trkpt>
      <trkpt lat="45.60771" lon="6.10027">
        <ele>936.12164571</ele>
        <time>2016-08-10T13:07:43Z</time>
      </trkpt>
      <trkpt lat="45.60771" lon="6.10027">
        <ele>936.12164571</ele>
        <time>2016-08-10T13:07:53Z</time>
      </trkpt>
      <trkpt lat="45.60771" lon="6.10027">
        <ele>936.12164571</ele>
        <time>2016-08-10T13:07:58Z</time>
      </trkpt>
      <trkpt lat="45.60771" lon="6.10027">
        <ele>936.12164571</ele>
        <time>2016-08-10T13:08:13Z</time>
      </trkpt>
      <trkpt lat="45.60771" lon="6.10027">
        <ele>936.12164571</ele>
        <time>2016-08-10T13:08:18Z</time>
      </trkpt>
      <trkpt lat="45.60771" lon="6.10027">
        <ele>936.12164571</ele>
        <time>2016-08-10T13:08:28Z</time>
      </trkpt>
      <trkpt lat="45.60771" lon="6.10027">
        <ele>936.12164571</ele>
        <time>2016-08-10T13:08:33Z</time>
      </trkpt>
      <trkpt lat="45.60771" lon="6.10027">
        <ele>936.12164571</ele>
        <time>2016-08-10T13:08:38Z</time>
      </trkpt>
      <trkpt lat="45.60771" lon="6.10027">
        <ele>936.12164571</ele>
        <time>2016-08-10T13:08:43Z</time>
      </trkpt>
      <trkpt lat="45.60771" lon="6.10027">
        <ele>936.12164571</ele>
        <time>2016-08-10T13:08:48Z</time>
      </trkpt>
      <trkpt lat="45.60771" lon="6.10027">
        <ele>936.12164571</ele>
        <time>2016-08-10T13:08:53Z</time>
      </trkpt>
      <trkpt lat="45.60771" lon="6.10027">
        <ele>936.12164571</ele>
        <time>2016-08-10T13:08:58Z</time>
      </trkpt>
      <trkpt lat="45.60771" lon="6.10027">
        <ele>936.12164571</ele>
        <time>2016-08-10T13:09:03Z</time>
      </trkpt>
      <trkpt lat="45.60771" lon="6.10027">
        <ele>936.12164571</ele>
        <time>2016-08-10T13:09:08Z</time>
      </trkpt>
      <trkpt lat="45.60771" lon="6.10027">
        <ele>936.12164571</ele>
        <time>2016-08-10T13:09:23Z</time>
      </trkpt>
      <trkpt lat="45.60771" lon="6.10027">
        <ele>936.12164571</ele>
        <time>2016-08-10T13:09:28Z</time>
      </trkpt>
      <trkpt lat="45.60771" lon="6.10027">
        <ele>936.12164571</ele>
        <time>2016-08-10T13:09:38Z</time>
      </trkpt>
      <trkpt lat="45.60771" lon="6.10027">
        <ele>936.12164571</ele>
        <time>2016-08-10T13:09:43Z</time>
      </trkpt>
      <trkpt lat="45.60771" lon="6.10027">
        <ele>936.12164571</ele>
        <time>2016-08-10T13:09:53Z</time>
      </trkpt>
      <trkpt lat="45.60771" lon="6.10027">
        <ele>936.12164571</ele>
        <time>2016-08-10T13:09:58Z</time>
      </trkpt>
      <trkpt lat="45.60771" lon="6.10027">
        <ele>936.12164571</ele>
        <time>2016-08-10T13:10:08Z</time>
      </trkpt>
      <trkpt lat="45.60771" lon="6.10027">
        <ele>936.12164571</ele>
        <time>2016-08-10T13:10:13Z</time>
      </trkpt>
      <trkpt lat="45.60771" lon="6.10027">
        <ele>936.12164571</ele>
        <time>2016-08-10T13:10:23Z</time>
      </trkpt>
      <trkpt lat="45.60771" lon="6.10027">
        <ele>936.12164571</ele>
        <time>2016-08-10T13:10:28Z</time>
      </trkpt>
      <trkpt lat="45.60771" lon="6.10027">
        <ele>936.12164571</ele>
        <time>2016-08-10T13:10:33Z</time>
      </trkpt>
      <trkpt lat="45.60769" lon="6.10033">
        <ele>937.247153527</ele>
        <time>2016-08-10T13:10:38Z</time>
      </trkpt>
      <trkpt lat="45.60768" lon="6.1003">
        <ele>937.247153527</ele>
        <time>2016-08-10T13:10:48Z</time>
      </trkpt>
      <trkpt lat="45.60767" lon="6.10028">
        <ele>937.247153527</ele>
        <time>2016-08-10T13:10:53Z</time>
      </trkpt>
      <trkpt lat="45.60767" lon="6.10028">
        <ele>937.247153527</ele>
        <time>2016-08-10T13:11:08Z</time>
      </trkpt>
      <trkpt lat="45.60767" lon="6.10028">
        <ele>937.247153527</ele>
        <time>2016-08-10T13:11:13Z</time>
      </trkpt>
      <trkpt lat="45.60767" lon="6.10028">
        <ele>937.247153527</ele>
        <time>2016-08-10T13:11:23Z</time>
      </trkpt>
      <trkpt lat="45.60767" lon="6.10028">
        <ele>937.247153527</ele>
        <time>2016-08-10T13:11:28Z</time>
      </trkpt>
      <trkpt lat="45.60772" lon="6.10024">
        <ele>938.626723079</ele>
        <time>2016-08-10T13:11:38Z</time>
      </trkpt>
      <trkpt lat="45.60773" lon="6.10023">
        <ele>938.626723079</ele>
        <time>2016-08-10T13:11:43Z</time>
      </trkpt>
      <trkpt lat="45.60775" lon="6.10027">
        <ele>938.626723079</ele>
        <time>2016-08-10T13:11:53Z</time>
      </trkpt>
      <trkpt lat="45.60776" lon="6.10034">
        <ele>940.234296659</ele>
        <time>2016-08-10T13:11:58Z</time>
      </trkpt>
      <trkpt lat="45.60773" lon="6.1003">
        <ele>940.234296659</ele>
        <time>2016-08-10T13:12:08Z</time>
      </trkpt>
      <trkpt lat="45.60772" lon="6.1003">
        <ele>940.234296659</ele>
        <time>2016-08-10T13:12:13Z</time>
      </trkpt>
      <trkpt lat="45.60773" lon="6.10031">
        <ele>940.234296659</ele>
        <time>2016-08-10T13:12:23Z</time>
      </trkpt>
      <trkpt lat="45.60772" lon="6.10031">
        <ele>940.234296659</ele>
        <time>2016-08-10T13:12:28Z</time>
      </trkpt>
      <trkpt lat="45.60773" lon="6.10033">
        <ele>940.234296659</ele>
        <time>2016-08-10T13:12:38Z</time>
      </trkpt>
      <trkpt lat="45.6077" lon="6.1004">
        <ele>941.900662423</ele>
        <time>2016-08-10T13:12:43Z</time>
      </trkpt>
      <trkpt lat="45.6077" lon="6.10039">
        <ele>941.900662423</ele>
        <time>2016-08-10T13:12:58Z</time>
      </trkpt>
      <trkpt lat="45.6077" lon="6.1004">
        <ele>941.900662423</ele>
        <time>2016-08-10T13:13:03Z</time>
      </trkpt>
      <trkpt lat="45.60763" lon="6.10027">
        <ele>942.168069419</ele>
        <time>2016-08-10T13:13:13Z</time>
      </trkpt>
      <trkpt lat="45.60761" lon="6.10027">
        <ele>942.168069419</ele>
        <time>2016-08-10T13:13:18Z</time>
      </trkpt>
      <trkpt lat="45.60765" lon="6.10031">
        <ele>942.168069419</ele>
        <time>2016-08-10T13:13:28Z</time>
      </trkpt>
      <trkpt lat="45.60765" lon="6.10025">
        <ele>941.572403032</ele>
        <time>2016-08-10T13:13:33Z</time>
      </trkpt>
      <trkpt lat="45.60766" lon="6.10027">
        <ele>941.572403032</ele>
        <time>2016-08-10T13:13:43Z</time>
      </trkpt>
      <trkpt lat="45.60766" lon="6.10027">
        <ele>941.572403032</ele>
        <time>2016-08-10T13:13:48Z</time>
      </trkpt>
      <trkpt lat="45.60766" lon="6.10027">
        <ele>941.572403032</ele>
        <time>2016-08-10T13:13:58Z</time>
      </trkpt>
      <trkpt lat="45.60766" lon="6.10027">
        <ele>941.572403032</ele>
        <time>2016-08-10T13:14:03Z</time>
      </trkpt>
      <trkpt lat="45.60766" lon="6.10027">
        <ele>941.572403032</ele>
        <time>2016-08-10T13:14:13Z</time>
      </trkpt>
      <trkpt lat="45.60766" lon="6.10027">
        <ele>941.572403032</ele>
        <time>2016-08-10T13:14:18Z</time>
      </trkpt>
      <trkpt lat="45.60766" lon="6.1003">
        <ele>941.572403032</ele>
        <time>2016-08-10T13:14:28Z</time>
      </trkpt>
      <trkpt lat="45.60769" lon="6.10035">
        <ele>941.572403032</ele>
        <time>2016-08-10T13:14:33Z</time>
      </trkpt>
      <trkpt lat="45.60767" lon="6.10046">
        <ele>941.188477738</ele>
        <time>2016-08-10T13:14:43Z</time>
      </trkpt>
      <trkpt lat="45.60764" lon="6.10053">
        <ele>941.188477738</ele>
        <time>2016-08-10T13:14:48Z</time>
      </trkpt>
      <trkpt lat="45.60761" lon="6.10071">
        <ele>940.710120962</ele>
        <time>2016-08-10T13:14:58Z</time>
      </trkpt>
      <trkpt lat="45.60761" lon="6.10078">
        <ele>940.710120962</ele>
        <time>2016-08-10T13:15:03Z</time>
      </trkpt>
      <trkpt lat="45.60768" lon="6.10094">
        <ele>940.720397044</ele>
        <time>2016-08-10T13:15:18Z</time>
      </trkpt>
      <trkpt lat="45.60771" lon="6.10101">
        <ele>940.720397044</ele>
        <time>2016-08-10T13:15:23Z</time>
      </trkpt>
      <trkpt lat="45.60775" lon="6.10108">
        <ele>940.747803889</ele>
        <time>2016-08-10T13:15:33Z</time>
      </trkpt>
      <trkpt lat="45.60779" lon="6.10115">
        <ele>940.747803889</ele>
        <time>2016-08-10T13:15:38Z</time>
      </trkpt>
      <trkpt lat="45.60782" lon="6.10119">
        <ele>941.077242509</ele>
        <time>2016-08-10T13:15:48Z</time>
      </trkpt>
      <trkpt lat="45.60785" lon="6.10129">
        <ele>941.077242509</ele>
        <time>2016-08-10T13:15:53Z</time>
      </trkpt>
      <trkpt lat="45.60789" lon="6.10139">
        <ele>941.971787023</ele>
        <time>2016-08-10T13:16:03Z</time>
      </trkpt>
      <trkpt lat="45.6079" lon="6.10138">
        <ele>941.971787023</ele>
        <time>2016-08-10T13:16:08Z</time>
      </trkpt>
      <trkpt lat="45.6079" lon="6.10152">
        <ele>942.664368517</ele>
        <time>2016-08-10T13:16:18Z</time>
      </trkpt>
      <trkpt lat="45.60794" lon="6.1016">
        <ele>942.664368517</ele>
        <time>2016-08-10T13:16:23Z</time>
      </trkpt>
      <trkpt lat="45.60799" lon="6.10164">
        <ele>943.31031797</ele>
        <time>2016-08-10T13:16:33Z</time>
      </trkpt>
      <trkpt lat="45.60806" lon="6.10163">
        <ele>943.31031797</ele>
        <time>2016-08-10T13:16:38Z</time>
      </trkpt>
      <trkpt lat="45.60809" lon="6.10166">
        <ele>942.75616545</ele>
        <time>2016-08-10T13:16:53Z</time>
      </trkpt>
      <trkpt lat="45.6081" lon="6.10175">
        <ele>942.75616545</ele>
        <time>2016-08-10T13:16:58Z</time>
      </trkpt>
      <trkpt lat="45.6081" lon="6.10191">
        <ele>942.53184972</ele>
        <time>2016-08-10T13:17:08Z</time>
      </trkpt>
      <trkpt lat="45.60814" lon="6.10198">
        <ele>942.53184972</ele>
        <time>2016-08-10T13:17:13Z</time>
      </trkpt>
      <trkpt lat="45.60817" lon="6.10207">
        <ele>942.323925993</ele>
        <time>2016-08-10T13:17:23Z</time>
      </trkpt>
      <trkpt lat="45.60819" lon="6.10203">
        <ele>942.323925993</ele>
        <time>2016-08-10T13:17:28Z</time>
      </trkpt>
      <trkpt lat="45.60798" lon="6.10216">
        <ele>943.283906501</ele>
        <time>2016-08-10T13:19:48Z</time>
      </trkpt>
      <trkpt lat="45.6081" lon="6.10196">
        <ele>944.889570498</ele>
        <time>2016-08-10T13:19:53Z</time>
      </trkpt>
      <trkpt lat="45.60802" lon="6.10193">
        <ele>944.889570498</ele>
        <time>2016-08-10T13:20:03Z</time>
      </trkpt>
      <trkpt lat="45.60799" lon="6.10191">
        <ele>946.943707668</ele>
        <time>2016-08-10T13:20:08Z</time>
      </trkpt>
      <trkpt lat="45.60796" lon="6.10172">
        <ele>948.252944403</ele>
        <time>2016-08-10T13:20:18Z</time>
      </trkpt>
      <trkpt lat="45.60794" lon="6.10168">
        <ele>948.252944403</ele>
        <time>2016-08-10T13:20:23Z</time>
      </trkpt>
      <trkpt lat="45.60791" lon="6.10157">
        <ele>948.578931039</ele>
        <time>2016-08-10T13:20:33Z</time>
      </trkpt>
      <trkpt lat="45.60788" lon="6.10152">
        <ele>948.578931039</ele>
        <time>2016-08-10T13:20:38Z</time>
      </trkpt>
      <trkpt lat="45.60788" lon="6.10142">
        <ele>948.713289126</ele>
        <time>2016-08-10T13:20:43Z</time>
      </trkpt>
      <trkpt lat="45.60782" lon="6.10129">
        <ele>948.380627533</ele>
        <time>2016-08-10T13:20:53Z</time>
      </trkpt>
      <trkpt lat="45.60779" lon="6.1011">
        <ele>948.625347139</ele>
        <time>2016-08-10T13:20:58Z</time>
      </trkpt>
      <trkpt lat="45.60776" lon="6.10106">
        <ele>948.625347139</ele>
        <time>2016-08-10T13:21:08Z</time>
      </trkpt>
      <trkpt lat="45.60777" lon="6.10102">
        <ele>948.625347139</ele>
        <time>2016-08-10T13:21:13Z</time>
      </trkpt>
      <trkpt lat="45.60774" lon="6.10092">
        <ele>948.250045088</ele>
        <time>2016-08-10T13:21:23Z</time>
      </trkpt>
      <trkpt lat="45.6077" lon="6.10084">
        <ele>948.250045088</ele>
        <time>2016-08-10T13:21:28Z</time>
      </trkpt>
      <trkpt lat="45.60762" lon="6.10087">
        <ele>948.166522324</ele>
        <time>2016-08-10T13:21:38Z</time>
      </trkpt>
      <trkpt lat="45.60761" lon="6.10089">
        <ele>948.166522324</ele>
        <time>2016-08-10T13:21:43Z</time>
      </trkpt>
      <trkpt lat="45.60761" lon="6.1009">
        <ele>948.166522324</ele>
        <time>2016-08-10T13:21:48Z</time>
      </trkpt>
      <trkpt lat="45.6076" lon="6.10091">
        <ele>948.166522324</ele>
        <time>2016-08-10T13:21:58Z</time>
      </trkpt>
      <trkpt lat="45.6076" lon="6.1009">
        <ele>948.166522324</ele>
        <time>2016-08-10T13:22:03Z</time>
      </trkpt>
      <trkpt lat="45.60763" lon="6.10089">
        <ele>948.166522324</ele>
        <time>2016-08-10T13:22:13Z</time>
      </trkpt>
      <trkpt lat="45.60763" lon="6.10092">
        <ele>948.06490509</ele>
        <time>2016-08-10T13:22:18Z</time>
      </trkpt>
      <trkpt lat="45.60763" lon="6.10092">
        <ele>948.06490509</ele>
        <time>2016-08-10T13:22:28Z</time>
      </trkpt>
      <trkpt lat="45.60763" lon="6.10092">
        <ele>948.06490509</ele>
        <time>2016-08-10T13:22:33Z</time>
      </trkpt>
      <trkpt lat="45.60763" lon="6.10092">
        <ele>948.06490509</ele>
        <time>2016-08-10T13:22:43Z</time>
      </trkpt>
      <trkpt lat="45.60763" lon="6.10092">
        <ele>948.06490509</ele>
        <time>2016-08-10T13:22:48Z</time>
      </trkpt>
      <trkpt lat="45.60764" lon="6.1009">
        <ele>948.06490509</ele>
        <time>2016-08-10T13:22:58Z</time>
      </trkpt>
      <trkpt lat="45.60764" lon="6.10091">
        <ele>948.06490509</ele>
        <time>2016-08-10T13:23:03Z</time>
      </trkpt>
      <trkpt lat="45.60765" lon="6.1009">
        <ele>948.06490509</ele>
        <time>2016-08-10T13:23:13Z</time>
      </trkpt>
      <trkpt lat="45.60765" lon="6.1009">
        <ele>948.06490509</ele>
        <time>2016-08-10T13:23:18Z</time>
      </trkpt>
      <trkpt lat="45.60765" lon="6.1009">
        <ele>948.06490509</ele>
        <time>2016-08-10T13:23:28Z</time>
      </trkpt>
      <trkpt lat="45.60765" lon="6.1009">
        <ele>948.06490509</ele>
        <time>2016-08-10T13:23:33Z</time>
      </trkpt>
      <trkpt lat="45.60765" lon="6.1009">
        <ele>948.06490509</ele>
        <time>2016-08-10T13:23:43Z</time>
      </trkpt>
      <trkpt lat="45.60765" lon="6.10089">
        <ele>948.06490509</ele>
        <time>2016-08-10T13:23:48Z</time>
      </trkpt>
      <trkpt lat="45.60764" lon="6.1009">
        <ele>948.06490509</ele>
        <time>2016-08-10T13:23:53Z</time>
      </trkpt>
      <trkpt lat="45.60764" lon="6.10089">
        <ele>948.06490509</ele>
        <time>2016-08-10T13:24:03Z</time>
      </trkpt>
      <trkpt lat="45.60764" lon="6.10089">
        <ele>948.06490509</ele>
        <time>2016-08-10T13:24:08Z</time>
      </trkpt>
      <trkpt lat="45.60764" lon="6.1009">
        <ele>948.06490509</ele>
        <time>2016-08-10T13:24:18Z</time>
      </trkpt>
      <trkpt lat="45.60764" lon="6.1009">
        <ele>948.06490509</ele>
        <time>2016-08-10T13:24:23Z</time>
      </trkpt>
      <trkpt lat="45.60764" lon="6.1009">
        <ele>948.06490509</ele>
        <time>2016-08-10T13:24:39Z</time>
      </trkpt>
      <trkpt lat="45.60764" lon="6.1009">
        <ele>948.06490509</ele>
        <time>2016-08-10T13:24:43Z</time>
      </trkpt>
      <trkpt lat="45.60764" lon="6.1009">
        <ele>948.06490509</ele>
        <time>2016-08-10T13:24:53Z</time>
      </trkpt>
      <trkpt lat="45.60764" lon="6.1009">
        <ele>948.06490509</ele>
        <time>2016-08-10T13:24:58Z</time>
      </trkpt>
      <trkpt lat="45.60764" lon="6.1009">
        <ele>948.06490509</ele>
        <time>2016-08-10T13:25:08Z</time>
      </trkpt>
      <trkpt lat="45.60764" lon="6.1009">
        <ele>948.06490509</ele>
        <time>2016-08-10T13:25:13Z</time>
      </trkpt>
      <trkpt lat="45.60764" lon="6.1009">
        <ele>948.06490509</ele>
        <time>2016-08-10T13:25:23Z</time>
      </trkpt>
      <trkpt lat="45.60764" lon="6.1009">
        <ele>948.06490509</ele>
        <time>2016-08-10T13:25:28Z</time>
      </trkpt>
      <trkpt lat="45.60764" lon="6.1009">
        <ele>948.06490509</ele>
        <time>2016-08-10T13:25:38Z</time>
      </trkpt>
      <trkpt lat="45.60764" lon="6.1009">
        <ele>948.06490509</ele>
        <time>2016-08-10T13:25:43Z</time>
      </trkpt>
      <trkpt lat="45.60764" lon="6.1009">
        <ele>948.06490509</ele>
        <time>2016-08-10T13:25:53Z</time>
      </trkpt>
      <trkpt lat="45.60764" lon="6.1009">
        <ele>948.06490509</ele>
        <time>2016-08-10T13:25:58Z</time>
      </trkpt>
      <trkpt lat="45.60764" lon="6.1009">
        <ele>948.06490509</ele>
        <time>2016-08-10T13:26:13Z</time>
      </trkpt>
      <trkpt lat="45.60764" lon="6.1009">
        <ele>948.06490509</ele>
        <time>2016-08-10T13:26:28Z</time>
      </trkpt>
      <trkpt lat="45.60764" lon="6.1009">
        <ele>948.06490509</ele>
        <time>2016-08-10T13:26:33Z</time>
      </trkpt>
      <trkpt lat="45.60764" lon="6.1009">
        <ele>948.06490509</ele>
        <time>2016-08-10T13:26:43Z</time>
      </trkpt>
      <trkpt lat="45.60764" lon="6.1009">
        <ele>948.06490509</ele>
        <time>2016-08-10T13:26:48Z</time>
      </trkpt>
      <trkpt lat="45.60764" lon="6.1009">
        <ele>948.06490509</ele>
        <time>2016-08-10T13:26:59Z</time>
      </trkpt>
      <trkpt lat="45.60764" lon="6.1009">
        <ele>948.06490509</ele>
        <time>2016-08-10T13:27:04Z</time>
      </trkpt>
      <trkpt lat="45.60764" lon="6.1009">
        <ele>948.06490509</ele>
        <time>2016-08-10T13:27:14Z</time>
      </trkpt>
      <trkpt lat="45.60764" lon="6.1009">
        <ele>948.06490509</ele>
        <time>2016-08-10T13:27:18Z</time>
      </trkpt>
      <trkpt lat="45.60764" lon="6.1009">
        <ele>948.06490509</ele>
        <time>2016-08-10T13:27:29Z</time>
      </trkpt>
      <trkpt lat="45.60764" lon="6.1009">
        <ele>948.06490509</ele>
        <time>2016-08-10T13:27:33Z</time>
      </trkpt>
      <trkpt lat="45.60764" lon="6.1009">
        <ele>948.06490509</ele>
        <time>2016-08-10T13:27:43Z</time>
      </trkpt>
      <trkpt lat="45.60764" lon="6.1009">
        <ele>948.06490509</ele>
        <time>2016-08-10T13:27:48Z</time>
      </trkpt>
      <trkpt lat="45.60764" lon="6.1009">
        <ele>948.06490509</ele>
        <time>2016-08-10T13:27:59Z</time>
      </trkpt>
      <trkpt lat="45.60764" lon="6.1009">
        <ele>948.06490509</ele>
        <time>2016-08-10T13:28:03Z</time>
      </trkpt>
      <trkpt lat="45.60764" lon="6.1009">
        <ele>948.06490509</ele>
        <time>2016-08-10T13:28:18Z</time>
      </trkpt>
      <trkpt lat="45.60764" lon="6.1009">
        <ele>948.06490509</ele>
        <time>2016-08-10T13:28:23Z</time>
      </trkpt>
      <trkpt lat="45.60764" lon="6.1009">
        <ele>948.06490509</ele>
        <time>2016-08-10T13:28:34Z</time>
      </trkpt>
      <trkpt lat="45.60762" lon="6.10094">
        <ele>948.235207658</ele>
        <time>2016-08-10T13:28:38Z</time>
      </trkpt>
      <trkpt lat="45.60761" lon="6.10096">
        <ele>948.235207658</ele>
        <time>2016-08-10T13:28:48Z</time>
      </trkpt>
      <trkpt lat="45.60761" lon="6.10096">
        <ele>948.235207658</ele>
        <time>2016-08-10T13:28:53Z</time>
      </trkpt>
      <trkpt lat="45.60761" lon="6.10096">
        <ele>948.235207658</ele>
        <time>2016-08-10T13:29:03Z</time>
      </trkpt>
      <trkpt lat="45.60761" lon="6.10096">
        <ele>948.235207658</ele>
        <time>2016-08-10T13:29:08Z</time>
      </trkpt>
      <trkpt lat="45.60761" lon="6.10096">
        <ele>948.235207658</ele>
        <time>2016-08-10T13:29:18Z</time>
      </trkpt>
      <trkpt lat="45.60766" lon="6.10094">
        <ele>948.235207658</ele>
        <time>2016-08-10T13:29:23Z</time>
      </trkpt>
      <trkpt lat="45.60768" lon="6.10096">
        <ele>947.791491545</ele>
        <time>2016-08-10T13:29:28Z</time>
      </trkpt>
      <trkpt lat="45.60768" lon="6.10095">
        <ele>947.791491545</ele>
        <time>2016-08-10T13:29:33Z</time>
      </trkpt>
      <trkpt lat="45.60768" lon="6.10095">
        <ele>947.791491545</ele>
        <time>2016-08-10T13:29:38Z</time>
      </trkpt>
      <trkpt lat="45.60768" lon="6.10095">
        <ele>947.791491545</ele>
        <time>2016-08-10T13:29:43Z</time>
      </trkpt>
      <trkpt lat="45.60768" lon="6.10095">
        <ele>947.791491545</ele>
        <time>2016-08-10T13:29:48Z</time>
      </trkpt>
      <trkpt lat="45.60768" lon="6.10095">
        <ele>947.791491545</ele>
        <time>2016-08-10T13:29:58Z</time>
      </trkpt>
      <trkpt lat="45.60764" lon="6.10097">
        <ele>947.791491545</ele>
        <time>2016-08-10T13:30:03Z</time>
      </trkpt>
      <trkpt lat="45.60758" lon="6.10103">
        <ele>947.934148845</ele>
        <time>2016-08-10T13:30:08Z</time>
      </trkpt>
      <trkpt lat="45.60755" lon="6.10106">
        <ele>947.934148845</ele>
        <time>2016-08-10T13:30:13Z</time>
      </trkpt>
      <trkpt lat="45.60756" lon="6.10105">
        <ele>947.934148845</ele>
        <time>2016-08-10T13:30:18Z</time>
      </trkpt>
      <trkpt lat="45.60757" lon="6.10106">
        <ele>947.934148845</ele>
        <time>2016-08-10T13:30:23Z</time>
      </trkpt>
      <trkpt lat="45.60757" lon="6.10107">
        <ele>947.934148845</ele>
        <time>2016-08-10T13:30:28Z</time>
      </trkpt>
      <trkpt lat="45.60757" lon="6.10107">
        <ele>947.934148845</ele>
        <time>2016-08-10T13:30:33Z</time>
      </trkpt>
      <trkpt lat="45.60754" lon="6.10107">
        <ele>947.934148845</ele>
        <time>2016-08-10T13:30:38Z</time>
      </trkpt>
      <trkpt lat="45.60751" lon="6.10112">
        <ele>947.754353469</ele>
        <time>2016-08-10T13:30:43Z</time>
      </trkpt>
      <trkpt lat="45.60748" lon="6.10115">
        <ele>947.754353469</ele>
        <time>2016-08-10T13:30:48Z</time>
      </trkpt>
      <trkpt lat="45.60746" lon="6.10115">
        <ele>947.754353469</ele>
        <time>2016-08-10T13:30:53Z</time>
      </trkpt>
    </trkseg>
  </trk>
</gpx>